[[[{"header":{"parameterUnit":"kt","parameterCategory":2,"dx":1,"dy":1,"la1":29.285339999999998,"la2":30.599998999999997,"lo1":-89.70041500000002,"lo2":-87.6738589999976,"nx":112,"ny":82,"refTime":"2022-09-21T12:00:00:Z","depth":0,"parameterNumber":1,"parameterNumberName":"U-component_of_WINDS"},"data":[2.7763,2.8969,2.905,2.3345,2.3521,2.3082,1.538,1.4605,1.4908,1.2833,1.2431,1.2922,1.4531,1.1862,1.0085,1.2182,1.0242,0.8136,0.0,0.8496,0.946,0.9348,0.0,0.0,0.0,0.0,0.2048,0.1092,0.2121,0.2866,0.296,-0.3076,-0.8878,-1.3882,-1.9599,-2.3931,-2.6674,-2.8683,-2.8419,-2.5943,-2.8859,-3.0064,-2.9867,-3.1993,-3.2432,-3.1455,-3.0286,-2.7912,-2.4529,-2.133,-1.9633,-1.8976,-1.8168,-1.8168,-1.9148,-2.2641,-2.4604,-2.5581,-2.5394,-2.3999,-2.1947,-2.0114,-1.804,-1.6217,-1.5508,-1.4794,-1.4284,-1.4897,-1.4897,-1.4897,-1.5001,-1.3939,-1.2548,-1.1689,-0.8823,-0.6052,-0.5083,-0.3794,-0.2713,-0.2711,-0.3255,-0.3142,-0.1291,0.5021,1.0051,1.1043,1.2992,1.5162,1.7178,1.7293,1.7484,1.8168,1.8245,1.9149,2.1703,2.6565,3.0256,3.2088,3.4131,3.6172,3.8106,3.898,4.0546,4.2866,4.3614,4.4713,4.6234,4.6661,4.67,4.6402,4.7237,4.7881,2.1333,2.2823,2.3097,1.6748,1.699,1.72,1.1412,1.1013,1.1459,1.006,1.1185,1.1883,1.006,0.969,0.9522,0.9147,0.8833,0.8603,0.0,0.8471,0.8286,0.7802,0.6802,0.0,0.149,-0.0595,-0.1622,-0.1423,-0.0411,-0.0419,-0.1907,-0.6267,-1.1546,-1.7645,-2.2333,-2.6234,-2.9514,-3.1321,-3.0929,-2.8376,-3.0379,-3.131,-3.1371,-3.3143,-3.3732,-3.3137,-3.2284,-3.0022,-2.6749,-2.3189,-2.146,-2.0723,-1.9363,-1.9663,-2.1215,-2.5149,-2.6804,-2.712,-2.7079,-2.5522,-2.3296,-2.1493,-1.9533,-1.7851,-1.664,-1.5623,-1.5013,-1.5817,-1.5611,-1.5209,-1.592,-1.5381,-1.4312,-1.3022,-1.0804,-0.8484,-0.6901,-0.5406,-0.4446,-0.5211,-0.4998,-0.4341,-0.323,0.1918,0.6373,0.8281,1.0738,1.3428,1.641,1.6858,1.728,1.8297,1.8713,1.9868,2.2326,2.6573,3.0573,3.3816,3.6608,3.8826,4.0464,4.1302,4.262,4.459,4.5093,4.5915,4.6988,4.7397,4.7525,4.7321,4.7977,4.8658,1.6145,1.5561,1.4927,1.0216,0.9837,1.0153,0.8535,0.983,1.1051,0.9855,1.1082,1.1841,1.0104,0.9865,0.9787,0.939,0.9286,0.0,0.0,0.7033,0.5794,0.4551,0.6755,0.627,0.0813,-0.4537,-0.5188,0.0833,-0.1049,-0.3297,-0.5291,-1.1143,-1.6348,-2.0535,-2.7396,-3.1399,-3.2234,-3.3239,-3.3076,-3.1708,-3.1188,-3.1443,-3.2424,-3.3572,-3.4314,-3.4497,-3.3469,-3.156,-2.9027,-2.5604,-2.3487,-2.2289,-2.1869,-2.2437,-2.3904,-2.7652,-2.8747,-2.85,-2.8903,-2.6926,-2.4017,-2.2676,-2.0822,-1.8976,-1.8385,-1.6858,-1.5611,-1.7036,-1.6139,-1.5117,-1.7049,-1.65,-1.5654,-1.6089,-1.3625,-1.0779,-0.9121,-0.6579,-0.4551,-0.4443,-0.3477,-0.2824,-0.3863,-0.1712,0.1284,0.4516,0.7703,1.0867,1.4175,1.4863,1.5726,1.7803,1.9076,2.0873,2.3361,2.5232,2.8621,3.4115,3.7567,3.9859,4.0966,4.3563,4.4972,4.5022,4.6867,4.779,4.7681,4.8151,4.8473,4.8617,4.9019,4.9334,0.9589,1.1457,1.287,0.8623,1.0268,1.208,0.8987,0.9052,1.0096,1.1263,1.1006,0.0,0.0,0.0,0.9744,0.9639,0.0,1.059,0.9162,1.068,0.8551,-0.074,-0.0084,0.0326,-0.1664,-0.3917,-0.5125,-0.4799,-0.4769,-0.6892,-1.1835,-1.6603,-2.117,-2.5482,-3.0603,-3.4074,-3.5701,-3.6601,-3.5762,-3.3254,-3.3945,-3.3193,-3.1273,-3.4209,-3.4913,-3.3971,-3.486,-3.3711,-3.0964,-2.8441,-2.6448,-2.4942,-2.4491,-2.5596,-2.7562,-2.9036,-2.9784,-3.0091,-2.9894,-2.8859,-2.7108,-2.3809,-2.1866,-2.0297,-1.8053,-1.6435,-1.5611,-1.6845,-1.724,-1.7431,-1.8168,-1.8458,-1.843,-1.7864,-1.6077,-1.429,-1.3656,-1.1584,-0.9695,-0.9057,-0.7893,-0.6394,-0.454,-0.3564,-0.1615,0.2357,0.4385,0.7879,1.4349,1.5219,1.6372,1.9422,2.0521,2.2128,2.4604,2.6235,2.9505,3.5226,4.003,4.3265,4.4716,4.6021,4.6901,4.7283,4.7811,4.8284,4.8596,4.8751,4.8871,4.9042,4.9317,4.9629,0.6474,0.8091,0.9486,0.6988,0.9118,1.118,0.8621,0.8957,1.0053,1.0992,0.0,0.0,0.0,0.0,0.0,0.0,0.9937,1.0349,1.0529,0.8305,0.3546,-0.483,-0.5634,-0.5004,-0.365,-0.2714,-0.2987,-0.5006,-0.5057,-0.7648,-1.3803,-1.8213,-2.3714,-3.066,-3.4693,-3.7322,-3.866,-3.8782,-3.7629,-3.5164,-3.499,-3.3917,-3.2174,-3.4706,-3.5604,-3.5064,-3.5831,-3.5321,-3.379,-3.0869,-2.8945,-2.7927,-2.7927,-2.8505,-2.9323,-2.9958,-3.0329,-3.0439,-3.0242,-2.9696,-2.8614,-2.5708,-2.3331,-2.1199,-1.9262,-1.7661,-1.6653,-1.7878,-1.8182,-1.8458,-1.9747,-2.0443,-2.0822,-2.0905,-1.9969,-1.8746,-1.76,-1.5354,-1.322,-1.1899,-0.9908,-0.7792,-0.5423,-0.4778,-0.3359,0.0,0.2153,0.5561,1.1686,1.3532,1.5551,1.9005,2.0207,2.1836,2.4283,2.6458,2.9743,3.4667,3.911,4.2526,4.4741,4.6432,4.7702,4.8435,4.8532,4.8832,4.9241,4.9293,4.9375,4.9514,4.9649,4.9803,0.557,0.5399,0.5698,0.5427,0.7092,0.864,0.8079,0.0,1.0552,1.0272,0.0,0.9738,0.974,0.0,0.0,0.8973,0.848,0.8787,1.0822,0.2141,-0.5459,-0.8227,-1.0084,-0.954,-0.535,-0.1468,-0.0186,-0.245,-0.3133,-0.653,-1.3634,-1.771,-2.4601,-3.5102,-3.8683,-4.0577,-4.0891,-4.0274,-3.9006,-3.6948,-3.5348,-3.4261,-3.3889,-3.5121,-3.6132,-3.6714,-3.6605,-3.6651,-3.6759,-3.3156,-3.1299,-3.0843,-3.1576,-3.1117,-3.0109,-3.0674,-3.0588,-3.0329,-3.0329,-2.9894,-2.9257,-2.7987,-2.5168,-2.2145,-2.1477,-1.9792,-1.821,-1.9422,-1.9105,-1.899,-2.1428,-2.2192,-2.2676,-2.398,-2.3885,-2.286,-2.0729,-1.819,-1.5678,-1.3521,-1.061,-0.8303,-0.7147,-0.6075,-0.4673,-0.2502,0.0434,0.3878,0.8009,1.104,1.4147,1.7688,1.9277,2.1019,2.3331,2.6347,2.9703,3.3477,3.6565,3.9614,4.269,4.5557,4.7602,4.8832,4.9091,4.9327,4.9587,4.9715,4.9807,4.9927,4.9966,4.9946,0.4198,0.3917,0.4123,0.4664,0.5814,0.7404,0.0,0.0,0.0,1.2893,1.1417,0.9796,0.9998,0.8948,0.8045,0.7919,0.7755,0.6848,0.4449,-0.3429,-0.9602,-1.1618,-1.3137,-1.2003,-0.6994,-0.2095,-0.0655,-0.4287,-0.1323,-0.5119,-1.8302,-1.9323,-2.4403,-3.5191,-3.9529,-4.1542,-4.1275,-4.1977,-4.0611,-3.7275,-3.7364,-3.5797,-3.2811,-3.5582,-3.6308,-3.5625,-3.7664,-3.8087,-3.7321,-3.5892,-3.4104,-3.2324,-3.2604,-3.2457,-3.19,-3.184,-3.1527,-3.1235,-3.1235,-3.0674,-2.9981,-2.9696,-2.7562,-2.4961,-2.36,-2.1003,-1.8587,-1.9091,-2.0291,-2.1379,-2.1591,-2.2665,-2.3534,-2.3438,-2.2745,-2.2031,-2.1819,-2.0198,-1.787,-1.4979,-1.2699,-1.1557,-1.2424,-1.061,-0.8052,-0.527,-0.151,0.3015,0.8252,1.1031,1.4197,1.8659,2.0474,2.242,2.5036,2.7478,3.0471,3.4201,3.678,3.9708,4.3102,4.501,4.697,4.9051,4.9251,4.9495,4.9888,4.9799,4.9784,4.9802,4.9907,4.9915,0.3983,0.37,0.3852,0.4583,0.5731,0.0,0.0,1.0246,1.1386,1.2154,0.9674,0.7599,0.8421,0.6655,0.5382,0.5982,0.4888,0.2654,-0.1057,-0.725,-1.1486,-1.1566,-1.3301,-1.2729,-0.8386,-0.4181,-0.2118,-0.3329,0.1397,0.0739,-0.7397,-1.3852,-2.0938,-2.8916,-3.8198,-3.9278,-3.1339,-3.9149,-3.7901,-2.7579,-3.4651,-3.673,-3.4497,-3.5886,-3.6261,-3.5879,-3.7407,-3.8075,-3.7918,-3.677,-3.5844,-3.5127,-3.4288,-3.3703,-3.3244,-3.2836,-3.2614,-3.2365,-3.178,-3.1188,-3.0479,-2.9784,-2.8525,-2.6946,-2.541,-2.3677,-2.2255,-2.1591,-2.195,-2.2568,-2.3132,-2.3804,-2.466,-2.5767,-2.5728,-2.5503,-2.5874,-2.4038,-2.1492,-1.8914,-1.7392,-1.5905,-1.3542,-1.1977,-0.9629,-0.5591,-0.226,0.1719,0.7396,1.0082,1.3344,1.853,1.9747,2.1591,2.5168,2.7863,3.0738,3.3921,3.6965,3.9989,4.294,4.4615,4.6451,4.8448,4.9289,4.9768,4.9955,4.969,4.9591,4.9665,4.9676,4.9679,0.4346,0.4,0.4127,0.4922,0.5995,0.0,0.8112,0.996,1.1188,1.0204,0.7182,0.4985,0.5645,0.3417,0.1996,0.3393,0.0975,-0.2261,-0.5476,-0.9541,-1.1664,-1.0128,-1.1752,-1.206,-0.9673,-0.6472,-0.4318,-0.3964,0.0706,0.3308,0.2629,-0.8341,-1.5679,-1.8022,-3.4973,-3.5271,-1.6808,-3.4678,-3.5043,-1.8029,-3.1774,-3.7732,-3.6522,-3.6289,-3.6214,-3.6355,-3.7073,-3.7863,-3.8534,-3.7118,-3.7017,-3.7578,-3.5879,-3.4733,-3.3969,-3.3674,-3.3351,-3.2943,-3.2233,-3.1564,-3.0823,-2.9696,-2.8925,-2.8209,-2.6763,-2.6099,-2.5615,-2.4225,-2.3403,-2.3167,-2.4262,-2.4717,-2.5449,-2.7673,-2.6837,-2.5525,-2.6009,-2.4029,-2.1853,-2.046,-2.1338,-2.0536,-1.4796,-1.3366,-1.1051,-0.5373,-0.247,0.1284,0.7379,0.9961,1.3126,1.8287,1.9218,2.0987,2.4509,2.7845,3.0798,3.3239,3.6935,4.024,4.2776,4.4373,4.6059,4.7863,4.9213,4.9887,4.9914,4.9548,4.9396,4.9419,4.9375,4.9347,0.4895,0.4398,0.4388,0.5742,0.5838,0.0,1.0209,0.9765,0.8533,0.8344,0.5813,0.3147,0.1593,-0.0454,-0.1562,-0.0217,-0.3714,-0.7117,-0.8249,-0.9492,-0.9948,-0.9025,-0.8891,-0.9433,-1.1043,-0.7881,-0.7424,-1.1276,-0.9251,-0.6988,-0.4925,-0.9745,-0.9161,-0.1721,-2.9094,-2.9961,-0.0744,-3.0273,-3.6283,-1.8756,-3.3478,-3.9378,-3.7378,-3.7118,-3.6661,-3.6261,-3.7693,-3.8671,-3.908,-3.8145,-3.7793,-3.7764,-3.6651,-3.5298,-3.4049,-3.3969,-3.3025,-3.1804,-3.2646,-3.1983,-3.0697,-3.0611,-2.9784,-2.8725,-2.7716,-2.6416,-2.5187,-2.4604,-2.39,-2.3474,-2.336,-2.4281,-2.53,-2.5561,-1.9143,-1.2899,-1.2953,-1.2628,-1.2577,-1.3492,-2.0523,-2.505,-2.0892,-1.8064,-1.3929,-0.6584,-0.1924,0.3203,1.0102,1.2972,1.5697,1.9274,2.1379,2.2659,2.3157,2.7756,3.112,3.2361,3.6326,4.0025,4.3175,4.4368,4.5957,4.8148,4.912,4.9659,4.9779,4.9631,4.9323,4.8877,4.911,4.9014,0.5054,0.5148,0.5547,0.5434,0.0,0.0,0.7698,0.8244,0.8078,0.6706,0.2527,-0.1321,-0.308,-0.3354,-0.3449,-0.3747,-0.6993,-0.9553,-0.9278,-1.0021,-0.9961,-0.8386,-0.9418,-1.0266,-1.0372,-1.0423,-1.1251,-1.3092,-1.351,-1.0016,-0.1476,-0.055,0.2785,0.9336,-1.7844,-1.6924,1.5755,-1.5598,-2.2735,-0.547,-2.0287,-3.1257,-3.8514,-3.7835,-3.7174,-3.6438,-3.7319,-3.8005,-3.784,-2.9966,-3.1324,-3.7499,-2.9031,-2.9552,-3.5097,-3.5097,-3.4707,-3.4049,-3.3703,-3.3,-3.2115,-3.1041,-3.0242,-2.9433,-2.8389,-2.7576,-2.6804,-2.5674,-2.5226,-2.4962,-2.4868,-2.5038,-2.5748,-2.7492,-1.9716,-1.2162,-1.3152,-1.2538,-0.7887,0.55,-0.0561,-0.8618,-1.0959,-0.9656,-0.811,-0.7683,-0.3852,0.0856,0.6296,0.9312,1.2291,1.5787,1.6995,1.8887,2.2345,2.559,2.9127,3.3137,3.679,4.0375,4.3792,4.5495,4.7066,4.8507,4.9232,4.9363,4.8985,4.8547,4.8292,4.8246,4.8489,4.8468,0.5029,0.0,0.0,0.0,0.0,0.0,0.4588,0.542,0.579,0.3542,-0.0214,-0.3709,-0.5838,-0.5288,-0.5145,-0.7086,-0.9443,-1.0859,-1.0551,-1.1242,-1.1122,-0.923,-1.0758,-1.1619,-1.1082,-1.2947,-1.4611,-1.5437,-1.6678,-1.211,0.0202,0.503,1.1808,2.1275,-0.7771,-0.5623,3.1691,0.0755,-0.6437,1.0233,-0.8905,-2.3343,-3.3376,-3.6602,-3.765,-3.691,-3.7057,-3.7535,-3.7557,-2.8343,-3.0272,-3.8032,-2.7772,-2.871,-3.5837,-3.6043,-3.5712,-3.5097,-3.4602,-3.3969,-3.3081,-3.1249,-3.0415,-2.9784,-2.8479,-2.796,-2.7485,-2.6344,-2.6086,-2.5973,-2.588,-2.5694,-2.534,-2.4488,-1.5926,-0.7387,-0.555,-0.4413,0.1366,1.875,1.2825,0.3577,-0.0637,-0.0617,-0.1163,-0.4687,-0.2436,0.0777,0.3801,0.6853,0.9855,1.2858,1.4235,1.6868,2.1442,2.3968,2.7612,3.3057,3.6945,4.0559,4.3866,4.6059,4.774,4.8814,4.9098,4.889,4.8237,4.7656,4.7409,4.7448,4.749,4.7597,0.0,0.0,0.0,0.3733,0.3748,0.3815,0.1931,0.105,-0.0,-0.2041,-0.1739,-0.2136,-0.5573,-0.6246,-0.714,-1.0242,-1.0769,-1.1301,-1.2719,-1.3261,-1.3209,-1.2207,-1.2279,-1.3098,-1.463,-1.5334,-1.7021,-2.013,-1.9946,-1.4929,-0.3868,0.2095,1.4849,3.5979,-0.0901,0.0886,4.6715,1.6764,0.971,2.5617,-0.4463,-1.8564,-1.863,-3.2226,-3.8145,-3.7664,-3.7275,-3.7934,-3.9252,-3.9322,-3.9671,-3.9846,-3.8604,-3.6993,-3.5495,-3.6234,-3.5094,-3.3355,-3.4966,-3.4471,-3.2786,-3.1178,-3.026,-2.9388,-2.7785,-2.6712,-2.6066,-2.6086,-2.6086,-2.588,-2.5394,-2.588,-2.3726,-1.3207,-0.3186,0.6892,1.7624,1.9166,1.8818,1.9888,1.0654,0.3316,0.5535,0.564,0.515,0.4401,0.4777,0.5108,0.4849,0.7885,1.0638,1.2074,1.5856,1.8931,2.0562,2.3856,2.7411,3.1155,3.625,4.0321,4.3073,4.5449,4.742,4.8947,4.8618,4.8262,4.7838,4.7448,4.6951,4.6467,4.5983,4.6237,0.0541,0.1099,0.1913,-0.2091,-0.3319,-0.3464,-0.3094,-0.3946,-0.4964,-0.5712,-0.3859,-0.2707,-0.4559,-0.7033,-0.9237,-1.1053,-1.2576,-1.367,-1.3665,-1.4298,-1.4403,-1.3689,-1.4244,-1.4955,-1.5451,-1.7621,-1.9801,-2.1752,-2.2527,-1.9852,-1.2748,-0.4367,0.6215,1.9186,1.6269,2.4926,4.6729,2.673,2.0117,2.6787,0.63,-0.8482,-1.826,-3.2492,-3.874,-3.8216,-3.7821,-3.8563,-3.9367,-3.099,-2.7522,-2.7481,-2.7202,-2.5758,-2.4959,-3.3797,-3.6187,-3.4993,-3.5148,-3.4497,-3.3462,-3.1875,-3.0604,-2.9388,-2.7695,-2.7079,-2.662,-2.5659,-2.5733,-2.513,-2.131,-2.2963,-2.3352,-1.4081,-0.1414,1.0594,1.7902,2.5684,3.1554,3.2276,2.9239,2.4917,1.9882,1.8548,1.5927,0.9274,0.6863,0.5564,0.4921,0.4658,0.4705,0.523,0.882,1.2812,1.7154,2.0856,2.5652,3.221,3.6964,4.0658,4.3058,4.6312,4.8341,4.8856,4.8386,4.7796,4.7026,4.6648,4.626,4.5932,4.5781,4.5271,-0.1904,-0.1546,-0.0869,-0.589,-0.7131,-0.7038,-0.6836,-0.6818,-0.7035,-0.7556,-0.5612,-0.4434,-0.6128,-0.9108,-1.156,-1.2584,-1.385,-1.4991,-1.5224,-1.5767,-1.6017,-1.5978,-1.6742,-1.729,-1.7486,-1.9659,-2.1633,-2.322,-2.4159,-2.2102,-1.6338,-0.7026,0.0091,0.4522,2.2229,3.3025,3.5726,3.3573,3.3177,3.4386,1.8743,0.3916,-1.0173,-2.556,-3.4794,-3.8701,-3.8953,-3.965,-3.9902,-3.2082,-2.8673,-2.7956,-2.299,-2.0086,-1.9125,-2.2836,-2.6501,-2.9653,-2.9626,-3.1912,-3.4602,-3.293,-3.1383,-2.9739,-2.7965,-2.4581,-2.1177,-2.0225,-1.7627,-1.4365,-1.1064,-1.402,-1.6593,-1.144,0.0472,1.3173,2.2222,3.1029,3.7493,3.8406,3.8612,3.6738,3.0798,2.9142,2.5648,1.6807,1.4142,1.208,0.9118,0.7772,0.773,0.9421,1.1806,1.5566,2.1097,2.2627,2.5987,3.2406,3.6416,4.0007,4.3285,4.6711,4.8491,4.8522,4.777,4.7019,4.6295,4.616,4.5844,4.5375,4.5416,4.4766,-0.2765,-0.2646,-0.2538,-0.7803,-0.7897,-0.7155,-0.9192,-0.7783,-0.6526,-0.8094,-0.7181,-0.7051,-1.0055,-1.2239,-1.3749,-1.4728,-1.4864,-1.5379,-1.7277,-1.7527,-1.7944,-1.8963,-1.9497,-1.9952,-2.0719,-2.1437,-2.2761,-2.4909,-2.4935,-2.2084,-1.5804,-0.658,-0.3199,-0.6921,1.6503,2.5052,1.6505,3.5567,4.5644,4.6398,3.0268,1.6747,0.5315,-1.2407,-2.6927,-3.8259,-3.9622,-4.0362,-4.0802,-4.2074,-4.1716,-3.9238,-2.6769,-2.1119,-1.843,-0.6159,-0.8808,-1.8554,-1.8848,-2.579,-3.4215,-3.3132,-3.1443,-2.9568,-2.8262,-1.9984,-1.095,-1.0865,-0.3467,0.4375,0.3985,-0.0172,-0.4287,-0.4527,0.3432,1.516,3.0285,3.5217,3.7077,3.8256,3.8465,3.8297,3.7848,3.6871,3.3817,2.6738,2.5778,2.3477,1.6981,1.646,1.8361,2.2763,2.3686,2.5986,3.1033,2.8848,2.8636,3.211,3.4902,3.8552,4.3347,4.6252,4.777,4.7784,4.6728,4.6013,4.5636,4.587,4.5643,4.492,4.4917,4.4619,-0.8775,-0.9363,-0.8832,-1.3304,-1.3313,-1.2007,-1.1475,-1.0438,-0.9753,-1.0146,-0.9888,-1.0017,-1.171,-1.3358,-1.4367,-1.3867,-1.5874,-1.7505,-1.7527,-1.8626,-1.9648,-2.0183,-2.01,-2.0292,-2.1303,-2.2392,-2.4118,-2.6761,-2.6757,-2.7077,-2.7884,-1.2337,-0.7977,-1.7946,0.2584,1.4129,1.4929,1.1919,1.6836,2.936,1.4848,1.1235,1.6585,-0.7288,-2.1082,-2.6182,-2.6554,-3.2372,-4.1688,-4.2389,-3.7108,-2.9048,-3.4704,-3.05,-2.08,-1.7043,-1.7152,-1.7838,-0.8364,-0.6582,-0.9855,-1.805,-1.9398,-1.9238,-2.7047,-2.1143,-1.1567,-1.0726,-0.3375,0.4891,0.8031,0.5244,0.2922,0.8306,1.2685,1.7679,2.515,3.0742,3.5068,3.755,3.8285,3.8876,4.0041,3.8278,3.6127,3.4222,2.9063,2.4464,2.1886,1.8367,1.6307,1.6713,2.1246,2.5314,2.8115,3.2118,3.4724,3.5349,3.8155,3.937,3.8474,4.2352,4.4619,4.4849,4.4892,4.498,4.5086,4.4967,4.4872,4.492,4.4733,4.4434,-0.608,-0.868,-1.1008,-1.4848,-1.5149,-1.428,-1.349,-1.2053,-1.1168,-1.2057,-1.2695,-1.3332,-1.3859,-1.5117,-1.5874,-1.5263,-1.6764,-1.814,-1.8501,-1.948,-2.0469,-2.175,-2.1337,-2.1374,-2.2341,-2.2398,-2.3397,-2.5751,-2.6917,-2.756,-2.7845,-1.3498,-0.9962,-2.0145,-0.186,0.9122,1.1197,0.6691,0.9379,1.8996,0.6042,0.7508,2.0826,-0.0729,-0.8478,-0.5598,-1.7291,-2.6534,-3.3763,-4.021,-3.855,-3.2114,-3.3578,-2.9223,-2.0586,-0.7927,-0.6367,-0.8615,0.4834,0.5978,-0.0478,-1.2377,-1.1982,-0.8839,-1.9567,-1.1153,0.2273,0.2942,1.0268,1.8401,2.0439,1.7029,1.4024,1.7666,1.9235,2.1483,2.7078,3.1248,3.455,3.7017,3.8186,3.9214,4.0677,3.9222,3.7901,3.8182,3.4646,3.1504,3.0262,2.7029,2.4948,2.5194,2.7838,3.0237,3.1867,3.3996,3.6178,3.8377,3.8998,3.8645,3.7185,4.2169,4.4844,4.448,4.4133,4.4116,4.4483,4.4116,4.4116,4.4468,4.4318,4.4183,-0.0856,-0.5443,-1.1235,-1.4305,-1.5008,-1.4882,-1.5021,-1.3078,-1.1937,-1.3832,-1.5234,-1.6126,-1.6126,-1.7015,-1.7652,-1.7402,-1.7766,-1.8377,-1.9603,-2.0219,-2.1212,-2.3318,-2.2919,-2.2683,-2.3259,-2.1959,-2.1831,-2.3679,-2.5619,-2.5496,-2.2784,-1.2009,-0.9634,-1.7872,-0.1149,0.791,0.7834,0.9265,1.0219,1.0563,0.3015,0.8111,2.363,0.7747,0.6512,1.5598,-0.843,-1.9172,-2.0781,-3.4965,-4.0372,-3.8903,-2.9768,-2.596,-2.2407,0.3832,0.8038,0.2599,1.6198,1.4877,0.5119,-0.7478,-0.4432,0.218,-0.8453,0.3297,2.0287,2.0318,2.7755,3.5478,3.4497,3.0333,2.6093,2.4928,2.4657,2.6288,3.221,3.3889,3.4784,3.6448,3.7706,3.8974,4.0037,3.9542,3.9169,3.9836,4.0098,3.9872,3.8808,3.7484,3.7207,3.8813,3.7838,3.74,3.8143,3.603,3.6336,4.0066,3.8758,3.7711,3.7413,4.3109,4.5911,4.5192,4.388,4.3427,4.387,4.348,4.3585,4.3993,4.3856,4.3856,-0.616,-0.9654,-1.2664,-1.3997,-1.4506,-1.4654,-1.4972,-1.4484,-1.4231,-1.537,-1.6513,-1.7141,-1.6858,-1.7868,-1.8377,-1.7233,-1.8961,-1.996,-1.8874,-2.109,-2.3076,-2.3453,-2.3349,-2.305,-2.2279,-2.1939,-2.2258,-2.329,-2.2971,-2.3682,-2.5692,-1.0205,-0.6398,-1.7916,-0.1788,0.8362,1.0999,-0.0149,-0.5759,-0.5512,0.8046,2.2591,3.695,2.0733,1.544,1.8509,0.8096,-0.0405,-0.807,-2.3217,-2.9015,-2.906,-3.6325,-4.0065,-3.9241,-2.1809,-0.885,0.1642,1.3335,2.4472,3.1133,1.6802,1.4638,1.5344,0.3102,0.9374,2.0713,2.0711,2.8414,3.6522,3.5577,3.422,3.2863,3.1793,3.158,3.2052,3.3156,3.3513,3.4049,3.5478,3.6009,3.6605,3.7963,3.8344,3.8867,4.0163,3.974,3.9408,3.9614,3.9095,3.8651,3.8472,4.0114,4.0529,3.8884,4.2148,4.2113,3.7004,3.9904,3.9698,3.5027,3.9439,4.2558,4.3704,4.377,4.3645,4.3444,4.4012,4.4284,4.4401,4.3737,4.3618,-0.6549,-0.9553,-1.2833,-1.2951,-1.3648,-1.4619,-1.5949,-1.5379,-1.5127,-1.7119,-1.8004,-1.8377,-1.8478,-1.9245,-1.9628,-1.8726,-1.985,-2.06,-1.985,-2.1714,-2.3318,-2.3934,-2.4054,-2.3303,-2.1672,-2.0941,-2.0561,-2.029,-2.1246,-2.2098,-2.2609,-1.3046,-1.0686,-1.778,-0.5846,-0.0396,-0.2727,-0.1651,-0.4178,-0.993,1.4976,2.4274,1.9758,2.6456,2.8009,2.4944,1.5122,0.7951,0.2252,-1.0107,-1.463,-1.4232,-1.8354,-2.4968,-3.0285,-1.5012,-0.9766,-0.7541,1.2049,2.3649,2.8464,2.1172,2.3073,2.6052,1.4227,1.9002,2.8599,2.8902,3.2854,3.664,3.5577,3.5168,3.478,3.3626,3.3758,3.4287,3.4287,3.4287,3.4524,3.5429,3.6009,3.6531,3.6836,3.7934,3.9139,4.0002,3.9578,3.9147,3.9147,3.9415,3.8953,3.7364,3.8743,3.8996,3.7129,3.9251,3.9367,3.6377,3.969,4.0431,3.7536,4.0087,4.1966,4.2929,4.2761,4.2906,4.3345,4.3094,4.3312,4.3893,4.3333,4.3246,-0.6053,-0.9279,-1.3236,-1.2502,-1.3085,-1.4441,-1.6729,-1.6388,-1.6241,-1.8614,-1.9024,-1.9221,-1.9948,-2.0019,-2.0116,-2.0083,-2.0245,-2.049,-2.071,-2.1957,-2.3076,-2.3934,-2.4174,-2.3303,-2.0696,-1.9714,-1.8614,-1.7266,-1.9319,-2.0148,-1.9109,-1.5159,-1.4349,-1.7496,-0.6608,-0.5574,-1.5804,0.2078,0.1887,-1.6025,1.8964,2.2673,-0.03,2.812,3.7471,3.0664,1.9051,1.3254,1.1275,0.1121,-0.2092,-0.089,-0.3844,-0.9441,-1.5173,-0.9137,-1.0204,-1.1781,0.8796,1.7843,2.0557,2.222,2.8538,3.3722,2.4686,2.8375,3.581,3.6064,3.6577,3.6815,3.5478,3.5501,3.5522,3.4102,3.4287,3.4733,3.4576,3.455,3.4654,3.4966,3.5755,3.6281,3.5886,3.7306,3.8642,3.9109,3.9117,3.8953,3.8642,3.9185,3.8817,3.6871,3.735,3.7177,3.5577,3.5872,3.6115,3.6013,3.9066,4.0492,3.9772,4.1198,4.2126,4.2349,4.2068,4.2389,4.3246,4.2471,4.2527,4.3353,4.3006,4.2951,-0.7285,-1.2034,-1.519,-1.4101,-1.3498,-1.3861,-1.6137,-1.7868,-1.8986,-1.8998,-1.9084,-1.9245,-1.9872,-1.9072,-1.8672,-1.9884,-2.0096,-2.0096,-2.0083,-2.2079,-2.3197,-2.2835,-2.3212,-2.2321,-1.8998,-1.8626,-1.7879,-1.6252,-1.6357,-1.7233,-1.8998,-1.2049,-1.0801,-1.6986,0.233,0.3762,-1.5047,1.1768,0.5038,-3.4462,1.4964,2.3121,-0.4259,2.6164,3.7302,3.2178,2.3117,1.9614,1.9389,0.709,0.4219,0.5483,-1.4951,-1.4563,-0.5409,-2.918,-2.1307,0.1038,-0.015,0.8731,2.1987,3.0725,3.5003,3.6298,3.3886,3.4614,3.6057,3.5044,3.6234,3.7435,3.5961,3.6605,3.719,3.5325,3.4445,3.3943,3.3355,3.3193,3.3275,3.3275,3.333,3.3732,3.4576,3.5429,3.6159,3.6944,3.7877,3.8642,3.8826,3.8855,3.8622,3.8151,3.8416,3.7959,3.6402,3.8201,3.7936,3.4444,3.8403,3.9835,3.7728,4.0429,4.1866,4.166,4.2696,4.3083,4.2785,4.3427,4.3552,4.3353,4.3116,4.2873,-0.8431,-1.0759,-1.1553,-1.0495,-1.333,-1.6439,-1.6677,-1.7168,-1.8049,-2.0161,-2.0276,-1.9841,-1.9378,-1.9842,-2.0012,-1.9418,-1.9934,-2.0503,-2.0858,-2.1727,-2.235,-2.2471,-2.2835,-2.1971,-1.9603,-1.8874,-1.7754,-1.6126,-1.5884,-1.6252,-1.713,-1.5365,-1.3442,-1.1288,-0.3573,-0.6779,-2.2048,0.562,0.6304,-1.9364,1.7708,2.4876,0.6154,2.7324,3.3383,2.7015,2.0155,1.649,1.5307,1.3806,1.5328,1.8239,1.3235,0.5436,-0.2916,-0.2183,-1.1778,-2.1752,0.2388,0.8905,0.9635,2.8329,3.4628,3.468,3.3597,3.3677,3.3971,3.3943,3.5145,3.6226,3.5402,3.5804,3.5974,3.4209,3.3462,3.3056,3.3031,3.2868,3.2811,3.3031,3.3355,3.3623,3.3703,3.4706,3.5582,3.5707,3.6826,3.7721,3.7835,3.7206,3.7089,3.7905,3.7735,3.7278,3.6651,3.7777,3.786,3.6217,3.8338,3.9241,3.8328,3.9433,4.0709,4.1893,4.1775,4.201,4.2649,4.2325,4.2325,4.2568,4.2625,4.2454,-0.86,-0.9308,-0.9068,-0.8705,-1.169,-1.5013,-1.6004,-1.5957,-1.6973,-2.1218,-2.1206,-1.9977,-1.8856,-1.9378,-1.9632,-1.8568,-1.9374,-2.0393,-2.113,-2.1511,-2.1619,-2.1985,-2.2107,-2.1605,-1.985,-1.875,-1.7505,-1.6,-1.5632,-1.5632,-1.5874,-1.763,-1.7005,-1.3392,-1.036,-1.4543,-2.6489,0.0955,0.6515,-0.9649,1.9447,2.5624,1.1677,2.2117,2.4021,1.8752,1.3375,1.0362,0.9463,1.2084,1.7205,2.3596,2.5448,1.7867,0.6683,1.3231,-0.2044,-2.1721,0.8305,1.1728,0.622,2.7218,3.3729,3.3163,3.2589,3.2482,3.2646,3.2779,3.3971,3.5014,3.4392,3.3998,3.3444,3.2572,3.215,3.1983,3.2042,3.1983,3.2008,3.2316,3.2729,3.2918,3.2646,3.3758,3.4733,3.4811,3.5886,3.6735,3.691,3.6139,3.5886,3.6808,3.678,3.6679,3.6679,3.7101,3.7363,3.7393,3.7719,3.8,3.814,3.8387,3.9235,4.0895,4.0458,4.0678,4.1596,4.1173,4.1143,4.1635,4.2021,4.2111,-0.7498,-0.8265,-0.9372,-1.0445,-0.8358,-0.7624,-1.3502,-1.4781,-1.645,-2.2287,-2.1543,-1.9518,-1.8298,-1.7207,-1.6707,-1.7085,-1.818,-1.9381,-2.0529,-2.113,-2.1375,-2.0652,-2.113,-2.0872,-1.9245,-1.814,-1.7015,-1.601,-1.5127,-1.5,-1.5884,-1.689,-2.0529,-2.7064,-1.5235,-1.431,-2.5993,0.156,0.5481,-1.3929,1.8501,2.4785,0.7818,0.7959,0.797,0.7714,0.3082,0.2255,0.372,-0.1062,0.5465,1.7627,0.8257,1.506,2.7307,0.3591,0.3813,1.6015,1.6413,1.612,1.7585,3.0015,3.3542,3.2949,3.2258,3.2482,3.2811,3.1804,3.3,3.4261,3.2811,3.1117,2.9913,3.0604,3.0737,3.0525,2.9936,3.0306,3.0697,3.0697,3.0697,3.0869,3.1405,3.2032,3.2974,3.4419,3.5121,3.581,3.6438,3.5961,3.5429,3.5044,3.5961,3.6513,3.6513,3.6513,3.6735,3.713,3.6214,3.5886,3.6513,3.7149,3.7649,3.7934,3.8817,3.9258,3.9325,4.02,4.0614,4.0677,4.1543,4.1755,-0.5966,-0.7282,-0.9155,-1.0884,-0.9728,-0.9633,-1.5193,-1.6971,-1.7755,-1.8871,-1.914,-1.8595,-1.6547,-1.7919,-1.8906,-1.7869,-1.9035,-2.027,-2.0529,-2.0775,-2.0898,-2.0652,-2.0775,-2.0639,-2.0134,-1.8525,-1.7402,-1.7026,-1.5506,-1.4747,-1.5,-1.5884,-1.7754,-2.0529,-1.7482,-1.9512,-2.729,-0.9247,-0.4819,-1.3744,0.5673,1.244,0.773,0.773,0.4968,0.0122,-0.2065,-0.4017,-0.5519,-0.6448,-0.0708,0.919,1.3203,1.265,1.0406,1.6811,1.1032,0.2899,2.2882,2.3854,1.8336,3.0655,3.4023,3.2974,3.1154,3.0667,3.0495,2.8903,2.9409,3.0449,3.015,2.9476,2.9124,2.9826,2.9411,2.877,2.8947,2.8859,2.8969,2.9871,2.9586,2.9499,3.0196,3.1032,3.1827,3.2242,3.3971,3.5198,3.5429,3.5712,3.5483,3.4445,3.4471,3.4445,3.413,3.5171,3.5505,3.4654,3.4497,3.5375,3.7221,3.6932,3.7364,3.8817,3.8268,3.8544,3.9781,3.9715,4.017,4.1176,4.136,4.1421,-0.6629,-0.8174,-0.9919,-1.1421,-1.0303,-1.0173,-1.5095,-1.5834,-1.562,-1.6061,-1.694,-1.7226,-1.5973,-1.7342,-1.8269,-1.6697,-1.8153,-1.9648,-2.049,-2.0652,-2.0652,-2.0898,-2.1007,-2.1007,-2.1007,-1.9381,-1.814,-1.7527,-1.601,-1.5127,-1.5127,-1.601,-1.7015,-1.8015,-1.9134,-1.9948,-2.0456,-1.1877,-1.0007,-1.4473,-0.6185,-0.1466,-0.0246,-0.0246,-0.2723,-0.7162,-0.8259,-0.9419,-1.0502,-0.879,-0.4318,0.2291,1.1877,1.0987,0.6145,1.9575,1.5535,0.5818,2.351,2.5835,2.212,2.9878,3.173,3.0744,2.9254,2.8859,2.8726,2.7381,2.7764,2.8303,2.6864,2.6885,2.729,2.7339,2.7088,2.6834,2.6631,2.6539,2.6926,2.7944,2.7965,2.7965,2.857,2.9693,3.0643,3.1239,3.2654,3.3917,3.4576,3.4864,3.4785,3.4049,3.3863,3.3758,3.3677,3.4576,3.4888,3.4287,3.4128,3.4835,3.664,3.6179,3.6549,3.7988,3.7643,3.8119,3.9477,4.0171,4.0856,4.1463,4.2027,4.2159,-0.8875,-1.0264,-1.1402,-1.1891,-1.0605,-1.0177,-1.4019,-1.2698,-1.1406,-1.3893,-1.4893,-1.5401,-1.5822,-1.5715,-1.5301,-1.4629,-1.6117,-1.8072,-2.0142,-2.0355,-2.0723,-2.147,-2.1483,-2.1497,-2.1497,-2.06,-1.9357,-1.7766,-1.6639,-1.601,-1.601,-1.7026,-1.8015,-1.8998,-2.0011,-1.6739,-0.8887,-0.876,-1.1284,-1.6126,-1.6136,-1.5127,-1.363,-1.3502,-1.3502,-1.3502,-1.4484,-1.385,-1.1808,-0.8771,-0.6222,-0.3362,0.4516,0.9205,1.1777,1.3355,1.6741,2.0503,1.9392,2.2673,2.7493,2.7888,2.7616,2.7116,2.7005,2.7297,2.7541,2.6794,2.7269,2.7158,2.3451,2.379,2.4717,2.3541,2.4094,2.4548,2.3427,2.3695,2.4453,2.5281,2.588,2.6344,2.6834,2.7944,2.93,3.0705,3.1347,3.2125,3.3623,3.3568,3.3487,3.3809,3.3889,3.3969,3.434,3.434,3.4576,3.5248,3.4497,3.4232,3.4943,3.5022,3.5415,3.6011,3.7096,3.7986,3.854,4.1081,4.2015,4.1638,4.3053,4.3421,-0.9209,-1.0057,-1.1175,-1.1884,-1.4649,-1.7252,-1.7605,-1.5895,-1.3944,-1.3221,-1.2578,-1.215,-1.2306,-1.3309,-1.4746,-1.6882,-1.6645,-1.6909,-1.8708,-1.8322,-1.8818,-2.1462,-2.0469,-2.0121,-2.1497,-2.06,-1.9603,-1.875,-1.7766,-1.7151,-1.7151,-1.7402,-1.8015,-1.8998,-1.9257,-1.8519,-1.6435,-1.6435,-1.7036,-1.8253,-1.7516,-1.6513,-1.5379,-1.463,-1.4249,-1.4376,-1.462,-1.4403,-1.3818,-1.1673,-1.1289,-1.1439,-0.5934,0.1636,0.9255,0.7504,1.0512,1.5474,1.6262,1.8621,2.2099,2.7111,2.8331,2.7594,2.6691,2.6479,2.5967,2.3391,2.293,2.293,2.2351,2.2596,2.2824,2.2482,2.1883,2.1395,2.1509,2.1395,2.1786,2.3541,2.3845,2.413,2.5468,2.658,2.7492,2.7833,2.9606,3.1117,3.1431,3.2267,3.2679,3.2291,3.2209,3.2233,3.2199,3.1864,3.19,3.2515,3.3139,3.3864,3.496,3.5695,3.6354,3.6972,3.7233,3.7825,3.8669,3.93,4.0146,4.1318,4.1239,4.1861,-1.0555,-1.213,-1.3331,-1.2031,-1.4088,-1.6041,-1.4613,-1.3177,-1.1795,-1.0567,-0.989,-0.9891,-1.1187,-1.079,-1.1403,-1.4714,-1.4298,-1.4706,-1.7989,-1.7771,-1.7938,-1.9573,-2.0713,-2.1063,-2.049,-2.1321,-2.1063,-1.9245,-1.8513,-1.8264,-1.8264,-1.8264,-1.8637,-1.9752,-1.9764,-1.9764,-1.9764,-1.9764,-1.9505,-1.8998,-1.8015,-1.6764,-1.5496,-1.4503,-1.3995,-1.4003,-1.3222,-1.3502,-1.4439,-1.2359,-1.202,-1.2606,-0.8883,-0.3225,0.2791,0.263,0.3217,0.4333,0.6018,0.8791,1.2099,1.5543,1.7704,1.8718,1.8411,1.9881,2.1426,2.0235,2.0291,2.0698,1.9862,2.0244,2.0755,2.013,1.9633,1.9333,1.9333,1.8947,1.9148,2.0822,2.1313,2.1819,2.3307,2.4509,2.5449,2.6026,2.7381,2.8527,2.8947,2.9603,3.0058,2.9931,3.0127,3.0346,3.0651,3.0415,3.0565,3.1164,3.1489,3.2422,3.4125,3.5546,3.6416,3.6556,3.7036,3.7717,3.8417,3.9886,4.0852,4.148,4.2155,4.2959,-1.225,-1.4501,-1.5798,-1.2797,-1.2362,-1.2195,-1.0329,-0.927,-0.8604,-0.8147,-0.7948,-0.8589,-1.0982,-0.8988,-0.7962,-1.0927,-1.0865,-1.2168,-1.72,-1.7131,-1.6917,-1.7709,-2.1118,-2.2386,-2.0206,-2.2158,-2.2521,-1.985,-1.9369,-1.9257,-1.9257,-1.9369,-1.9875,-2.0762,-2.0775,-2.0775,-2.0775,-2.0775,-2.027,-1.9245,-1.8264,-1.7005,-1.5612,-1.4376,-1.3749,-1.3749,-1.1816,-1.2192,-1.3986,-1.1703,-1.0688,-1.0301,-0.8084,-0.6006,-0.3913,-0.1271,-0.3254,-0.7026,-0.5371,-0.2241,0.1214,0.2109,0.4757,0.7801,0.8816,1.2126,1.5576,1.5893,1.7559,1.8725,1.6472,1.7125,1.8228,1.7227,1.7227,1.7533,1.7457,1.696,1.696,1.8284,1.8976,1.9777,2.1099,2.2226,2.3349,2.4623,2.5093,2.5635,2.6499,2.6702,2.7017,2.7541,2.8034,2.8592,2.9388,2.9411,2.9654,3.0297,3.001,3.0754,3.3017,3.4995,3.5992,3.5771,3.6771,3.75,3.7949,4.072,4.1844,4.1552,4.3464,4.4406,-1.282,-1.3827,-1.5032,-1.5451,-1.4649,-1.3661,-1.334,-1.175,-1.0301,-1.0228,-0.9513,-0.9035,-0.9479,-0.9537,-0.9237,-0.8402,-0.8793,-1.0609,-1.4651,-1.3794,-1.4401,-1.8911,-2.0205,-2.1496,-2.3724,-2.3288,-2.2685,-2.24,-2.1103,-2.0393,-2.0393,-2.0885,-2.1252,-2.1375,-2.1375,-2.1375,-2.1375,-2.1375,-2.1007,-2.0393,-1.9257,-1.8626,-1.8365,-1.6377,-1.5506,-1.5379,-1.2831,-1.1937,-1.2192,-1.0397,-0.8984,-0.8084,-0.7171,-0.5742,-0.4184,-0.3773,-0.5618,-0.8215,-0.7968,-0.6349,-0.3722,0.0812,0.4044,0.6547,0.8882,1.0313,1.0444,0.7491,1.0553,1.4223,1.2453,1.3052,1.429,1.4634,1.4437,1.4667,1.6691,1.6357,1.6126,1.7979,1.8789,1.9377,2.026,2.0936,2.1624,2.2534,2.3193,2.3922,2.4773,2.5468,2.6046,2.662,2.6733,2.7079,2.7965,2.8055,2.8327,2.8687,2.9388,3.0639,3.2526,3.4028,3.5429,3.6697,3.6886,3.7058,3.7136,3.8011,3.9057,4.0327,4.1066,4.2558,-1.3555,-1.444,-1.522,-1.5274,-1.4665,-1.4045,-1.3932,-1.2882,-1.1626,-1.0511,-0.9909,-0.9575,-0.9665,-0.9159,-0.8935,-0.9579,-0.8806,-0.8871,-1.1048,-1.2512,-1.4129,-1.6403,-1.9062,-2.0914,-2.1185,-2.2414,-2.2791,-2.1714,-2.1605,-2.1524,-2.1096,-2.1427,-2.177,-2.1973,-2.1797,-2.1755,-2.2107,-2.1741,-2.1266,-2.0529,-1.9505,-1.8998,-1.8998,-1.7516,-1.6513,-1.5748,-1.3316,-1.1914,-1.1282,-1.0017,-0.9255,-0.8743,-0.8478,-0.7436,-0.6006,-0.6006,-0.673,-0.8032,-0.9252,-0.9073,-0.8212,-0.7459,-0.4715,-0.1556,-0.0824,-0.0933,-0.0629,0.2222,0.4793,0.739,1.0781,1.1857,1.2156,1.2567,1.2931,1.3593,1.4805,1.4377,1.4273,1.5945,1.664,1.7444,1.8545,1.8947,1.9448,2.0573,2.0739,2.1232,2.234,2.3035,2.3708,2.4394,2.4679,2.5339,2.6304,2.599,2.6341,2.783,2.793,2.9213,3.2161,3.305,3.4232,3.5718,3.5868,3.5996,3.5996,3.7318,3.8333,3.9008,4.0737,4.2309,-1.5687,0.0,-1.7417,-1.6785,-1.5941,-1.5228,0.0,-1.4087,-1.2808,-1.0815,-1.0335,-1.0289,-1.026,-0.8985,-0.8543,-1.0456,-0.8885,-0.7658,-0.8394,-1.1398,-1.389,-1.5142,-1.8903,-2.1091,-2.0142,-2.213,-2.3033,-2.1483,-2.1985,-2.1947,-2.1279,-2.1618,-2.1961,-2.2415,-2.1975,-2.2107,-2.2713,-2.2107,-2.1497,-2.0762,-1.9888,-1.9381,-1.9381,-1.8389,-1.7266,-1.6136,-1.3679,-1.1899,-1.0634,-0.9507,-0.8743,-0.8483,-0.8743,-0.8094,-0.7181,-0.7306,-0.7306,-0.7407,-0.9619,-1.0482,-1.1187,-1.4374,-1.2838,-0.9582,-0.9367,-1.0659,-1.055,-0.2662,-0.032,0.1182,0.7323,0.9077,0.9405,0.9916,1.0806,1.1796,1.2692,1.2931,1.3277,1.4086,1.469,1.5508,1.673,1.6832,1.724,1.8559,1.8472,1.8688,2.0122,2.062,2.1313,2.2408,2.2877,2.3702,2.4923,2.4318,2.4892,2.7258,2.673,2.7932,3.1321,3.2019,3.2885,3.4019,3.4385,3.4727,3.494,3.6884,3.7929,3.8107,4.0545,4.2151,0.0,-2.2108,-2.3016,-2.3182,-2.0863,-1.8389,-1.7901,-1.6055,0.0,-1.2267,-1.1601,-1.1224,-1.0743,-0.9775,-0.8939,-0.8644,-0.793,-0.7586,-0.8091,-0.9352,-1.244,-1.8359,-2.0658,-2.2727,-2.54,-2.3872,-2.2926,-2.3604,-2.2443,-2.1402,-2.0705,-2.1769,-2.2499,-2.2542,-2.2499,-2.2835,-2.3453,-2.2835,-2.2107,-2.1511,-2.0762,-2.0516,-2.0393,-1.9381,-1.8389,-1.7277,-1.4565,-1.1899,-0.936,-0.7685,-0.6132,-0.4706,-0.5749,-0.6148,-0.6417,-0.7181,-0.6916,-0.6656,-0.9091,-1.055,-1.1872,-1.4629,-1.485,-1.3571,-1.0293,-1.2485,-1.487,-0.8763,-0.5167,-0.2811,-0.0862,0.1837,0.4446,0.6024,0.6686,0.7673,1.0642,1.3162,1.4498,1.3541,1.3845,1.4574,1.5404,1.4886,1.5001,1.6653,1.687,1.7369,1.8688,1.889,1.9592,2.1411,2.1983,2.286,2.4407,2.3882,2.4499,2.6697,2.6807,2.7701,2.9596,3.1053,3.1847,3.1908,3.254,3.3217,3.4062,3.6077,3.7421,3.8107,4.0037,4.1161,-2.2528,-2.3498,-2.4153,-2.3595,-2.1829,-2.0149,-2.0067,-1.7757,-1.5176,-1.3497,-1.2443,-1.1588,-1.084,-1.0097,-0.9823,-1.0432,-0.8872,-0.8173,-0.9634,-1.037,-1.0947,-1.1446,-1.6523,-2.0929,-2.3155,-2.2897,-2.2713,-2.3047,-2.3303,-2.2886,-2.1777,-2.2194,-2.2592,-2.2592,-2.3529,-2.3889,-2.3574,-2.3889,-2.3168,-2.1619,-2.1375,-2.1021,-2.0529,-2.0147,-1.9517,-1.8389,-1.6231,-1.4484,0.0,-0.9771,-0.7959,-0.6795,-0.627,-0.6665,-0.7585,-0.8219,-0.7959,-0.7835,-0.9642,-1.0331,-1.0822,-1.2351,-1.3887,-1.4943,-1.3504,-1.5017,-1.637,-1.2886,-1.0989,-0.8582,-0.3006,-0.1981,-0.1627,0.1837,0.3356,0.5091,0.897,1.1052,1.193,1.154,1.2165,1.2902,1.3217,1.3007,1.3426,1.4886,1.5369,1.6311,1.8134,1.9096,1.9976,2.1164,2.21,2.29,2.3956,2.4031,2.4936,2.6962,2.6521,2.6986,2.8683,2.9709,3.0387,3.0387,3.106,3.1838,3.2588,3.3912,3.5508,3.7421,3.8859,4.0037,-2.6431,-2.7118,-2.746,-2.6588,-2.4689,-2.2791,-2.1922,-1.9342,-1.6462,-1.4161,-1.2827,-1.1811,-1.1095,-1.0505,-1.0427,-1.1173,-0.9456,-0.878,-1.105,-1.1339,-1.0951,-0.991,-1.5553,-1.9975,-2.1199,-2.2037,-2.2592,-2.2835,-2.3453,-2.3403,-2.2207,-2.2207,-2.235,-2.2592,-2.3723,-2.4222,-2.3814,-2.4263,-2.3649,-2.2228,-2.1741,-2.1375,-2.0898,-2.0652,-2.0011,-1.8998,-1.7505,-1.5904,-1.4048,-1.1196,-0.9125,-0.7445,-0.6791,-0.6791,-0.7051,-0.7556,-0.7954,-0.8618,-1.0307,-1.081,-1.0883,-1.2031,-1.397,-1.6,-1.6106,-1.6956,-1.7466,-1.5649,-1.4324,-1.2008,-0.5805,-0.5273,-0.5302,-0.1307,0.0761,0.2715,0.6296,0.9369,1.1136,1.0075,1.0814,1.1451,1.154,1.153,1.1823,1.3001,1.3701,1.4762,1.6755,1.7961,1.9114,2.0357,2.1781,2.2795,2.348,2.3673,2.4557,2.6715,2.5792,2.5775,2.7547,2.8356,2.8816,2.8816,2.9709,3.0593,3.1243,3.2059,3.3696,3.5823,3.6711,3.7785,-3.2839,-3.3743,-3.4127,-3.3375,-3.0356,-2.6618,-2.3603,-2.0823,-1.784,-1.4195,-1.2704,-1.195,-1.1539,-1.1043,-1.0575,-1.0204,-0.9257,-0.9478,-1.2096,-1.1943,-1.2738,-1.6165,-1.8961,-2.0613,-2.0608,-2.1776,-2.2835,-2.3438,-2.297,-2.2228,-2.1619,-2.1619,-2.1863,-2.2471,-2.3068,-2.3719,-2.4549,-2.3814,-2.3574,-2.3438,-2.2228,-2.1619,-2.1497,-2.0898,-2.0011,-1.8998,-1.8015,-1.5602,-1.2401,-1.1282,-0.885,-0.6006,-0.6916,-0.6136,-0.4315,-0.4689,-0.6384,-0.8618,-1.0973,-1.2118,-1.2728,-1.4358,-1.5706,-1.6937,-1.7739,-1.8227,-1.8239,-1.7262,-1.4721,-1.2024,-1.0226,-0.8345,-0.6253,-0.3071,-0.1198,0.0436,0.2184,0.8443,1.2814,0.9692,0.9792,1.0229,1.0281,1.0328,1.0445,1.0797,1.1554,1.26,1.4189,1.5017,1.6405,1.8802,2.0898,2.2421,2.3185,2.2457,2.3153,2.6028,2.4367,2.4248,2.6145,2.6866,2.7233,2.7233,2.8526,2.952,3.0329,3.0948,3.2059,3.3437,3.3437,3.4169,-3.6004,-3.5838,-3.4886,-3.4312,-3.1927,-2.8772,-2.4894,-2.1696,-1.8563,-1.5198,-1.3487,-1.2374,-1.161,-1.1064,-1.071,-1.078,-1.1274,-1.2263,-1.3894,-1.5664,-1.7147,-1.8223,-1.9632,-2.0634,-2.0618,-2.1321,-2.2107,-2.2835,-2.2713,-2.2228,-2.1619,-2.1985,-2.2592,-2.3197,-2.3965,-2.4463,-2.4533,-2.4979,-2.4622,-2.3574,-2.3076,-2.2471,-2.1619,-2.1375,-2.0885,-2.0147,-1.901,-1.7108,-1.4448,-1.2671,-0.9985,-0.6916,-0.6396,-0.5485,-0.4448,-0.5482,-0.5221,-0.4961,-0.9402,-1.0301,-1.0133,-1.3197,-1.5272,-1.6552,-1.6541,-1.717,-1.7675,-1.7428,-1.5469,-1.3314,-1.2683,-0.9553,-0.6472,-0.5247,-0.3147,-0.105,0.0816,0.5957,0.9859,0.8739,0.8623,0.8739,0.9046,0.9117,0.9285,0.9989,1.1319,1.2734,1.3805,1.5512,1.695,1.8177,1.9719,2.0689,2.0928,2.1794,2.2642,2.3469,2.4128,2.4637,2.5232,2.6044,2.6497,2.6497,2.6849,2.7431,2.8108,2.9369,3.05,3.1335,3.2765,3.3976,-3.8114,-3.772,-3.6386,-3.6176,-3.3824,-3.05,-2.5752,-2.2692,-1.9674,-1.5458,-1.3985,-1.3117,-1.2111,-1.1969,-1.243,-1.3679,-1.3952,-1.5095,-1.8237,-1.9338,-2.005,-2.0539,-2.1039,-2.1252,-2.1021,-2.1863,-2.235,-2.2471,-2.2592,-2.2562,-2.2694,-2.3099,-2.3485,-2.3839,-2.442,-2.4525,-2.4533,-2.4995,-2.4876,-2.3934,-2.3679,-2.3076,-2.235,-2.2107,-2.1619,-2.0885,-1.9505,-1.7743,-1.5728,-1.3697,-1.0769,-0.769,-0.7042,-0.5746,-0.4318,-0.5098,-0.4834,-0.444,-0.7695,-0.8861,-0.9495,-1.244,-1.4222,-1.5224,-1.5486,-1.6252,-1.7015,-1.6628,-1.5486,-1.4168,-1.307,-1.0528,-0.8232,-0.7677,-0.5874,-0.4202,-0.3835,0.012,0.4555,0.7797,0.8534,0.8409,0.7894,0.8084,0.8507,0.8989,1.0693,1.2257,1.349,1.5319,1.6869,1.7777,1.8513,1.9245,1.9973,2.0451,2.1294,2.2251,2.3259,2.4144,2.4891,2.5808,2.6263,2.6263,2.6497,2.6866,2.7233,2.8356,2.9141,2.9464,3.0778,3.1798,-3.9751,-3.9479,-3.844,-3.8561,-3.6112,-3.216,-2.6299,-2.3665,-2.0894,-1.5278,-1.4262,-1.4009,-1.2808,-1.3553,-1.5128,-1.7504,-1.7119,-1.841,-2.3936,-2.2854,-2.1937,-2.305,-2.2806,-2.235,-2.1741,-2.2771,-2.3285,-2.2678,-2.2735,-2.3279,-2.4568,-2.4423,-2.451,-2.4573,-2.4358,-2.4402,-2.4549,-2.4533,-2.4533,-2.4533,-2.3934,-2.3574,-2.3438,-2.2835,-2.2228,-2.1497,-1.9505,-1.7879,-1.6377,-1.4503,-1.1688,-0.8591,-0.8462,-0.6912,-0.4445,-0.4448,-0.4967,-0.5746,-0.6125,-0.768,-1.0017,-1.1695,-1.2448,-1.3061,-1.4475,-1.5486,-1.6,-1.5234,-1.4855,-1.4358,-1.208,-1.1354,-1.0946,-0.9971,-0.8599,-0.8008,-0.9744,-0.729,-0.2297,0.6542,0.8628,0.8501,0.7135,0.7408,0.8037,0.8161,0.9604,1.1296,1.3078,1.4738,1.6136,1.7151,1.7277,1.8015,1.9603,1.8998,1.9603,2.1901,2.2265,2.3138,2.4518,2.5572,2.6145,2.6145,2.6631,2.6999,2.7116,2.7779,2.8126,2.8126,2.8241,2.8816,-4.2301,-4.1899,-4.1062,-4.0719,-3.8722,-3.5015,-2.7674,-2.4627,-2.188,-1.6324,-1.4617,-1.3741,-1.255,-1.4916,-1.6907,-1.6469,-2.0581,-2.4438,-2.6046,-2.558,-2.5228,-2.5507,-2.3769,-2.2471,-2.235,-2.305,-2.3461,-2.3336,-2.3808,-2.4453,-2.5222,-2.529,-2.5211,-2.5199,-2.4664,-2.4448,-2.4533,-2.4533,-2.4533,-2.4533,-2.4294,-2.4054,-2.3438,-2.2835,-2.2228,-2.1497,-2.0516,-1.8762,-1.6503,-1.6,-1.3714,-1.0268,-0.9759,-0.8203,-0.6262,-0.588,-0.5362,-0.4706,-0.5876,-0.6916,-0.8214,-0.9888,-1.1053,-1.208,-1.3366,-1.3876,-1.4131,-1.4493,-1.4249,-1.3494,-1.2472,-1.1779,-1.0948,-0.949,-0.8593,-0.7961,-0.7327,-0.8243,-0.6555,0.256,0.4364,0.5139,0.7067,0.7479,0.7755,0.8264,0.9085,1.0281,1.1937,1.3205,1.4358,1.5399,1.602,1.6764,1.7891,1.8773,1.9517,2.0011,2.1943,2.2926,2.2578,2.4263,2.5232,2.5232,2.5367,2.5706,2.6497,2.7663,2.8126,2.8241,2.8738,2.9633,-4.2451,-4.2623,-4.2632,-4.2355,-4.0716,-3.758,-3.1554,-2.8961,-2.615,-1.9974,-1.9182,-1.8111,-1.3336,-1.6575,-1.9688,-1.903,-2.317,-2.7015,-2.8563,-2.793,-2.7065,-2.638,-2.4963,-2.4009,-2.3649,-2.4617,-2.5013,-2.4638,-2.6035,-2.6699,-2.6407,-2.6671,-2.6591,-2.5927,-2.5411,-2.4995,-2.4533,-2.4876,-2.4876,-2.4533,-2.4174,-2.3814,-2.3438,-2.3197,-2.2713,-2.1985,-2.0626,-1.8998,-1.738,-1.6126,-1.3968,-1.1303,-1.0918,-0.9237,-0.6778,-0.6522,-0.5616,-0.4448,-0.5619,-0.6656,-0.7561,-0.8984,-1.0152,-1.1196,-1.2223,-1.248,-1.26,-1.3358,-1.3239,-1.2864,-1.2087,-1.1703,-1.1196,-1.003,-0.9519,-0.9002,-0.783,-0.7975,-0.6929,-0.1824,0.0652,0.2744,0.4837,0.614,0.7046,0.782,0.8855,1.0023,1.1175,1.2192,1.3222,1.4766,1.5516,1.6262,1.6911,1.8276,1.9022,1.9022,2.0981,2.2093,2.1971,2.3303,2.4159,2.4159,2.4653,2.5114,2.5572,2.6732,2.7431,2.7681,2.8046,2.8834,-4.1999,-4.292,-4.3749,-4.3769,-4.2237,-3.9591,-3.56,-3.3432,-3.0572,-2.4538,-2.4193,-2.2773,-1.5701,-1.8455,-2.2352,-2.3875,-2.5987,-2.8226,-3.0577,-2.9533,-2.7955,-2.6514,-2.6263,-2.5841,-2.5344,-2.6349,-2.6959,-2.6214,-2.8436,-2.9061,-2.7505,-2.7965,-2.7827,-2.6452,-2.6175,-2.5576,-2.4772,-2.5453,-2.5453,-2.4772,-2.3919,-2.3574,-2.3574,-2.3333,-2.2835,-2.2228,-2.0232,-1.9109,-1.8377,-1.5874,-1.3977,-1.2576,-1.22,-1.0261,-0.768,-0.7426,-0.6262,-0.4837,-0.5746,-0.6656,-0.7565,-0.8602,-0.9642,-1.0681,-1.1324,-1.1446,-1.1582,-1.2223,-1.248,-1.2351,-1.1574,-1.1446,-1.1324,-1.0681,-1.0552,-1.0294,-0.9384,-0.7825,-0.6396,-0.5616,-0.2087,0.1045,0.2221,0.4309,0.6136,0.7176,0.8726,0.9888,1.0789,1.1303,1.2328,1.4258,1.5127,1.5894,1.6419,1.7766,1.8626,1.8626,2.0245,2.1361,2.1741,2.2578,2.3062,2.3062,2.3919,2.4533,2.4891,2.5808,2.6497,2.7233,2.7349,2.7681,-4.2678,-4.3934,-4.4742,-4.4669,-4.2608,-3.9802,-3.6523,-3.3658,-3.0918,-2.8382,-2.4727,-2.1843,-2.1451,-2.0873,-2.3059,-3.0804,-3.0626,-2.988,-3.0872,-2.9458,-2.7957,-2.7202,-2.7099,-2.7003,-2.6764,-2.7252,-2.7678,-2.7731,-2.9325,-2.9475,-2.7549,-2.7997,-2.7827,-2.6452,-2.6349,-2.6181,-2.569,-2.5792,-2.5792,-2.5674,-2.4144,-2.3574,-2.3453,-2.235,-2.1741,-2.1619,-1.9875,-1.8998,-1.875,-1.6628,-1.5622,-1.5243,-1.374,-1.2336,-1.1039,-0.9882,-0.8203,-0.6522,-0.7046,-0.7306,-0.7565,-0.8602,-0.9642,-1.0681,-1.1324,-1.1446,-1.1582,-1.2223,-1.248,-1.2351,-1.1574,-1.1446,-1.1324,-1.0681,-1.0552,-1.0423,-1.0294,-0.9384,-0.8084,-0.64,-0.3133,-0.0261,0.0914,0.2739,0.4825,0.7042,0.8079,0.9108,1.0661,1.0796,1.106,1.22,1.3723,1.4991,1.5884,1.8027,1.9282,1.9282,2.0872,2.1497,2.0762,2.1619,2.2093,2.2093,2.2335,2.3197,2.4891,2.5572,2.6397,2.7233,2.7797,2.8374,-3.9235,-4.0904,-4.2237,-4.3038,-4.2282,-4.0921,-3.8881,-3.7446,-3.6136,-3.4606,-3.0502,-2.6176,-2.2875,-2.1887,-2.2877,-2.6828,-2.9748,-3.1384,-3.1081,-3.0253,-2.9039,-2.7384,-2.7681,-2.7821,-2.7189,-2.8266,-2.8708,-2.8133,-2.8162,-2.7625,-2.6341,-2.6881,-2.6869,-2.5896,-2.5865,-2.6131,-2.6648,-2.7082,-2.6849,-2.5792,-2.4725,-2.3784,-2.2956,-2.235,-2.1863,-2.1497,-2.0232,-1.9603,-1.948,-1.763,-1.6764,-1.6639,-1.5379,-1.3968,-1.2552,-1.1039,-0.885,-0.6907,-0.7301,-0.7825,-0.8473,-0.9513,-1.0159,-1.0552,-1.081,-1.0938,-1.1189,-1.2095,-1.2223,-1.1959,-1.1967,-1.1703,-1.1324,-1.0681,-1.0552,-1.0552,-1.0552,-0.9642,-0.8473,-0.7181,-0.47,-0.2221,-0.0784,0.0914,0.2869,0.4955,0.7301,0.9002,0.9648,1.0165,1.0803,1.1808,1.3341,1.462,1.5389,1.7516,1.8898,1.8898,2.0503,2.1375,2.1375,2.1741,2.1971,2.1971,2.1971,2.2335,2.3197,2.4622,2.5808,2.6866,2.7779,2.8719,-3.565,-3.7439,-3.9172,-4.1078,-4.1262,-4.0836,-4.0076,-3.9785,-3.9464,-3.8792,-3.4648,-3.0117,-2.6661,-2.515,-2.4626,-2.5419,-3.0013,-3.2985,-3.1533,-3.1114,-3.0183,-2.7975,-2.8683,-2.8871,-2.754,-2.8827,-2.9213,-2.7751,-2.6981,-2.6159,-2.5402,-2.607,-2.6112,-2.5464,-2.5448,-2.6089,-2.7233,-2.7913,-2.7663,-2.6481,-2.5658,-2.459,-2.3423,-2.2926,-2.2321,-2.1849,-2.0355,-1.9973,-1.9986,-1.8264,-1.7652,-1.7766,-1.6764,-1.535,-1.3941,-1.2432,-1.0255,-0.7939,-0.8338,-0.8731,-0.9378,-1.0165,-1.0552,-1.0681,-1.0552,-1.0552,-1.0681,-1.171,-1.1582,-1.1317,-1.1831,-1.1582,-1.1067,-1.0552,-1.0552,-1.0423,-1.0159,-0.9507,-0.8602,-0.7306,-0.5749,-0.4184,-0.2483,-0.0784,0.0914,0.2739,0.5868,0.8359,0.8889,0.9654,1.0545,1.1431,1.3086,1.424,1.4512,1.6754,1.8253,1.8253,1.9764,2.0872,2.1361,2.1727,2.1971,2.1971,2.1971,2.2093,2.2335,2.3904,2.5335,2.6481,2.7797,2.8949,-3.3208,-3.4848,-3.6503,-3.9438,-3.9381,-3.8589,-3.8589,-3.8174,-3.7844,-3.8582,-3.3963,-3.1376,-3.6296,-3.2948,-3.014,-3.2706,-3.4691,-3.512,-3.2734,-3.1676,-3.0576,-2.9446,-3.0627,-3.0524,-2.8161,-2.868,-2.835,-2.6464,-2.6583,-2.6458,-2.5495,-2.6082,-2.6112,-2.5464,-2.5448,-2.6089,-2.7233,-2.7233,-2.7681,-2.8356,-2.6965,-2.6145,-2.6028,-2.3844,-2.2883,-2.2762,-2.0219,-1.9628,-2.0406,-1.84,-1.8015,-1.8874,-1.7766,-1.6764,-1.5748,-1.4981,-1.307,-1.0789,-1.1189,-1.0667,-0.9888,-1.0416,-1.0938,-1.1324,-1.0681,-1.0552,-1.0552,-1.0552,-1.0552,-1.0552,-1.0552,-1.0552,-1.0552,-1.0552,-1.0552,-1.0165,-0.9249,-0.899,-0.8343,-0.6266,-0.5876,-0.5358,-0.4318,-0.2613,-0.0914,0.0653,0.3648,0.6514,0.8624,0.9266,0.9648,1.0423,1.232,1.346,1.346,1.6,1.7527,1.7527,1.8785,1.9529,1.9529,2.1117,2.1971,2.1971,2.1971,2.2335,2.3288,2.3978,2.4813,2.591,2.8144,2.91,-2.8987,-3.0616,-3.2322,-3.6271,-3.7051,-3.6963,-3.7446,-3.7175,-3.6987,-3.8033,-3.4454,-3.1738,-3.3879,-3.2163,-3.0559,-3.0866,-3.2919,-3.4107,-3.275,-3.2311,-3.1414,-2.9653,-3.1086,-3.1587,-3.0174,-2.9584,-2.8695,-2.7176,-2.5992,-2.5185,-2.484,-2.5061,-2.5016,-2.48,-2.4784,-2.5624,-2.7233,-2.7233,-2.7913,-2.9387,-2.8241,-2.7198,-2.6129,-2.4321,-2.3364,-2.2883,-2.0858,-2.027,-2.0529,-1.9777,-1.9653,-1.9888,-1.8886,-1.8253,-1.7743,-1.5738,-1.3697,-1.2034,-1.3332,-1.2712,-1.1567,-1.1703,-1.1967,-1.2087,-1.1831,-1.1446,-1.1196,-1.1574,-1.1189,-1.0552,-1.1067,-1.081,-1.0552,-1.0552,-1.0552,-1.0423,-1.003,-0.8861,-0.7695,-0.6916,-0.5749,-0.4706,-0.4318,-0.3793,-0.2613,-0.0522,0.1042,0.299,0.5475,0.77,0.9137,0.9114,1.0397,1.1545,1.2695,1.4348,1.5864,1.7402,1.901,1.9862,1.9862,2.1714,2.2685,2.2172,2.2685,2.3168,2.3978,2.4487,2.5437,2.7048,2.801,2.8949,-2.4538,-2.6344,-2.8599,-3.2724,-3.4484,-3.533,-3.6212,-3.6161,-3.6212,-3.7074,-3.5168,-3.3417,-3.3638,-3.3057,-3.2484,-3.1741,-3.3028,-3.3867,-3.3567,-3.3158,-3.2484,-3.1033,-3.212,-3.2262,-3.0638,-3.003,-2.9182,-2.808,-2.6846,-2.5645,-2.4608,-2.4497,-2.4471,-2.4533,-2.4533,-2.5351,-2.7233,-2.7233,-2.8144,-2.9955,-2.9273,-2.8472,-2.7414,-2.5523,-2.444,-2.3963,-2.1849,-2.0898,-2.0898,-2.0652,-2.0652,-2.0529,-1.9888,-1.9381,-1.8874,-1.6983,-1.5205,-1.3932,-1.4348,-1.374,-1.2736,-1.2472,-1.248,-1.2344,-1.2223,-1.1831,-1.1453,-1.1703,-1.1324,-1.0938,-1.1317,-1.1189,-1.0938,-1.1067,-1.1189,-1.106,-1.0674,-0.9507,-0.8338,-0.7431,-0.6132,-0.4967,-0.4318,-0.4579,-0.4312,-0.2742,-0.2213,-0.117,0.1432,0.5738,0.8489,0.8338,0.9243,1.0403,1.1801,1.3197,1.4719,1.6524,1.8253,1.9121,1.9121,2.1076,2.2293,2.2386,2.2777,2.3514,2.4471,2.4979,2.591,2.728,2.8126,2.9063,-2.0264,-2.239,-2.5588,-2.8842,-3.1663,-3.3834,-3.4587,-3.4721,-3.489,-3.5737,-3.6112,-3.6473,-3.6765,-3.6453,-3.6222,-3.6178,-3.5387,-3.4861,-3.5096,-3.4244,-3.3672,-3.3696,-3.3589,-3.254,-2.9756,-3.0175,-3.0143,-2.9143,-2.927,-2.7983,-2.4742,-2.449,-2.4466,-2.4533,-2.4533,-2.5367,-2.7233,-2.7233,-2.8144,-2.9955,-2.9955,-2.9955,-2.9842,-2.7414,-2.638,-2.6028,-2.2926,-2.1619,-2.1497,-2.0898,-2.0652,-2.0652,-2.0652,-2.0011,-1.9121,-1.9121,-1.8004,-1.6252,-1.4249,-1.3502,-1.3375,-1.2736,-1.248,-1.2344,-1.1831,-1.1574,-1.1453,-1.081,-1.1067,-1.1453,-1.1453,-1.1453,-1.1703,-1.2351,-1.248,-1.2216,-1.1175,-1.0918,-1.0139,-0.7421,-0.6907,-0.6392,-0.4706,-0.5228,-0.5876,-0.5876,-0.614,-0.5352,-0.2997,0.3258,0.771,0.8208,0.9243,1.0017,1.0789,1.2687,1.4222,1.4892,1.6524,1.7527,1.7402,1.9121,2.0683,2.2251,2.2386,2.3259,2.5011,2.5572,2.6145,2.6732,2.8392,2.9424,-2.6559,-2.5182,-2.4116,-2.762,-2.904,-2.9707,-3.0103,-2.9356,-2.9729,-3.4194,-3.6092,-3.7141,-3.7629,-3.7641,-3.7338,-3.6486,-3.6068,-3.5712,-3.4991,-3.4192,-3.4041,-3.5016,-3.432,-3.3565,-3.3331,-3.302,-3.2393,-3.1553,-2.9974,-2.8514,-2.7176,-2.5462,-2.4805,-2.5453,-2.5453,-2.6044,-2.7233,-2.7913,-2.8834,-2.9955,-2.9955,-2.9955,-2.9955,-2.9255,-2.7993,-2.6129,-2.4098,-2.2685,-2.1497,-2.1375,-2.1007,-2.0652,-2.0652,-2.0393,-2.0147,-1.9369,-1.8253,-1.7015,-1.5758,-1.4747,-1.4376,-1.4874,-1.4493,-1.4122,-1.462,-1.3867,-1.2864,-1.2608,-1.2344,-1.2223,-1.2223,-1.2223,-1.2216,-1.2344,-1.248,-1.2351,-1.2087,-1.1439,-1.0661,-0.9882,-0.872,-0.7815,-0.7297,-0.7042,-0.6916,-0.6916,-0.744,-0.6392,-0.2735,0.1434,0.4703,0.6656,0.7046,0.782,0.9225,1.1025,1.2815,1.4222,1.6262,1.7277,1.6796,1.8874,2.0574,2.1659,2.2868,2.4456,2.6531,2.6279,2.6965,2.8508,2.849,2.8949,-2.3744,-2.2053,-2.1004,-2.4262,-2.5014,-2.5296,-2.6919,-2.5347,-2.5647,-3.2743,-3.567,-3.7028,-3.6806,-3.7317,-3.7727,-3.7143,-3.6301,-3.5804,-3.5781,-3.4579,-3.3932,-3.4732,-3.4991,-3.5032,-3.4985,-3.4192,-3.3411,-3.3029,-3.1119,-2.9634,-2.8592,-2.6743,-2.5713,-2.5962,-2.5893,-2.6497,-2.7797,-2.7913,-2.8605,-2.9955,-2.9955,-2.9955,-2.9955,-2.9955,-2.8912,-2.7065,-2.5168,-2.3619,-2.2564,-2.1863,-2.113,-2.0652,-2.0652,-2.0652,-2.0529,-1.9381,-1.8253,-1.7015,-1.6252,-1.5127,-1.4249,-1.5127,-1.4747,-1.4249,-1.4756,-1.4258,-1.3375,-1.3119,-1.2991,-1.2864,-1.2864,-1.2864,-1.2983,-1.3239,-1.3358,-1.3358,-1.3358,-1.2839,-1.2192,-1.1424,-1.0268,-0.9237,-0.8462,-0.8208,-0.8084,-0.8084,-0.8224,-0.6912,-0.2735,0.0261,0.3137,0.5887,0.6274,0.6786,0.8069,0.9747,1.1545,1.3197,1.5243,1.6408,1.6555,1.814,1.9727,2.1294,2.2627,2.4559,2.7233,2.7216,2.7913,2.91,2.9501,3.0162,-1.612,-1.6388,-1.8083,-2.0121,-2.0315,-2.089,0.0,-2.203,-2.2077,-3.0391,-3.4515,-3.62,-3.4858,-3.5922,-3.7313,-3.7777,-3.6473,-3.5819,-3.6976,-3.5224,-3.398,-3.409,-3.565,-3.6283,-3.5348,-3.4317,-3.3675,-3.3579,-3.2463,-3.108,-2.9275,-2.7894,-2.6957,-2.6463,-2.6079,-2.6715,-2.8586,-2.7797,-2.8259,-2.9955,-2.9955,-2.9955,-2.9955,-2.9955,-2.9501,-2.8586,-2.6347,-2.4931,-2.4098,-2.2457,-2.1266,-2.0652,-2.0652,-2.0652,-2.0529,-1.9257,-1.7879,-1.6503,-1.6,-1.4756,-1.363,-1.4503,-1.4249,-1.3621,-1.363,-1.363,-1.3502,-1.2983,-1.3111,-1.363,-1.363,-1.363,-1.3749,-1.4376,-1.462,-1.462,-1.462,-1.4493,-1.3986,-1.2328,-1.1431,-1.0532,-0.8979,-0.8984,-0.899,-0.8861,-0.8354,-0.6786,-0.2867,-0.0391,0.2221,0.5238,0.6017,0.653,0.7176,0.8984,1.0782,1.2177,1.4113,1.5662,1.6545,1.7288,1.8874,2.1415,2.2023,2.3948,2.7116,2.8126,2.8834,2.9215,3.0948,3.2059,0.0,0.0,0.0,0.0,0.0,0.0,0.0,-1.6949,-1.8288,-2.3839,-2.9424,-3.3297,-3.2934,-3.3441,-3.4604,-3.6821,-3.7392,-3.7514,-3.7411,-3.6361,-3.589,-3.6634,-3.5897,-3.5387,-3.5891,-3.5086,-3.4127,-3.2952,-3.2484,-3.1797,-3.0763,-2.8501,-2.7435,-2.7789,-2.6729,-2.6996,-2.8586,-2.8374,-2.8834,-2.9955,-2.9955,-2.9955,-2.9955,-2.9955,-2.9842,-2.9615,-2.8338,-2.7431,-2.6397,-2.3544,-2.1619,-2.0652,-2.0652,-2.0652,-2.0406,-1.8525,-1.7641,-1.7015,-1.5379,-1.463,-1.4503,-1.5379,-1.5127,-1.4503,-1.5253,-1.4874,-1.4503,-1.5127,-1.4874,-1.4493,-1.5253,-1.4874,-1.4376,-1.4503,-1.462,-1.462,-1.462,-1.4122,-1.3494,-1.3239,-1.2216,-1.1189,-1.0925,-1.0545,-0.9642,-0.7954,-0.7051,-0.601,-0.4051,-0.1045,0.1176,0.183,0.444,0.627,0.64,0.936,1.1289,1.1666,1.4981,1.7037,1.7288,1.7891,1.9468,2.2144,2.2251,2.3709,2.638,2.7859,2.8894,2.9501,3.104,3.2369,0.0,0.0,0.0,0.0,0.0,0.0,0.0,0.0,0.0,0.0,0.0,-3.0348,-2.8122,0.0,-3.1321,-3.3763,-3.6179,-3.7577,-3.7195,-3.6229,-3.6074,-3.7379,-3.6017,-3.5125,-3.5598,-3.4808,-3.3933,-3.3238,-3.2705,-3.2303,-3.1797,-2.9785,-2.8688,-2.899,-2.7488,-2.7505,-2.9273,-2.8683,-2.8912,-2.9955,-2.9955,-3.0068,-3.0407,-3.0068,-3.0068,-3.0407,-2.9615,-2.849,-2.7099,-2.52,-2.3062,-2.1143,-2.1143,-2.0898,-2.0529,-1.9406,-1.8151,-1.689,-1.5874,-1.4874,-1.4131,-1.4503,-1.463,-1.462,-1.5127,-1.462,-1.4131,-1.4503,-1.4122,-1.374,-1.4503,-1.4122,-1.374,-1.4367,-1.3995,-1.3613,-1.3876,-1.3494,-1.2991,-1.2991,-1.2087,-1.1446,-1.1446,-1.0545,-0.8996,-0.6916,-0.6266,-0.5619,-0.4448,-0.2746,-0.1028,0.0615,0.2937,0.4897,0.5999,0.7688,0.9314,1.062,1.4475,1.689,1.7527,1.8886,2.0587,2.2265,2.3469,2.5153,2.7198,2.9218,3.0236,3.0519,3.2499,3.3804,0.0,0.0,0.0,0.0,0.0,0.0,0.0,0.0,0.0,0.0,0.0,0.0,0.0,0.0,0.0,-3.0058,-3.3949,-3.6559,-3.6473,-3.5297,-3.503,-3.6665,-3.5672,-3.4953,-3.5091,-3.4339,-3.3868,-3.3673,-3.2795,-3.2303,-3.2455,-3.0822,-2.9955,-2.9955,-2.8159,-2.8044,-2.9955,-2.899,-2.899,-2.9955,-2.9955,0.0,-3.0856,-3.0181,-3.0294,-3.0856,-3.0181,-2.893,-2.7116,-2.6497,-2.459,-2.1985,-2.1863,-2.1252,-2.0529,-2.0393,-1.8762,-1.6503,-1.6252,-1.4874,-1.3247,-1.3375,-1.3876,-1.4376,-1.4503,-1.3995,0.0,-1.3621,-1.3111,-1.26,-1.3366,-1.2983,-1.2728,-1.3867,-1.323,-1.2608,-1.3119,-1.2736,-1.2223,-1.2223,-1.1703,-1.1189,-1.106,-0.9507,-0.7651,-0.5877,-0.5559,-0.5198,-0.435,-0.4277,-0.2927,0.0473,0.2347,0.411,0.5869,0.597,0.7194,1.0088,1.3178,1.5604,1.6961,1.9245,2.0894,2.1894,2.401,2.6041,2.8028,3.048,3.1596,3.1374,3.2358,3.3328,0.0,0.0,0.0,0.0,0.0,0.0,0.0,0.0,0.0,0.0,0.0,0.0,0.0,0.0,0.0,0.0,-3.0763,-3.4423,-3.5545,-3.3745,-3.277,-3.4118,-3.4184,-3.4363,-3.4812,-3.4962,-3.4664,-3.3695,-3.2471,-3.1979,-3.2434,-3.0822,0.0,0.0,0.0,-2.8044,-2.9955,-2.9842,-2.9842,-2.9955,-2.9955,-3.0294,-3.0856,-3.0181,-3.0294,-3.0856,-3.0181,-2.893,-2.7116,-2.6497,-2.5082,-2.3212,-2.2713,-2.1741,-2.0516,-1.9628,-1.8128,-1.6377,-1.5486,0.0,0.0,-1.3247,-1.3502,-1.363,-1.4376,-1.3995,-1.3621,-1.4484,-1.3604,-1.2728,-1.3714,-1.3222,-1.2472,-1.26,-1.26,-1.248,-1.248,-1.2087,-1.1582,-1.1582,-1.106,-1.0294,-0.9384,-0.7565,-0.5727,-0.4588,-0.4483,-0.4457,-0.4242,-0.4246,-0.2995,0.0516,0.3609,0.0,0.6183,0.5848,0.7267,1.1083,1.1272,1.2532,1.526,1.7255,1.8922,2.0229,2.1548,2.3878,2.7349,3.0255,3.1707,3.1526,2.6397,2.6504,0.0,0.0,0.0,0.0,0.0,0.0,0.0,0.0,0.0,0.0,0.0,0.0,0.0,0.0,0.0,0.0,-2.6526,-2.8604,-2.869,-2.9359,-3.0371,-3.1832,-3.202,-3.2389,-3.3393,-3.3976,-3.4148,-3.3716,-3.2451,-3.1677,-3.1677,-3.0538,-2.9955,-2.9955,-2.918,-2.918,-2.9955,-2.9955,-2.9955,-2.9955,-2.9955,-3.0856,-3.2451,-3.1434,-3.1211,-3.1677,-2.9728,-2.8472,-2.7681,-2.6497,-2.4963,-2.3212,0.0,0.0,0.0,0.0,-1.8501,-1.6367,-1.4845,-1.3723,-1.2864,-1.248,-1.2736,-1.3502,-1.3749,-1.3366,-1.2983,-1.3358,-1.2464,-1.1446,-1.2328,-1.1431,-1.0539,-1.131,-1.0925,-1.041,-1.0146,-1.0539,-1.0674,-1.0159,-0.9771,0.0,-0.757,-0.7046,-0.6191,-0.4486,-0.4472,-0.4518,-0.4362,-0.3583,-0.1795,0.1583,0.3149,0.4485,0.5822,0.5902,0.0,0.0,0.0,1.2975,1.6875,1.7788,0.0,0.0,0.0,2.3276,2.4823,2.5068,0.0,0.0,2.5398,2.5571,0.0,0.0,0.0,0.0,0.0,0.0,0.0,0.0,0.0,0.0,0.0,0.0,0.0,0.0,0.0,0.0,-2.2193,-2.3445,-2.1865,-2.3975,-2.6216,-2.7554,-2.9282,-3.0222,-2.9961,-3.2174,-3.3301,-3.2511,-3.1556,-3.1099,-3.1099,-3.0407,-2.9955,-2.9955,-2.9955,-2.9955,-2.9955,-2.9955,-2.9955,-2.9955,-2.9955,-3.1191,-3.3586,-3.1878,-3.1565,-3.214,-3.0068,-2.8356,-2.7082,-2.5926,-2.4757,-2.3453,-2.2835,-2.1741,-2.0652,-2.0652,-1.9393,-1.7255,-1.4466,-1.3094,-1.2472,-1.1831,-1.2216,-1.2991,-1.3247,-1.2991,-1.248,-1.248,-1.1446,-1.0416,-1.0674,-0.9636,-0.8731,-0.9759,-0.9243,-0.8473,-0.8208,-0.8861,-0.9513,-0.8866,-0.7815,-0.6773,-0.5872,-0.6396,-0.6477,-0.4566,-0.4763,-0.4791,-0.3802,-0.2836,-0.1403,0.0478,0.2373,0.3922,0.4995,0.5417,0.7184,1.0842,1.1208,1.3253,1.7596,1.76,1.9048,2.2152,2.2531,2.2632,0.0,0.0,0.0,0.0,0.0,0.0,0.0,0.0,0.0,0.0,0.0,0.0,0.0,0.0,0.0,0.0,0.0,0.0,0.0,0.0,0.0,0.0,0.0,0.0,-1.6924,-1.7794,-1.9159,-2.0266,-2.6015,-2.8211,-2.3871,-2.9612,-3.2443,-2.9552,-2.9463,-3.005,-3.0981,-3.0315,-2.9955,-2.9955,-2.9955,-2.9955,-2.9955,-2.9955,-2.9955,-2.9955,-2.9955,-3.1191,-3.3586,-3.108,-3.0631,-3.1677,-3.1565,-2.8912,-2.4653,-2.4533,-2.4533,-2.4294,-2.3091,-2.1741,-2.0652,-2.0652,-2.0529,-1.9764,-1.4367,-1.1703,-1.0674,-1.156,-1.1695,-1.1703,-1.2991,-1.2991,-1.248,-1.248,-1.1182,-0.9759,-0.9119,-0.8214,-0.7436,-0.7436,-0.7436,-0.7436,-0.7436,-0.7436,-0.7695,-0.8229,-0.5082,-0.2737,-0.4044,-0.5352,-0.5846,-0.4439,-0.5207,0.0,-0.2561,-0.2112,-0.2612,-0.3911,0.2083,0.5348,0.3386,0.4455,0.656,0.9819,1.0473,1.226,1.5929,1.5583,1.5834,1.714,2.0011,2.151,2.1676,0.0,0.0,0.0,0.0,0.0,0.0,0.0,0.0,0.0,0.0,0.0,0.0,0.0,0.0,0.0,0.0,0.0,0.0,0.0,0.0,0.0,0.0,0.0,0.0,-1.5343,-1.7647,-1.7946,-1.7615,-1.8374,-2.0701,-2.6032,-2.6614,-2.0168,-2.4744,-2.8642,-3.0237,-2.9295,-2.9122,-2.9955,-2.9955,-2.9955,-2.9955,-2.9955,-2.8683,-2.6263,-2.6263,-2.8894,-3.3586,-3.278,-3.2561,-3.2801,-2.8665,-2.6028,-2.4533,-2.4533,-2.4533,-2.4414,-2.4054,-2.3559,-2.3197,-2.3197,-2.2107,-2.0024,-1.537,-1.2336,-1.0377,-0.9606,-1.0275,-1.1251,-1.0845,-1.093,-1.111,-1.0689,-0.9738,-0.8768,-0.8043,-0.7176,-0.6396,-0.6396,-0.6396,-0.6136,-0.5485,-0.6002,-0.6648,-0.6921,-0.3486,-0.1307,-0.3853,-0.497,-0.5298,-0.441,-0.4518,-0.4521,-0.3649,-0.3604,-0.3014,-0.1571,0.0655,0.288,0.4974,0.5564,0.7278,1.0667,1.0923,1.2981,1.749,1.7501,1.8122,1.9854,2.1412,2.0407,1.6909,0.0,0.0,0.0,0.0,0.0,0.0,0.0,0.0,0.0,0.0,0.0,0.0,0.0,0.0,0.0,0.0,0.0,0.0,0.0,0.0,0.0,0.0,0.0,0.0,0.0,0.0,-1.57,-1.3494,0.0,-1.6759,-1.9958,-1.9491,-1.4173,-1.9976,-2.531,-2.8815,-2.7847,-2.7717,-2.881,-2.8049,-2.8325,-2.9955,-2.9955,-2.8108,-2.4533,-2.4533,-2.7298,-3.2341,-3.2341,-3.2341,-3.1989,-2.6715,-2.4533,-2.4533,-2.5926,-2.6397,-2.6163,-2.3903,-2.2511,-2.1832,-2.1832,-2.1351,-2.0024,-1.6,-1.3003,-1.0794,-0.9493,-0.9174,-0.9284,-0.8697,-0.8481,-0.8373,-0.8387,-0.7229,-0.6024,-0.6113,-0.5701,-0.5329,-0.5329,-0.5329,-0.5079,-0.4446,-0.4362,-0.3943,-0.2395,-0.0846,-0.0343,-0.2381,-0.4132,-0.4728,-0.3087,-0.3151,-0.3362,-0.3511,-0.3011,-0.2095,-0.0262,-0.0,0.144,0.4846,0.5107,0.6539,0.9919,1.0694,1.276,1.6502,1.7766,1.8576,1.8902,1.9818,1.8389,0.0,0.0,0.0,0.0,0.0,0.0,0.0,0.0,0.0,0.0,0.0,0.0,0.0,0.0,0.0,0.0,0.0,0.0,0.0,0.0,0.0,0.0,0.0,0.0,0.0,0.0,0.0,-1.3323,-1.3368,0.0,0.0,0.0,0.0,-1.1472,-1.5325,-2.0294,-2.6262,-2.5649,-2.5524,-2.6272,-2.4281,-2.5349,-2.9936,-2.9955,-2.8241,-2.4772,-2.4772,-2.6615,-3.0068,-2.9842,-2.9615,-2.9501,-2.6145,-2.4772,-2.4979,-2.8044,-2.9239,-2.8661,-2.2467,-1.8709,-1.6694,-1.6595,-1.8192,-1.9846,-1.5878,-1.3382,-1.1713,-1.0714,-0.8265,-0.586,-0.6963,-0.5997,0.0,0.0,-0.3851,-0.1865,-0.3231,-0.3806,-0.3944,-0.3963,-0.3965,-0.3965,-0.4085,-0.2287,0.0444,0.4471,0.2486,0.0229,0.0103,0.0,-0.3811,-0.0848,-0.0966,-0.1472,-0.1915,-0.0781,-0.0,-0.0,-0.0,0.0786,0.2746,0.3137,0.444,0.7306,0.9648,1.1582,1.3214,1.6595,1.7252,1.4715,1.5583,0.0,0.0,0.0,0.0,0.0,0.0,0.0,0.0,0.0,0.0,0.0,0.0,0.0,0.0,0.0,0.0,0.0,0.0,0.0,0.0,0.0,0.0,0.0,0.0,0.0,0.0,-0.841,-0.9543,-1.0482,-1.0668,-0.9978,0.0,0.0,0.0,0.0,0.0,0.0,-1.7977,-1.8224,-1.8621,-1.9423,-1.9258,-2.2635,-2.9917,-2.9955,-2.9501,-2.8568,-2.8568,-2.9936,-3.2561,-2.7975,-2.5926,-2.6044,-2.7779,-2.8568,-2.8159,-2.2685,-2.0381,-2.004,-1.6055,-1.3339,-1.1578,-1.0017,-1.3089,-1.7444,-1.3931,-1.1345,-0.9591,-0.9249,-0.6866,-0.4595,-0.7456,0.0,0.0,0.0,0.0,-0.0686,0.0102,0.0213,0.0109,-0.0,-0.0119,-0.0239,-0.0718,0.0472,0.2154,0.4171,0.3992,0.2837,0.0905,0.0985,0.0,0.0294,0.0635,0.0856,0.0795,0.0372,-0.0,-0.0,-0.0,0.0262,0.0784,0.3662,0.5757,0.653,0.7171,0.8626,1.1179,1.4975,1.684,1.6433,0.0,0.0,0.0,0.0,0.0,0.0,0.0,0.0,0.0,0.0,0.0,0.0,0.0,0.0,0.0,0.0,0.0,0.0,0.0,0.0,0.0,0.0,0.0,0.0,0.0,0.0,0.0,-0.7434,-0.8874,-0.9909,-0.9324,-0.8486,0.0,0.0,0.0,0.0,0.0,0.0,0.0,0.0,0.0,-1.1384,-1.382,-1.8525,-2.5702,-2.5737,-2.5737,-2.5755,-2.7015,-2.7602,-2.7734,-2.424,-2.3401,-2.4653,-2.6615,-2.6874,-2.5507,-2.2029,-1.7997,-1.3787,0.0,0.0,0.0,0.0,-1.0675,-1.354,-0.9637,-0.8493,-0.8783,-0.8783,0.0,0.0,0.0,0.0,0.0,0.0,0.0,0.41,0.3778,0.5187,0.6594,0.6428,0.5606,0.4583,0.3556,0.3701,0.4359,0.4921,0.4299,0.3334,0.2174,0.2697,0.0,0.0,0.0,0.2873,0.3869,0.1686,-0.0,-0.0,-0.0,0.0393,0.1307,0.4318,0.6125,0.6031,0.6143,0.6803,0.8136,1.2794,1.4449,0.0,0.0,0.0,0.0,0.0,0.0,0.0,0.0,0.0,0.0,0.0,0.0,0.0,0.0,0.0,0.0,0.0,0.0,0.0,0.0,0.0,0.0,0.0,0.0,0.0,0.0,0.0,0.0,0.0,-0.8939,-1.0157,0.0,0.0,0.0,0.0,0.0,0.0,0.0,0.0,0.0,0.0,0.0,0.0,0.0,-1.3028,-1.8119,-1.8149,-1.8973,-2.0468,-2.2857,-2.2749,-2.0452,-2.0452,-2.1063,-2.222,-2.2705,0.0,-2.0557,-2.221,0.0,0.0,0.0,0.0,0.0,0.0,0.0,0.0,0.0,0.0,0.0,0.0,0.0,0.0,0.0,0.0,0.0,0.0,0.0,0.0,0.0,0.0,1.227,1.2155,1.0811,0.9064,0.7339,0.6557,0.6124,0.5859,0.418,0.2864,0.0,0.0,0.0,0.0,0.0,0.0,0.6072,0.3043,0.0507,-0.0,-0.0,0.0917,0.327,0.5218,0.6187,0.6016,0.6011,0.5978,0.5759,1.0332,0.0,0.0,0.0,0.0,0.0,0.0,0.0,0.0,0.0,0.0,0.0,0.0,0.0,0.0,0.0,0.0,0.0,0.0,0.0,0.0,0.0,0.0,0.0,0.0,0.0,0.0,0.0,0.0,0.0,0.0,0.0,0.0,0.0,0.0,0.0,0.0,0.0,0.0,0.0,0.0,0.0,0.0,0.0,0.0,0.0,0.0,0.0,0.0,0.0,0.0,-2.0933,-2.0918,-2.0452,-2.0452,-1.6592,-1.0057,-1.2998,-1.6575,-1.9925,-1.3795,0.0,0.0,0.0,0.0,0.0,0.0,0.0,0.0,0.0,0.0,0.0,0.0,0.0,0.0,0.0,0.0,0.0,0.0,0.0,0.0,0.0,0.0,0.9091,0.8329,0.8815,0.89,0.7233,0.0,0.0,0.0,0.0,0.0,0.0,0.0,0.0,0.0,0.0,0.0,0.3987,0.4256,0.3267,0.0253,-0.0,0.1571,0.5372,0.6027,0.6437,0.7019,0.5997,0.6195,0.0,0.0,0.0,0.0,0.0,0.0,0.0,0.0,0.0,0.0,0.0,0.0,0.0,0.0,0.0,0.0,0.0,0.0,0.0,0.0,0.0,0.0,0.0,0.0,0.0,0.0,0.0,0.0,0.0,0.0,0.0,0.0,0.0,0.0,0.0,0.0,0.0,0.0,0.0,0.0,0.0,0.0,0.0,0.0,0.0,0.0,0.0,0.0,0.0,0.0,0.0,0.0,0.0,0.0,0.0,0.0,0.0,0.0,-0.814,-1.0296,0.0,0.0,0.0,0.0,0.0,0.0,0.0,0.0,0.0,0.0,0.0,0.0,0.0,0.0,0.0,0.0,0.0,0.0,0.0,0.0,0.0,0.0,0.0,0.0,0.0,0.0,0.0,0.0,0.0,0.0,0.0,0.0,0.0,0.0,0.0,0.0,0.0,0.0,0.0,0.0,0.4722,0.5068,0.3949,0.0376,-0.0,0.1692,0.5903,0.5185,0.5093,0.6144,0.5357,0.0,0.0,0.0,0.0,0.0,0.0,0.0,0.0,0.0,0.0,0.0,0.0,0.0,0.0,0.0,0.0,0.0,0.0,0.0,0.0,0.0,0.0,0.0,0.0,0.0,0.0,0.0,0.0,0.0,0.0,0.0,0.0,0.0,0.0,0.0,0.0,0.0,0.0,0.0,0.0,0.0,0.0,0.0,0.0,0.0,0.0,0.0,0.0,0.0,0.0,0.0,0.0,0.0,0.0,0.0,0.0,0.0,0.0,0.0,-0.4693,-0.4606,0.0,0.0,0.0,0.0,0.0,0.0,0.0,0.0,0.0,0.0,0.0,0.0,0.0,0.0,0.0,0.0,0.0,0.0,0.0,0.0,0.0,0.0,0.0,0.0,0.0,0.0,0.0,0.0,0.0,0.0,0.0,0.0,0.0,0.0,0.0,0.0,0.0,0.0,0.0,0.0,0.5516,0.4732,0.3009,0.0248,-0.0,0.1286,0.4647,0.3737,0.3613,0.5252,0.4723,0.0,0.0,0.0,0.0,0.0,0.0,0.0,0.0,0.0,0.0,0.0,0.0,0.0,0.0,0.0,0.0,0.0,0.0,0.0,0.0,0.0,0.0,0.0,0.0,0.0,0.0,0.0,0.0,0.0,0.0,0.0,0.0,0.0,0.0,0.0,0.0,0.0,0.0,0.0,0.0,0.0,0.0,0.0,0.0,0.0,0.0,0.0,0.0,0.0,0.0,0.0,0.0,0.0,0.0,0.0,0.0,0.0,0.0,0.0,0.0,0.0,0.0,0.0,0.0,0.0,0.0,0.0,0.0,0.0,0.0,0.0,0.0,0.0,0.0,0.0,0.0,0.0,0.0,0.0,0.0,0.0,0.0,0.0,0.0,0.0,0.0,0.0,0.0,0.0,0.0,0.0,0.0,0.0,0.0,0.0,0.0,0.0,0.0,0.0,0.0,0.0,0.4449,0.2175,0.0349,-0.0,-0.0,0.0126,0.0501,0.1831,0.3644,0.6144,0.0,0.0,0.0,0.0,0.0,0.0,0.0,0.0,0.0,0.0,0.0,0.0,0.0,0.0,0.0,0.0,0.0,0.0,0.0,0.0,0.0,0.0,0.0,0.0,0.0,0.0,0.0,0.0,0.0,0.0,0.0,0.0,0.0,0.0,0.0,0.0,0.0,0.0,0.0,0.0,0.0,0.0,0.0,0.0,0.0,0.0,0.0,0.0,0.0,0.0,0.0,0.0,0.0,0.0,0.0,0.0,0.0,0.0,0.0,0.0,0.0,0.0,0.0,0.0,0.0,0.0,0.0,0.0,0.0,0.0,0.0,0.0,0.0,0.0,0.0,0.0,0.0,0.0,0.0,0.0,0.0,0.0,0.0,0.0,0.0,0.0,0.0,0.0,0.0,0.0,0.0,0.0,0.0,0.0,0.0,0.0,0.0,0.0,0.0,0.0,0.0,0.0,0.2839,0.118,-0.0,-0.0,-0.0,-0.0,-0.0,0.2612,0.4416,0.5093,0.0,0.0,0.0,0.0,0.0,0.0,0.0,0.0,0.0,0.0,0.0,0.0,0.0,0.0,0.0,0.0,0.0,0.0,0.0,0.0,0.0,0.0,0.0,0.0,0.0,0.0,0.0,0.0,0.0,0.0,0.0,0.0,0.0,0.0,0.0,0.0,0.0,0.0,0.0,0.0,0.0,0.0,0.0,0.0,0.0,0.0,0.0,0.0,0.0,0.0,0.0,0.0,0.0,0.0,0.0,0.0,0.0,0.0,0.0,0.0,0.0,0.0,0.0,0.0,0.0,0.0,0.0,0.0,0.0,0.0,0.0,0.0,0.0,0.0,0.0,0.0,0.0,0.0,0.0,0.0,0.0,0.0,0.0,0.0,0.0,0.0,0.0,0.0,0.0,0.0,0.0,0.0,0.0,0.0,0.0,0.0,0.0,0.0,0.0,0.0,0.0,0.0,0.1869,0.1657,0.1143,0.0118,-0.0,0.0474,0.1421,0.3834,0.4984,0.4286,0.0,0.0,0.0,0.0,0.0,0.0,0.0,0.0,0.0,0.0,0.0,0.0,0.0,0.0,0.0,0.0,0.0,0.0,0.0,0.0,0.0,0.0,0.0,0.0,0.0,0.0,0.0,0.0,0.0,0.0,0.0,0.0,0.0,0.0,0.0,0.0,0.0,0.0,0.0,0.0,0.0,0.0,0.0,0.0,0.0,0.0,0.0,0.0,0.0,0.0,0.0,0.0,0.0,0.0,0.0,0.0,0.0,0.0,0.0,0.0,0.0,0.0,0.0,0.0,0.0,0.0,0.0,0.0,0.0,0.0,0.0,0.0,0.0,0.0,0.0,0.0,0.0,0.0,0.0,0.0,0.0,0.0,0.0,0.0,0.0,0.0,0.0,0.0,0.0,0.0,0.0,0.0,0.0,0.0,0.0,0.0,0.0,0.0,0.0,0.0,0.0,0.0,0.1877,0.3726,0.3875,0.0342,-0.0,0.1374,0.494,0.5173,0.4881,0.0,0.0,0.0,0.0,0.0,0.0,0.0,0.0,0.0,0.0,0.0,0.0,0.0,0.0,0.0,0.0,0.0,0.0,0.0,0.0,0.0,0.0,0.0,0.0,0.0,0.0,0.0,0.0,0.0,0.0,0.0,0.0,0.0,0.0,0.0,0.0,0.0,0.0,0.0,0.0,0.0,0.0,0.0,0.0,0.0,0.0,0.0,0.0,0.0,0.0,0.0,0.0,0.0,0.0,0.0,0.0,0.0,0.0,0.0,0.0,0.0,0.0,0.0,0.0,0.0,0.0,0.0,0.0,0.0,0.0,0.0,0.0,0.0,0.0,0.0,0.0,0.0,0.0,0.0,0.0,0.0,0.0,0.0,0.0,0.0,0.0,0.0,0.0,0.0,0.0,0.0,0.0,0.0,0.0,0.0,0.0,0.0,0.0,0.0,0.0,0.0,0.0,0.0,0.3268,0.3734,0.3886,0.3631,0.146,0.0447,0.16,0.1683,0.222,0.3583,0.0,0.0,0.0,0.0,0.0,0.0,0.0,0.0,0.0,0.0,0.0,0.0,0.0,0.0,0.0,0.0,0.0,0.0,0.0,0.0,0.0,0.0,0.0,0.0,0.0,0.0,0.0,0.0,0.0,0.0,0.0,0.0,0.0,0.0,0.0,0.0,0.0,0.0,0.0,0.0,0.0,0.0,0.0,0.0,0.0,0.0,0.0,0.0,0.0,0.0,0.0,0.0,0.0,0.0,0.0,0.0,0.0,0.0,0.0,0.0,0.0,0.0,0.0,0.0,0.0,0.0,0.0,0.0,0.0,0.0,0.0,0.0,0.0,0.0,0.0,0.0,0.0,0.0,0.0,0.0,0.0,0.0,0.0,0.0,0.0,0.0,0.0,0.0,0.0,0.0,0.0,0.0,0.0,0.0,0.0,0.0,0.0,0.0,0.0,0.0,0.0,0.0,0.0,0.4298,0.3892,0.3347,0.1325,-0.0,-0.0,-0.0,0.0598,0.2096,0.0,0.0,0.0,0.0,0.0,0.0,0.0,0.0,0.0,0.0,0.0,0.0,0.0,0.0,0.0,0.0,0.0,0.0,0.0,0.0,0.0,0.0,0.0,0.0,0.0,0.0,0.0,0.0,0.0,0.0,0.0,0.0,0.0,0.0,0.0,0.0,0.0,0.0,0.0,0.0,0.0,0.0,0.0,0.0,0.0,0.0,0.0,0.0,0.0,0.0,0.0,0.0,0.0,0.0,0.0,0.0,0.0,0.0,0.0,0.0,0.0,0.0,0.0,0.0,0.0,0.0,0.0,0.0,0.0,0.0,0.0,0.0,0.0,0.0,0.0,0.0,0.0,0.0,0.0,0.0,0.0,0.0,0.0,0.0,0.0,0.0,0.0,0.0,0.0,0.0,0.0,0.0,0.0,0.0,0.0,0.0,0.0,0.0,0.0,0.0,0.0,0.0,0.0,0.5401,0.3995,0.0435,-0.0,-0.0,-0.0,-0.0109,-0.0199,-0.0232,-0.0417,0.0,0.0,0.0,0.0,0.0,0.0,0.0,0.0,0.0,0.0,0.0,0.0,0.0,0.0,0.0,0.0,0.0,0.0,0.0,0.0,0.0,0.0,0.0,0.0,0.0,0.0,0.0,0.0,0.0,0.0,0.0,0.0,0.0,0.0,0.0,0.0,0.0,0.0,0.0,0.0,0.0,0.0,0.0,0.0,0.0,0.0,0.0,0.0,0.0,0.0,0.0,0.0,0.0,0.0,0.0,0.0,0.0,0.0,0.0,0.0,0.0,0.0,0.0,0.0,0.0,0.0,0.0,0.0,0.0,0.0,0.0,0.0,0.0,0.0,0.0,0.0,0.0,0.0,0.0,0.0,0.0,0.0,0.0,0.0,0.0,0.0,0.0,0.0,0.0,0.0,0.0,0.0,0.0,0.0,0.0,0.0,0.0,0.0,0.0,0.0,0.0,0.0,0.6525,0.4807,0.0431,-0.0,-0.0,-0.0,-0.1636,-0.2693,-0.2645,-0.1292,0.0,0.0,0.0,0.0,0.0,0.0,0.0,0.0,0.0,0.0,0.0,0.0,0.0,0.0,0.0,0.0,0.0,0.0,0.0,0.0,0.0,0.0,0.0,0.0,0.0,0.0,0.0,0.0,0.0,0.0,0.0,0.0,0.0,0.0,0.0,0.0,0.0,0.0,0.0,0.0,0.0,0.0,0.0,0.0,0.0,0.0,0.0,0.0,0.0,0.0,0.0,0.0,0.0,0.0,0.0,0.0,0.0,0.0,0.0,0.0,0.0,0.0,0.0,0.0,0.0,0.0,0.0,0.0,0.0,0.0,0.0,0.0,0.0,0.0,0.0,0.0,0.0,0.0,0.0,0.0,0.0,0.0,0.0,0.0,0.0,0.0,0.0,0.0,0.0,0.0,0.0,0.0,0.0,0.0,0.0,0.0,0.0,0.0,0.0,0.0,0.0,0.0,0.652,0.5386,0.0534,-0.0981,-0.1636,-0.1636,-0.2728,-0.3496,-0.3509,-0.0945,0.0,0.0,0.0,0.0,0.0,0.0,0.0,0.0,0.0,0.0,0.0,0.0,0.0,0.0,0.0,0.0,0.0,0.0,0.0,0.0,0.0,0.0,0.0,0.0,0.0,0.0,0.0,0.0,0.0,0.0,0.0,0.0,0.0,0.0,0.0,0.0,0.0,0.0,0.0,0.0,0.0,0.0,0.0,0.0,0.0,0.0,0.0,0.0,0.0,0.0,0.0,0.0,0.0,0.0,0.0,0.0,0.0,0.0,0.0,0.0,0.0,0.0,0.0,0.0,0.0,0.0,0.0,0.0,0.0,0.0,0.0,0.0,0.0,0.0,0.0,0.0,0.0,0.0,0.0,0.0,0.0,0.0,0.0,0.0,0.0,0.0,0.0,0.0,0.0,0.0,0.0,0.0,0.0,0.0,0.0,0.0,0.0,0.0,0.0,0.0,0.0,0.0,0.0,0.5579,0.1337,-0.1721,-0.3493,-0.3493,-0.3477,-0.3475,-0.335,0.0,0.0,0.0,0.0,0.0,0.0,0.0,0.0,0.0,0.0,0.0,0.0,0.0,0.0,0.0,0.0,0.0,0.0,0.0,0.0,0.0,0.0,0.0,0.0,0.0,0.0,0.0,0.0,0.0,0.0,0.0,0.0,0.0,0.0,0.0,0.0,0.0,0.0,0.0,0.0,0.0,0.0,0.0,0.0,0.0,0.0,0.0,0.0,0.0,0.0,0.0,0.0,0.0,0.0,0.0,0.0,0.0,0.0,0.0,0.0,0.0,0.0,0.0,0.0,0.0,0.0,0.0,0.0,0.0,0.0,0.0,0.0,0.0,0.0,0.0,0.0,0.0,0.0,0.0,0.0,0.0,0.0,0.0,0.0,0.0,0.0,0.0,0.0,0.0,0.0,0.0,0.0,0.0,0.0,0.0,0.0,0.0,0.0,0.0,0.0,0.0,0.0,0.0,0.0,0.4819,0.4748,-0.0202,-0.3493,-0.3493,-0.3507,-0.3281,-0.2875,0.0,0.0,0.0,0.0,0.0,0.0,0.0,0.0,0.0,0.0,0.0,0.0,0.0,0.0]}],[{"header":{"parameterUnit":"kt","parameterCategory":2,"dx":1,"dy":1,"la1":29.285339999999998,"la2":30.599998999999997,"lo1":-89.70041500000002,"lo2":-87.6738589999976,"nx":112,"ny":82,"refTime":"2022-09-21T12:00:00:Z","depth":0,"parameterNumber":2,"parameterNumberName":"V-component_of_WINDS"},"data":[-2.4997,-2.6661,-2.6853,-1.8157,-1.6317,-1.5133,-0.9196,-0.6012,-0.4205,-0.3862,-0.2501,-0.079,0.1176,0.2957,0.3922,0.3236,0.4242,0.4888,0.0,0.3497,0.3074,0.3287,0.0,0.0,0.0,0.0,2.284,3.1265,3.2353,3.641,4.5158,4.5417,4.515,4.4706,4.3762,4.2513,4.1074,4.0212,4.0399,4.1719,4.0273,3.9715,3.9816,3.8128,3.7806,3.8671,3.9115,4.0612,4.2916,4.4719,4.5696,4.6096,4.642,4.642,4.5943,4.4197,4.3267,4.2785,4.2896,4.3518,4.4504,4.5444,4.6389,4.7097,4.7375,4.7643,4.7838,4.7611,4.7611,4.7611,4.7578,4.7821,4.8087,4.8225,4.8792,4.9289,4.9398,4.959,4.9699,4.9661,4.9666,4.9598,4.93,4.8794,4.8321,4.7831,4.7654,4.7367,4.6877,4.6875,4.6763,4.642,4.4877,4.2758,3.9971,3.4935,3.0789,2.8017,2.5487,2.2713,1.9626,1.9328,1.8692,1.7646,1.7621,1.7839,1.8329,1.7214,1.6997,1.758,1.5805,1.373,-2.4868,-2.5684,-2.554,-1.6969,-1.5231,-1.3991,-0.759,-0.476,-0.3422,-0.3317,-0.2149,-0.0104,0.3317,0.3989,0.419,0.4711,0.4896,0.5068,0.0,0.3749,0.2632,0.2763,0.6455,0.0,1.7934,1.8176,2.0056,2.5055,3.1395,3.8381,4.5975,4.6045,4.5052,4.34,4.2003,4.059,3.8989,3.7996,3.8365,4.0151,3.9235,3.8838,3.874,3.7133,3.6651,3.7291,3.7633,3.9126,4.1388,4.3612,4.4741,4.5212,4.5894,4.5766,4.4983,4.2908,4.2074,4.1962,4.1898,4.2687,4.3813,4.4809,4.5739,4.6502,4.699,4.7377,4.7614,4.7273,4.7341,4.7512,4.7238,4.7337,4.7552,4.7764,4.8236,4.8736,4.9101,4.9364,4.9574,4.9576,4.9636,4.9621,4.9288,4.8824,4.8406,4.8193,4.794,4.7612,4.699,4.6952,4.6839,4.6451,4.5177,4.3849,4.2436,3.7426,3.2642,2.8627,2.516,2.1967,1.8869,1.8497,1.7545,1.5681,1.5968,1.6034,1.595,1.4944,1.453,1.4807,1.3531,1.1345,-2.4508,-2.1917,-2.0173,-1.3313,-1.1168,-0.9762,-0.6144,-0.4874,-0.4159,-0.3084,-0.1336,0.0336,0.1488,0.2643,0.3635,0.4205,0.4159,0.0,0.0,0.3507,0.1553,0.0864,-0.577,-0.7024,0.1283,0.2128,0.4902,1.155,2.6707,3.8661,4.5556,4.5974,4.4916,4.2573,3.9308,3.7586,3.7575,3.6433,3.6735,3.8465,3.9033,3.8828,3.7963,3.6798,3.6159,3.6036,3.6686,3.7946,3.9588,4.2194,4.3711,4.4461,4.4838,4.4514,4.3571,4.1385,4.0864,4.1083,4.0708,4.1861,4.3552,4.4265,4.5166,4.6096,4.6376,4.6952,4.7341,4.6807,4.7204,4.7581,4.6843,4.6918,4.7127,4.7061,4.7516,4.8125,4.8621,4.9145,4.9526,4.9536,4.9727,4.9731,4.909,4.9022,4.9035,4.9148,4.8635,4.8027,4.7474,4.7502,4.7343,4.6683,4.6054,4.5018,4.3477,4.0775,3.5981,2.8626,2.3703,2.02,1.8132,1.6396,1.5156,1.452,1.4217,1.4043,1.4011,1.2453,1.1302,1.0667,0.9862,0.881,-2.1164,-2.1212,-2.1632,-1.5882,-1.4871,-1.3897,-0.8454,-0.5574,-0.3675,-0.2343,-0.0963,0.0,0.0,0.0,0.2794,0.4572,0.0,-0.3012,0.4248,-0.8158,-1.8549,-1.9956,-1.9172,-1.6626,-1.1843,-0.8353,0.1089,1.9072,2.0251,2.7901,4.5762,4.5308,4.3405,4.0978,3.7456,3.5285,3.4627,3.3392,3.4235,3.6932,3.6402,3.719,3.8965,3.6206,3.5528,3.6429,3.5473,3.6309,3.858,4.0244,4.1716,4.2985,4.3287,4.2599,4.1445,4.0519,4.0068,3.9932,4.0033,4.0646,4.1743,4.3623,4.4586,4.5322,4.6424,4.7062,4.7341,4.6917,4.6732,4.6621,4.642,4.6265,4.6194,4.6538,4.7025,4.7479,4.7626,4.825,4.8742,4.8865,4.9143,4.9399,4.9413,4.9417,4.9329,4.9071,4.8893,4.8376,4.7303,4.719,4.6883,4.6033,4.5554,4.4626,4.3048,4.1581,3.8279,3.2421,2.612,2.1454,1.8636,1.6864,1.5126,1.3335,1.2699,1.1927,1.1108,1.0585,1.0388,1.0312,0.7261,0.5764,-2.0689,-2.0153,-2.0459,-1.5881,-1.525,-1.4246,-0.8289,-0.6272,-0.4849,-0.1938,0.0,0.0,0.0,0.0,0.0,0.0,-1.1282,-1.6723,-0.4633,-1.7028,-2.787,-2.9255,-2.4649,-2.234,-2.479,-2.5826,-1.8092,0.1897,1.0543,2.1013,3.5041,4.0431,4.1282,3.736,3.3649,3.1595,3.1167,3.0711,3.1996,3.5011,3.5451,3.6531,3.8175,3.5783,3.4835,3.5218,3.4602,3.5014,3.6235,3.8462,4.0023,4.1016,4.1016,4.0709,4.0359,3.9937,3.9704,3.9668,3.977,4.0132,4.0865,4.2575,4.388,4.4949,4.5936,4.6615,4.7025,4.6573,4.6455,4.6265,4.5688,4.5381,4.5166,4.5086,4.5384,4.5821,4.6151,4.6906,4.767,4.8173,4.8699,4.9198,4.9515,4.9619,4.9583,4.9431,4.9308,4.8812,4.7757,4.7582,4.7161,4.6166,4.5653,4.477,4.336,4.1934,3.9291,3.4971,2.9605,2.505,2.146,1.7823,1.447,1.1628,1.0871,0.9824,0.8683,0.7918,0.6281,0.3788,0.2928,0.3483,-2.1539,-1.8674,-1.7669,-1.4711,-1.3771,-1.2397,-0.7974,0.0,-0.8507,-0.5094,0.0,-0.2815,-0.3071,0.0,0.0,-0.6639,-2.3781,-3.2509,-1.9829,-2.5766,-3.1767,-3.2694,-2.752,-2.7512,-3.6896,-4.4851,-4.2559,-2.6043,-0.2276,1.4004,1.9745,3.2115,3.7168,3.3166,2.9415,2.7628,2.7842,2.82,2.993,3.3122,3.5041,3.6261,3.6661,3.5429,3.4288,3.3495,3.3837,3.3732,3.3389,3.6662,3.8309,3.8774,3.8475,3.8944,3.9776,3.9438,3.9505,3.9704,3.9704,4.0033,4.0454,4.1297,4.2941,4.466,4.5027,4.5793,4.6526,4.6033,4.6124,4.6131,4.4924,4.451,4.4265,4.3485,4.3537,4.3913,4.4708,4.5595,4.6519,4.7546,4.8357,4.896,4.9295,4.9477,4.9667,4.9824,4.9695,4.9279,4.8509,4.83,4.776,4.6686,4.5971,4.5075,4.388,4.1959,3.9417,3.6215,3.2924,2.9312,2.5146,1.8987,1.3875,0.9824,0.8877,0.7702,0.6418,0.4568,0.0652,-0.5137,-0.1854,0.1308,-1.9135,-1.6473,-1.5521,-1.6001,-1.3452,-1.1848,0.0,0.0,0.0,-2.5303,-2.2774,-1.9975,-2.1812,-1.8867,-1.7654,-2.2207,-3.0816,-3.8346,-4.2326,-4.3564,-4.4225,-4.4523,-4.3306,-4.328,-4.5441,-4.7981,-4.2858,-2.6689,-2.0192,-0.6407,1.7829,2.0185,2.4617,3.296,2.8851,2.6721,2.7061,2.6103,2.7781,3.2118,3.248,3.4418,3.7579,3.4966,3.4156,3.4705,3.2597,3.2101,3.2874,3.4209,3.5782,3.7348,3.7507,3.7835,3.8355,3.8454,3.876,3.9093,3.9093,3.9438,3.9968,4.0132,4.1445,4.3017,4.3693,4.5041,4.6295,4.6089,4.5574,4.5074,4.5014,4.4483,4.403,4.4081,4.44,4.4674,4.4736,4.5366,4.6251,4.7147,4.7811,4.8139,4.8041,4.8357,4.8771,4.9111,4.9408,4.9301,4.8661,4.8262,4.7547,4.6184,4.545,4.448,4.293,4.1318,3.8826,3.5109,3.2684,2.9249,2.451,2.0157,1.5035,0.9091,0.6922,0.4875,0.2724,0.1087,-0.163,-0.5234,-0.3052,-0.2179,-1.7082,-1.512,-1.4375,-1.4,-1.2575,0.0,0.0,-1.4701,-1.8581,-2.4781,-2.5201,-2.5862,-3.0365,-2.6943,-2.4278,-2.6984,-3.3204,-4.0498,-4.8433,-4.8513,-4.7844,-4.8176,-4.7963,-4.7921,-4.8175,-4.9025,-4.6194,-3.8048,-2.9086,-1.7829,-0.3628,0.8782,1.7336,2.1494,2.3408,2.4188,2.3831,2.4108,2.6293,3.0496,3.1475,3.3364,3.5879,3.4654,3.4261,3.4497,3.2949,3.2233,3.2242,3.3546,3.4314,3.467,3.5974,3.678,3.7247,3.7607,3.785,3.8063,3.8552,3.9033,3.9542,4.0068,4.0927,4.1893,4.271,4.3608,4.4393,4.4762,4.4756,4.4533,4.42,4.3841,4.3366,4.2673,4.2608,4.2654,4.243,4.3366,4.4557,4.5382,4.5905,4.6522,4.7619,4.8037,4.8407,4.9076,4.9304,4.9211,4.876,4.847,4.7714,4.6154,4.5688,4.4762,4.2941,4.0922,3.847,3.5589,3.2704,2.9187,2.4792,2.0568,1.5994,1.1074,0.6052,0.2064,-0.0872,-0.3475,-0.576,-0.7755,-0.632,-0.599,-1.4789,-1.3505,-1.299,-1.181,-1.1517,0.0,-1.0716,-1.3646,-1.8257,-2.4333,-2.8024,-3.1922,-3.7774,-3.5486,-3.2627,-3.2283,-3.7232,-4.3146,-4.9012,-4.9082,-4.8582,-4.8693,-4.8483,-4.8368,-4.863,-4.9159,-4.9357,-4.9005,-3.5947,-2.6943,-2.4499,-0.2313,0.9941,0.9035,1.7916,2.1933,2.0389,2.2092,2.4881,2.8712,3.055,3.2226,3.376,3.4287,3.4366,3.405,3.3381,3.2482,3.1624,3.3275,3.333,3.2522,3.4497,3.581,3.6587,3.691,3.7202,3.7564,3.8075,3.8632,3.9274,4.0132,4.0739,4.1237,4.201,4.2382,4.2631,4.348,4.4014,4.4267,4.3546,4.3246,4.2775,4.1416,3.9048,3.7139,3.6802,3.79,3.9021,3.9513,4.1879,4.4546,4.6926,4.7393,4.7868,4.9062,4.9179,4.9035,4.8647,4.8417,4.7735,4.6129,4.5831,4.5006,4.332,4.0705,3.8373,3.6433,3.2966,2.8969,2.4697,2.0456,1.631,1.2045,0.539,-0.0,-0.4038,-0.7516,-0.9714,-1.073,-0.9821,-0.9369,-1.1533,-1.0424,-0.9973,-1.2528,-1.0697,0.0,-2.4496,-2.6828,-3.0255,-4.4479,-4.8209,-4.9673,-5.214,-5.2049,-5.1116,-4.9621,-4.9977,-5.0642,-5.1355,-5.1217,-5.0588,-4.9295,-4.9165,-4.9103,-4.8805,-4.9068,-4.8947,-4.8362,-4.6508,-3.9131,-2.4762,-1.305,-0.3132,0.4828,1.6882,2.1868,1.893,2.0228,2.2893,2.6911,2.7967,2.9943,3.2636,3.3275,3.3889,3.4261,3.2622,3.1455,3.0946,3.215,3.2564,3.2539,3.3732,3.5145,3.6513,3.6587,3.7492,3.8582,3.7721,3.8285,3.9468,3.9535,4.0068,4.0833,4.1479,4.2274,4.2974,4.3267,4.3789,4.4148,4.4166,4.3579,4.2951,4.2752,3.3663,2.5044,2.5016,2.5054,2.4952,2.434,3.382,4.2526,4.4548,4.5277,4.628,4.8378,4.8976,4.8871,4.8039,4.7581,4.6913,4.5684,4.4822,4.4231,4.4015,4.0765,3.8259,3.7064,3.358,2.8814,2.2715,1.9638,1.4711,0.7626,0.4405,-0.0108,-0.6112,-0.9087,-1.1161,-1.2527,-1.1904,-1.1654,-0.9867,-0.9733,-0.9904,-1.044,0.0,0.0,-2.3006,-2.8284,-3.4644,-4.4871,-4.8226,-5.0439,-5.4241,-5.4834,-5.4447,-5.359,-5.403,-5.4176,-5.3299,-5.216,-5.1244,-5.0794,-4.9608,-4.8819,-4.8797,-4.8514,-4.8251,-4.802,-4.7904,-4.4717,-3.7557,-2.5203,-1.1943,0.2091,1.0095,1.592,1.9631,1.8183,2.0026,2.5192,2.7542,2.9662,3.1468,3.2457,3.3325,3.4128,3.3163,3.2316,3.1332,2.5594,2.6635,3.1326,2.6255,2.8914,3.5559,3.5559,3.594,3.6513,3.678,3.7464,3.8274,3.9199,3.977,4.0326,4.1114,4.1663,4.2074,4.2729,4.3039,4.3236,4.3291,4.3149,4.264,4.1537,3.1553,2.2168,2.1462,2.1826,1.814,0.4182,1.168,2.3205,3.2284,3.4238,3.775,4.7177,4.8938,4.9044,4.8646,4.8469,4.7957,4.6842,4.6378,4.5598,4.4092,4.1759,3.9184,3.6321,3.1981,2.6977,2.1241,1.4782,0.9362,0.5205,0.0967,-0.3235,-0.743,-1.1319,-1.3393,-1.3834,-1.3675,-1.3327,-0.8889,0.0,0.0,0.0,0.0,0.0,-2.6023,-3.239,-3.9326,-4.6297,-4.9013,-5.1424,-5.5541,-5.6207,-5.5991,-5.5702,-5.643,-5.6522,-5.4919,-5.3463,-5.2325,-5.1689,-5.0073,-4.8866,-4.8485,-4.7902,-4.7421,-4.7159,-4.7097,-4.6828,-4.6318,-3.5792,-2.3427,-0.9528,0.2619,0.8297,0.7026,1.1517,1.7332,2.4403,2.7206,2.9216,3.045,3.1678,3.2729,3.3674,3.3513,3.2918,3.1375,2.3573,2.4514,3.0252,2.372,2.6773,3.4759,3.4655,3.4942,3.5559,3.5988,3.6587,3.7391,3.8936,3.9638,4.0068,4.1052,4.1452,4.1723,4.2364,4.2568,4.2592,4.2649,4.2761,4.1555,3.665,2.5862,1.5573,1.1443,1.0992,0.6425,-1.034,-0.389,0.7715,1.825,2.0188,2.5372,4.0352,4.2908,4.4489,4.8295,4.8762,4.8439,4.7572,4.7298,4.6343,4.4454,4.258,3.9989,3.6393,3.0864,2.5221,1.9645,1.0952,0.4492,0.0959,-0.3218,-0.6762,-0.9704,-1.3553,-1.5404,-1.5531,-1.6005,-1.5926,0.0,0.0,0.0,-1.8767,-2.1814,-2.6723,-4.0197,-4.3762,-4.6622,-5.5012,-5.6922,-5.7554,-5.9231,-5.9431,-5.9215,-5.8835,-5.8818,-5.8138,-5.6211,-5.5773,-5.4497,-5.1341,-5.066,-4.9748,-4.7852,-4.7192,-4.6449,-4.5479,-4.5601,-4.5607,-4.5356,-4.361,-4.0249,-3.5049,-0.4194,-0.0213,-2.6296,-0.2096,1.5241,2.5064,2.6314,2.7914,2.9814,3.112,3.215,3.2886,3.3269,3.2399,3.0667,2.9766,2.9489,2.989,3.0569,3.2442,3.4729,3.4235,3.5402,3.7045,3.5582,3.6009,3.755,3.8847,3.9614,4.0265,4.1387,4.2133,4.2536,4.2568,4.2568,4.2649,4.2896,4.2649,3.9293,2.6929,1.3798,0.0877,-1.0695,-1.3925,-1.4702,-1.5055,-0.5516,0.3012,0.4324,0.425,0.9387,2.5285,2.7801,3.271,4.614,4.776,4.7495,4.7111,4.6378,4.5704,4.5119,4.2816,4.0449,3.8132,3.1097,2.4227,1.7841,0.9868,0.1863,-0.6335,-0.7809,-1.0148,-1.3604,-1.5531,-1.6973,-1.7837,-1.9637,-2.0104,-1.3771,-1.5717,-1.8199,-2.3903,-3.0305,-3.6816,-4.2904,-4.8778,-5.4025,-5.7997,-5.8872,-5.905,-5.9584,-5.9419,-5.9155,-5.892,-5.8536,-5.8056,-5.7472,-5.63,-5.4705,-5.2458,-5.0932,-4.9301,-4.7554,-4.6509,-4.554,-4.4599,-4.4213,-4.3815,-4.3383,-4.3365,-4.2218,-3.9557,-2.905,-2.6382,-3.2417,-1.4817,0.5156,2.6904,2.11,2.2242,2.9508,3.0566,3.1371,3.2067,3.2589,3.1648,2.9263,2.18,1.8739,1.8799,1.9135,2.0858,2.3998,3.0834,3.434,3.5609,3.5456,3.6036,3.7,3.8326,3.9348,4.0265,4.1448,4.1898,4.2191,4.2915,4.2826,4.2875,4.4181,4.3645,3.9251,2.5402,1.3174,0.088,-1.2887,-2.1839,-2.695,-2.602,-2.2639,-1.6966,-0.7532,-0.6981,-0.3024,1.1101,2.1123,2.8622,3.293,4.2533,4.8864,4.8734,4.8175,4.6995,4.498,4.3725,4.1453,3.7547,3.1431,2.455,1.707,0.4663,-0.3698,-0.752,-1.1171,-1.4158,-1.6537,-1.779,-1.8573,-1.8674,-1.9433,-2.0038,-1.6711,-1.911,-2.2117,-3.0299,-3.756,-4.382,-4.7883,-5.3593,-5.8348,-5.9393,-5.9646,-5.9669,-5.9557,-5.9175,-5.8784,-5.8573,-5.8248,-5.7965,-5.7825,-5.6853,-5.5401,-5.3513,-5.1525,-4.986,-4.8703,-4.7169,-4.6129,-4.582,-4.4728,-4.4088,-4.399,-4.3745,-4.1686,-3.7504,-3.9289,-3.6678,-2.906,-2.2327,-0.9906,0.8018,1.2056,1.9466,2.9543,2.6353,2.7307,3.1479,3.0984,3.015,2.8594,2.0934,1.8091,1.8155,1.4788,1.4661,1.6772,1.9851,2.4072,2.8263,2.8237,3.1497,3.5831,3.7221,3.8583,4.0007,4.1266,3.8584,3.5244,3.593,3.2464,2.8812,2.9789,3.3231,3.4021,2.4533,1.3508,-0.0144,-1.9574,-2.8683,-3.2736,-3.1659,-3.1407,-2.8703,-2.0192,-1.9935,-1.634,-0.285,0.6859,1.4396,1.9332,2.8024,3.5229,3.9242,3.716,3.4961,3.36,3.7473,3.4801,2.2691,2.4563,2.0826,0.8905,-0.1529,-0.8115,-1.0203,-1.4377,-1.723,-1.8587,-1.912,-1.9578,-2.0084,-2.0458,-2.0875,-1.7705,-2.0445,-2.4661,-3.7931,-4.3674,-4.7874,-5.4932,-5.8138,-5.9591,-5.9475,-5.9554,-5.957,-5.9291,-5.884,-5.8389,-5.7993,-5.7997,-5.7902,-5.7404,-5.7328,-5.6482,-5.4302,-5.2496,-5.1307,-5.0961,-4.901,-4.799,-4.8624,-4.6897,-4.6041,-4.6556,-4.4697,-3.9545,-3.0586,-3.4991,-3.1495,-1.8904,-2.399,-2.6486,-2.5851,0.1322,1.9096,2.7665,1.9104,2.0662,3.0026,2.7873,2.774,2.8703,2.6804,2.6448,2.6218,1.7887,1.465,1.3452,0.3756,0.7101,1.6271,1.4726,2.2124,3.2611,3.461,3.6653,3.8709,4.074,3.2771,2.3086,2.3168,1.3652,0.3403,0.2976,1.3135,2.3415,2.3022,1.3151,-0.3361,-2.9631,-3.4307,-3.3092,-3.1959,-3.1708,-3.1851,-3.2325,-3.3491,-2.9787,-1.6385,-1.3706,-0.8199,0.5723,0.6277,0.9457,2.0051,1.5529,1.2187,1.3173,2.4857,2.1677,-0.2809,1.1509,1.2806,-0.5226,-0.8572,-1.1469,-1.4723,-1.7471,-1.9177,-1.9962,-1.9708,-2.0322,-2.1788,-2.2395,-2.2734,-2.4441,-3.1358,-3.7509,-4.5277,-5.0123,-5.3608,-5.578,-5.7721,-5.9072,-5.9044,-5.9088,-5.9066,-5.887,-5.8441,-5.8162,-5.8322,-5.7729,-5.7256,-5.7328,-5.6901,-5.5872,-5.3982,-5.3405,-5.2519,-5.0802,-4.9708,-4.8639,-4.7542,-4.5882,-4.4186,-4.2733,-4.2672,-3.7933,-2.7503,-2.8814,-2.6714,-2.0454,-1.2451,-0.6463,-0.244,1.1705,1.1634,-0.0434,1.7815,2.2907,1.7329,1.6754,2.0623,2.7332,2.6231,2.0995,1.4404,2.0749,1.8966,1.256,1.091,1.2692,1.477,0.6623,0.6246,1.0897,2.0224,2.4496,2.7732,3.7226,3.1944,2.2825,2.34,1.3792,0.3538,0.4383,0.6305,0.8309,0.943,-0.167,-1.4062,-1.9916,-2.9046,-3.5375,-3.2786,-3.1983,-3.1202,-2.9629,-3.1695,-3.2103,-2.7961,-1.9511,-1.2532,-0.9459,0.0561,0.8219,1.0292,1.2328,1.3038,1.1789,1.8172,1.7313,0.5678,0.4516,-0.0258,-1.0579,-1.573,-1.9633,-2.2361,-2.2017,-2.1575,-2.1264,-2.169,-2.1886,-2.1788,-2.2425,-2.2762,-2.3721,-3.297,-4.2564,-5.0126,-5.3714,-5.5717,-5.6734,-5.7948,-5.8821,-5.8606,-5.8471,-5.833,-5.8285,-5.7932,-5.7729,-5.7972,-5.7516,-5.7098,-5.6941,-5.6574,-5.586,-5.4516,-5.3823,-5.3236,-5.2631,-5.1822,-5.1044,-5.0538,-4.8064,-4.6555,-4.6341,-4.4149,-3.8521,-2.8904,-2.7462,-2.5406,-2.2459,-1.4766,-0.8979,-0.509,0.1147,0.0377,-0.6021,0.9006,0.9582,-0.0812,0.7834,1.4936,2.069,2.4042,2.2145,1.7075,1.8517,1.6115,1.1647,1.0284,1.0702,1.0266,-0.1172,-0.084,0.6246,1.5913,1.6118,1.493,2.7687,1.9513,0.596,0.6419,-0.3164,-1.3492,-1.321,-0.9294,-0.5313,-0.4775,-1.133,-1.9091,-2.4168,-3.1248,-3.5934,-3.333,-3.2042,-3.0776,-2.8881,-3.0643,-3.2086,-3.1335,-2.5172,-2.105,-2.2291,-1.4983,-1.0207,-1.1548,-0.7589,-0.5604,-0.7284,0.1187,0.0474,-1.3779,-0.6177,-0.6901,-1.9668,-1.8885,-1.9499,-2.242,-2.3096,-2.321,-2.2665,-2.321,-2.321,-2.278,-2.307,-2.3246,-2.1775,-3.1269,-4.3054,-5.2923,-5.5525,-5.6031,-5.7565,-5.8387,-5.867,-5.8174,-5.7862,-5.7659,-5.7659,-5.7443,-5.729,-5.7366,-5.7215,-5.6982,-5.6531,-5.6314,-5.5988,-5.5268,-5.3994,-5.3764,-5.5128,-5.4351,-5.4034,-5.4784,-5.1667,-5.0583,-5.2399,-4.7285,-4.0519,-3.2243,-2.9249,-2.6919,-2.5037,-2.3077,-2.0952,-1.867,-1.778,-1.2794,-0.438,-0.4724,-1.0076,-1.8183,-0.16,0.7263,1.0646,1.9382,2.3544,2.3491,1.5168,1.2243,1.204,0.7207,0.5396,0.3695,-0.8432,-0.5525,0.4753,1.2026,0.7524,0.1711,1.4715,0.2804,-1.5218,-1.5241,-2.4664,-3.5017,-3.6036,-2.7192,-1.827,-1.9214,-1.9438,-2.2651,-3.4541,-3.6661,-3.5707,-3.384,-3.249,-3.114,-2.9761,-3.0479,-3.1017,-3.0155,-2.9807,-3.0045,-3.1286,-3.1873,-3.2774,-3.4339,-3.0915,-2.9089,-3.0477,-1.767,-1.8915,-4.095,-1.7765,-1.144,-2.9627,-2.091,-1.7052,-1.965,-2.2842,-2.432,-2.4068,-2.4225,-2.4035,-2.3762,-2.3936,-2.3936,-3.2837,-3.8364,-4.3447,-5.3163,-5.66,-5.7698,-5.7891,-5.8093,-5.8156,-5.7865,-5.7589,-5.7405,-5.737,-5.7104,-5.6982,-5.7259,-5.667,-5.6366,-5.6819,-5.6034,-5.5369,-5.5252,-5.5007,-5.4969,-5.549,-5.534,-5.509,-5.4868,-5.3146,-5.1666,-5.0696,-4.9064,-4.3458,-3.2998,-3.2754,-3.1483,-2.884,-2.2817,-1.8128,-1.4841,-2.0824,-2.4871,-2.6846,-2.0824,-1.8565,-1.9335,-1.8959,-1.237,-0.1224,0.7544,1.0417,1.0291,1.9825,2.1528,1.7987,1.2339,0.4705,-0.425,-1.43,-2.1556,-2.4653,-1.435,-1.1232,-0.9403,0.1985,-0.3859,-1.4436,-1.4637,-2.3843,-3.376,-3.4809,-3.3481,-3.2154,-3.3212,-3.3571,-3.4222,-3.6662,-3.7057,-3.6513,-3.5017,-3.4471,-3.3837,-3.2424,-3.2032,-3.1334,-2.9719,-3.0219,-3.0651,-3.026,-3.0682,-3.1299,-3.1997,-2.7699,-2.5696,-2.7864,-1.9208,-1.9192,-3.2025,-2.374,-2.3267,-3.4122,-2.8392,-2.4695,-2.3977,-2.4013,-2.4318,-2.483,-2.3648,-2.3053,-2.2991,-2.3995,-2.4054,-3.0163,-3.694,-4.3674,-4.8334,-5.3253,-5.7041,-5.7511,-5.7902,-5.7969,-5.7333,-5.7101,-5.6982,-5.6869,-5.6694,-5.6603,-5.6788,-5.6445,-5.6216,-5.6445,-5.5836,-5.5268,-5.5045,-5.4993,-5.5233,-5.573,-5.6009,-5.6109,-5.6127,-5.4633,-5.3679,-5.3589,-5.1369,-4.5381,-3.5084,-3.4474,-3.0256,-2.1812,-2.5193,-2.2007,-1.2428,-2.6336,-2.8047,-1.9164,-2.6805,-3.0566,-3.0803,-2.6864,-2.1266,-1.4019,-0.3042,0.2514,0.4727,1.1028,1.716,2.2003,1.8621,1.4616,0.8987,-0.4838,-1.5653,-2.2642,-1.8003,-2.0503,-2.3151,-1.1266,-1.5804,-2.497,-2.4794,-2.8812,-3.3575,-3.4809,-3.5168,-3.5392,-3.6696,-3.6679,-3.6289,-3.6289,-3.6289,-3.6064,-3.5121,-3.4471,-3.3917,-3.3754,-3.2399,-3.0994,-2.9871,-3.0369,-3.0861,-3.0861,-3.0518,-3.0984,-3.2768,-3.0269,-2.9252,-3.1294,-2.774,-2.731,-3.1762,-2.6771,-2.6131,-3.1636,-2.8726,-2.6479,-2.5413,-2.5694,-2.5526,-2.4774,-2.5132,-2.4755,-2.3708,-2.4641,-2.4717,-2.8173,-3.556,-4.3633,-4.5466,-5.0144,-5.4851,-5.6933,-5.7625,-5.7587,-5.6865,-5.6448,-5.6221,-5.633,-5.6144,-5.6028,-5.6322,-5.6386,-5.6297,-5.6136,-5.5741,-5.5369,-5.5045,-5.494,-5.5233,-5.61,-5.6453,-5.6865,-5.7368,-5.6107,-5.5734,-5.67,-5.3751,-4.8056,-3.9296,-3.8966,-3.2441,-1.9002,-3.1709,-2.8792,-1.0456,-3.0947,-2.902,-0.8081,-2.9632,-4.0536,-4.2013,-3.3845,-2.9423,-2.7054,-1.465,-0.7062,-0.2824,0.1533,0.9565,1.9075,2.2474,2.4333,2.263,0.4726,-0.6805,-1.4327,-1.8645,-2.6846,-3.3284,-2.3735,-2.7402,-3.4733,-3.4524,-3.3812,-3.344,-3.5017,-3.4886,-3.4756,-3.6411,-3.6289,-3.581,-3.5961,-3.5934,-3.5886,-3.5582,-3.468,-3.413,-3.4654,-3.3006,-3.1431,-3.097,-3.0838,-3.0984,-3.1431,-3.0752,-3.1154,-3.3491,-3.2899,-3.3037,-3.4809,-3.434,-3.3974,-3.4026,-2.8776,-2.6801,-2.9162,-2.7658,-2.658,-2.6079,-2.6672,-2.6231,-2.4717,-2.6026,-2.5933,-2.4528,-2.5206,-2.53,-3.7918,-4.0625,-4.3194,-5.042,-5.082,-5.0841,-5.6275,-5.7104,-5.6742,-5.6778,-5.5425,-5.4726,-5.6116,-5.5389,-5.5005,-5.6151,-5.6358,-5.6358,-5.6322,-5.5693,-5.5319,-5.5469,-5.5354,-5.5596,-5.6778,-5.6901,-5.714,-5.7624,-5.7515,-5.7259,-5.6778,-5.6086,-5.3089,-4.731,-5.0821,-4.6508,-3.3404,-4.5504,-3.7017,-0.8353,-3.1729,-3.1678,-1.1702,-3.2745,-4.3482,-4.532,-4.5616,-4.3797,-3.9754,-2.9533,-2.4237,-2.0463,0.0457,0.505,0.2117,2.0148,2.5733,2.1615,0.3262,-0.749,-1.5396,-2.9285,-3.3655,-3.3554,-3.4034,-3.4164,-3.4366,-3.5505,-3.4235,-3.2974,-3.4576,-3.3837,-3.3193,-3.5171,-3.6139,-3.6559,-3.7045,-3.719,-3.7118,-3.7118,-3.7017,-3.6651,-3.5961,-3.5121,-3.4314,-3.3411,-3.235,-3.1431,-3.1022,-3.1046,-3.1275,-3.173,-3.1527,-3.2135,-3.3945,-3.149,-3.1691,-3.5824,-3.0821,-2.9075,-3.1939,-2.8705,-2.7058,-2.7444,-2.5655,-2.5,-2.5581,-2.432,-2.4017,-2.4528,-2.5019,-2.5507,-2.7793,-3.2391,-3.6922,-3.8497,-4.2929,-4.7743,-5.0947,-5.2065,-5.3171,-5.577,-5.496,-5.3421,-5.2175,-5.3785,-5.4612,-5.2282,-5.4398,-5.6332,-5.6161,-5.5872,-5.5667,-5.5618,-5.5469,-5.5776,-5.6531,-5.6819,-5.7179,-5.7659,-5.7766,-5.7624,-5.7369,-5.6845,-5.5457,-5.3104,-5.4516,-4.5359,-2.4594,-4.4178,-3.9247,-1.008,-3.4567,-3.8123,-2.3584,-3.8662,-4.6372,-4.7748,-4.9264,-4.8929,-4.6762,-3.9535,-3.7005,-3.6383,-2.2695,-1.0224,0.085,0.7431,1.5702,2.0373,-0.2337,-0.8867,-1.0378,-2.9853,-3.5858,-3.5755,-3.6826,-3.6752,-3.6429,-3.6559,-3.5298,-3.4078,-3.5094,-3.4575,-3.4288,-3.6206,-3.7,-3.7363,-3.7335,-3.7478,-3.7579,-3.7335,-3.7045,-3.6854,-3.678,-3.5783,-3.4966,-3.4784,-3.3597,-3.2646,-3.2457,-3.3062,-3.3249,-3.2374,-3.2515,-3.2981,-3.3732,-3.2407,-3.2193,-3.3921,-3.1323,-3.0247,-3.1455,-3.0121,-2.8505,-2.6946,-2.7129,-2.6763,-2.588,-2.6191,-2.6191,-2.6086,-2.5993,-2.6271,-2.2115,-2.6468,-3.1366,-3.139,-3.652,-4.2692,-4.6809,-4.7346,-4.8603,-5.4563,-5.3834,-5.1705,-5.01,-5.2175,-5.3215,-5.033,-5.3592,-5.6413,-5.6141,-5.6037,-5.5954,-5.5812,-5.5764,-5.5919,-5.6445,-5.686,-5.7256,-5.7694,-5.7834,-5.7834,-5.7729,-5.7217,-5.6058,-5.4218,-5.5226,-4.5094,-2.2825,-4.3764,-4.1136,-1.5145,-3.7557,-4.4607,-3.8195,-4.611,-5.0081,-5.0828,-5.1716,-5.2093,-5.1685,-4.7579,-4.6016,-4.5328,-3.6176,-2.3711,-1.0145,-0.4718,0.47,1.1793,-0.8867,-1.2632,-1.1397,-3.0361,-3.6808,-3.7319,-3.7821,-3.7863,-3.7721,-3.7707,-3.6429,-3.5321,-3.6084,-3.63,-3.6658,-3.7635,-3.8145,-3.8285,-3.8186,-3.8285,-3.8315,-3.8005,-3.765,-3.7535,-3.7721,-3.6679,-3.581,-3.5734,-3.4654,-3.3809,-3.3674,-3.4445,-3.4654,-3.3729,-3.3703,-3.3758,-3.3758,-3.3406,-3.3056,-3.2793,-3.2358,-3.2028,-3.1861,-3.1503,-3.0379,-2.8238,-2.8992,-2.8748,-2.7402,-2.8034,-2.8145,-2.7688,-2.7029,-2.6957,-2.6366,-2.6414,-2.8011,-3.4165,-3.3835,-3.4747,-4.5219,-4.3856,-4.3136,-5.3148,-5.169,-4.9234,-5.1316,-5.0691,-5.0298,-5.1812,-5.4729,-5.6688,-5.6404,-5.6141,-5.6048,-5.6359,-5.6141,-5.6197,-5.6694,-5.7098,-5.7443,-5.7731,-5.7969,-5.8001,-5.7766,-5.748,-5.4907,-4.9588,-5.3571,-4.9097,-3.5127,-4.7659,-4.3851,-2.4004,-4.0133,-5.0258,-5.4761,-5.4894,-5.4969,-5.489,-5.4279,-5.4358,-5.4924,-5.4091,-5.0923,-4.5327,-3.2217,-3.248,-3.7413,-1.4012,-0.5395,-0.6675,-1.585,-1.9382,-2.1716,-3.2899,-3.6927,-3.7407,-3.8104,-3.7863,-3.7579,-3.8582,-3.7464,-3.6261,-3.7579,-3.8944,-3.9876,-3.9348,-3.9341,-3.9602,-3.9907,-3.9674,-3.9468,-3.9468,-3.9468,-3.9334,-3.8956,-3.8344,-3.7435,-3.6112,-3.5429,-3.4733,-3.4128,-3.4576,-3.5121,-3.5505,-3.4576,-3.4049,-3.4049,-3.4049,-3.3809,-3.3432,-3.4366,-3.4654,-3.4049,-3.3011,-3.244,-3.2399,-3.1154,-3.0534,-3.0449,-2.9476,-2.8969,-2.8881,-2.7758,-2.7506,-2.1512,-2.3817,-2.7163,-3.1386,-3.1088,-3.2783,-4.4438,-4.6629,-4.6864,-4.9161,-4.922,-4.8128,-4.5773,-4.9233,-5.1944,-5.0461,-5.3754,-5.6457,-5.6404,-5.6314,-5.6268,-5.6359,-5.6314,-5.6323,-5.6465,-5.7014,-5.7366,-5.7479,-5.7868,-5.8066,-5.8001,-5.7766,-5.6741,-5.4907,-5.5872,-5.0175,-3.7049,-4.9293,-4.786,-3.2976,-4.6199,-5.3353,-5.5003,-5.5003,-5.5397,-5.6075,-5.5657,-5.5703,-5.6032,-5.5512,-5.4096,-5.1465,-4.3524,-3.8363,-3.4851,-3.0963,-2.0319,-1.0109,-2.6439,-2.6493,-2.1186,-3.2304,-3.6485,-3.7435,-3.8817,-3.9252,-3.9385,-4.0521,-4.0108,-3.9325,-3.965,-4.02,-4.0456,-3.9942,-4.0295,-4.0709,-4.0583,-4.0646,-4.0614,-4.0002,-4.0167,-4.0231,-3.971,-3.9012,-3.8268,-3.7918,-3.6429,-3.5352,-3.5121,-3.4942,-3.5175,-3.6139,-3.6009,-3.5982,-3.6281,-3.5325,-3.5044,-3.5886,-3.6036,-3.5068,-3.293,-3.3254,-3.2768,-3.1154,-3.1827,-3.1492,-2.9977,-3.0064,-2.9454,-2.8299,-2.8029,-2.7939,-2.0401,-2.3083,-2.6529,-3.0547,-2.9096,-2.9543,-4.0644,-4.207,-4.1502,-4.2958,-4.3843,-4.3731,-4.1611,-4.6694,-5.0883,-4.9901,-5.3096,-5.5872,-5.6297,-5.6359,-5.6359,-5.6268,-5.6187,-5.6187,-5.6187,-5.6688,-5.7098,-5.7328,-5.7731,-5.7969,-5.7969,-5.7731,-5.7443,-5.7137,-5.6772,-5.2651,-4.4373,-5.1964,-5.2085,-4.4877,-5.2256,-5.598,-5.634,-5.634,-5.6693,-5.73,-5.696,-5.7049,-5.7362,-5.7111,-5.6442,-5.523,-5.1964,-4.6207,-3.9925,-4.1978,-3.3892,-2.3552,-3.502,-3.3821,-2.844,-3.5293,-3.8151,-3.8998,-4.0081,-4.0459,-4.0647,-4.1565,-4.1356,-4.0989,-4.1765,-4.1797,-4.1624,-4.1501,-4.1711,-4.192,-4.2004,-4.2062,-4.1861,-4.1234,-4.1266,-4.1266,-4.0803,-3.9946,-3.9222,-3.8749,-3.7564,-3.6531,-3.5961,-3.5788,-3.5864,-3.6513,-3.6633,-3.6679,-3.6752,-3.5961,-3.5658,-3.6289,-3.6438,-3.5604,-3.3575,-3.4183,-3.3786,-3.2159,-3.3598,-3.3577,-3.1968,-3.1953,-3.1634,-3.0962,-3.0255,-3.0072,-2.1965,-2.3606,-2.576,-3.0978,-2.8177,-2.6512,-3.5364,-3.2864,-3.0107,-3.5496,-3.6404,-3.6728,-3.8197,-4.2884,-4.7443,-5.019,-5.2717,-5.4805,-5.61,-5.6306,-5.6171,-5.5931,-5.5966,-5.6001,-5.6001,-5.6216,-5.6616,-5.7215,-5.7553,-5.7731,-5.7731,-5.7479,-5.7137,-5.6778,-5.6509,-5.6059,-5.5328,-5.531,-5.609,-5.7659,-5.7696,-5.7969,-5.8456,-5.8485,-5.8485,-5.8485,-5.8093,-5.8248,-5.8696,-5.8688,-5.7982,-5.7001,-5.7378,-5.5007,-5.1013,-4.7751,-4.5379,-4.3472,-4.1351,-4.0694,-4.076,-4.0767,-4.1135,-4.1557,-4.1584,-4.1438,-4.1413,-4.1856,-4.1593,-4.162,-4.3644,-4.3589,-4.3246,-4.3811,-4.3466,-4.3168,-4.3829,-4.3641,-4.3221,-4.2919,-4.2649,-4.2364,-4.192,-4.1234,-4.0329,-3.9125,-3.871,-3.8116,-3.6854,-3.6955,-3.7028,-3.6735,-3.6661,-3.6587,-3.6187,-3.6187,-3.5961,-3.5248,-3.6194,-3.6549,-3.587,-3.5952,-3.5725,-3.5234,-3.6296,-3.6523,-3.5939,-3.5086,-3.5099,-3.572,-3.394,-3.3469,-1.8571,-2.0735,-2.3693,-2.7662,-3.1415,-3.5178,-3.9081,-3.7219,-3.4085,-3.1919,-3.1729,-3.1651,-3.0652,-3.5597,-4.2825,-5.1959,-5.2394,-5.2429,-5.5113,-5.5562,-5.5436,-5.4834,-5.586,-5.643,-5.6001,-5.6216,-5.6531,-5.686,-5.7215,-5.7442,-5.7442,-5.7366,-5.7137,-5.6778,-5.673,-5.6576,-5.6386,-5.6386,-5.6604,-5.7022,-5.7292,-5.7589,-5.7902,-5.8135,-5.823,-5.8199,-5.8098,-5.8309,-5.8684,-5.8684,-5.8759,-5.8846,-5.8928,-5.7685,-5.5306,-5.097,-4.7912,-4.5586,-4.3207,-4.1579,-4.049,-4.0193,-4.0461,-4.1104,-4.1696,-4.1966,-4.2374,-4.3762,-4.4048,-4.4048,-4.4344,-4.4348,-4.4316,-4.4363,-4.462,-4.4856,-4.4843,-4.4856,-4.4667,-4.3811,-4.3689,-4.3532,-4.2808,-4.2126,-4.1537,-4.1264,-4.001,-3.8944,-3.8642,-3.7947,-3.7593,-3.7976,-3.8046,-3.8075,-3.8204,-3.8483,-3.8355,-3.7735,-3.88,-3.9128,-3.8152,-3.9126,-3.95,-3.9131,-3.9407,-3.8998,-3.8,-3.7786,-3.711,-3.5917,-3.6007,-3.5282,-1.8848,-2.1882,-2.4298,-2.2627,-2.622,-3.0169,-3.0129,-2.9083,-2.7453,-2.5046,-2.479,-2.5768,-2.84,-3.0897,-3.5894,-4.6315,-4.8269,-5.0049,-5.4553,-5.5103,-5.5208,-5.5657,-5.577,-5.5963,-5.6297,-5.5906,-5.5963,-5.6694,-5.6978,-5.7058,-5.7058,-5.7058,-5.6937,-5.656,-5.6596,-5.6596,-5.6596,-5.6596,-5.6646,-5.6778,-5.7137,-5.7516,-5.7832,-5.8167,-5.8291,-5.8328,-5.8433,-5.8485,-5.8457,-5.8776,-5.9079,-5.9306,-5.9439,-5.9062,-5.8096,-5.4759,-5.2598,-5.0803,-4.7304,-4.4703,-4.2898,-4.2704,-4.3006,-4.3568,-4.3905,-4.4135,-4.442,-4.5183,-4.5574,-4.5682,-4.568,-4.547,-4.5281,-4.5479,-4.5696,-4.5824,-4.5824,-4.6026,-4.5943,-4.5166,-4.4937,-4.4736,-4.4065,-4.332,-4.2775,-4.2471,-4.1565,-4.0741,-4.0396,-3.9824,-3.9529,-3.972,-3.9619,-3.9548,-3.9408,-3.9638,-3.9475,-3.9004,-3.9764,-4.0038,-3.9604,-4.0533,-4.098,-4.0957,-4.1495,-4.1341,-4.0483,-4.006,-3.9623,-3.902,-3.8459,-3.7674,-1.9699,-2.3663,-2.5406,-1.8707,-1.9404,-2.1016,-1.8539,-1.7902,-1.7937,-1.8191,-1.8279,-2.0358,-2.7011,-2.7258,-2.8956,-3.6597,-4.2012,-4.7479,-5.3731,-5.4748,-5.5331,-5.6596,-5.574,-5.5407,-5.6278,-5.5539,-5.5393,-5.6445,-5.6652,-5.673,-5.673,-5.6652,-5.6517,-5.6278,-5.6314,-5.6314,-5.6314,-5.6314,-5.6457,-5.6694,-5.7058,-5.7406,-5.7761,-5.8199,-5.8389,-5.8389,-5.8733,-5.8617,-5.8254,-5.8833,-5.9103,-5.9172,-5.94,-5.9646,-5.9706,-5.8263,-5.7312,-5.6207,-5.2193,-4.8886,-4.6378,-4.6004,-4.6226,-4.6619,-4.6438,-4.647,-4.6553,-4.6486,-4.6654,-4.6935,-4.7169,-4.6734,-4.6274,-4.6697,-4.6697,-4.6583,-4.6692,-4.6915,-4.6915,-4.6416,-4.6096,-4.5758,-4.5247,-4.4577,-4.3913,-4.33,-4.3028,-4.2664,-4.1998,-4.1914,-4.1802,-4.1413,-4.1173,-4.0834,-4.0265,-4.0295,-4.0258,-4.0205,-4.0372,-4.0812,-4.1508,-4.1706,-4.1955,-4.2442,-4.3436,-4.3713,-4.3273,-4.2536,-4.2396,-4.2841,-4.1066,-4.0159,-1.5902,-2.0118,-2.3825,-2.1762,-2.1718,-2.1862,-2.0444,-1.8443,-1.6975,-1.7107,-1.7429,-1.8022,-1.9327,-2.2884,-2.5727,-2.6052,-3.494,-4.4189,-5.1093,-5.4313,-5.5686,-5.4923,-5.5512,-5.5636,-5.4888,-5.5198,-5.5449,-5.5442,-5.607,-5.6413,-5.6413,-5.6233,-5.6095,-5.6048,-5.6048,-5.6048,-5.6048,-5.6048,-5.6187,-5.6413,-5.673,-5.6901,-5.6946,-5.7588,-5.7868,-5.7902,-5.8481,-5.867,-5.8617,-5.8962,-5.9232,-5.94,-5.9479,-5.9634,-5.984,-5.9563,-5.8349,-5.666,-5.5813,-5.2657,-4.8644,-4.6539,-4.6217,-4.6582,-4.6232,-4.6517,-4.711,-4.7977,-4.8097,-4.8014,-4.8151,-4.7874,-4.7479,-4.7494,-4.7593,-4.7603,-4.7133,-4.7169,-4.7168,-4.6534,-4.6213,-4.5929,-4.5505,-4.5155,-4.483,-4.4465,-4.4082,-4.3604,-4.3126,-4.2808,-4.2503,-4.2191,-4.2165,-4.1898,-4.1266,-4.1205,-4.18,-4.3341,-4.2961,-4.3757,-4.6236,-4.5569,-4.5552,-4.6342,-4.658,-4.6589,-4.6478,-4.6111,-4.5328,-4.4202,-4.3464,-4.2004,-1.6083,-1.8733,-2.0853,-1.8946,-1.9373,-1.9874,-1.8405,-1.7812,-1.7482,-1.7069,-1.7163,-1.7913,-2.0039,-2.1064,-2.3125,-2.782,-3.3447,-3.9604,-4.6465,-5.1619,-5.5129,-5.6277,-5.6155,-5.5938,-5.5917,-5.5477,-5.5364,-5.5836,-5.5919,-5.6438,-5.7571,-5.6556,-5.6344,-5.7242,-5.6415,-5.5943,-5.5764,-5.5907,-5.613,-5.6404,-5.6646,-5.6778,-5.6778,-5.7292,-5.7589,-5.7764,-5.8255,-5.8558,-5.8722,-5.9066,-5.9267,-5.9384,-5.9384,-5.9485,-5.9646,-5.9646,-5.9072,-5.8066,-5.6807,-5.4952,-5.2591,-4.9173,-4.7871,-4.7545,-4.7222,-4.7524,-4.806,-4.8469,-4.8664,-4.8722,-4.863,-4.8457,-4.8305,-4.816,-4.826,-4.8197,-4.7679,-4.777,-4.7801,-4.731,-4.699,-4.6656,-4.6189,-4.6026,-4.5816,-4.5406,-4.5246,-4.5017,-4.4563,-4.425,-4.3893,-4.3559,-4.3399,-4.3017,-4.23,-4.3469,-4.4718,-4.5862,-4.5801,-4.6301,-4.7457,-4.6982,-4.7117,-4.8051,-4.8033,-4.7985,-4.7985,-4.6916,-4.609,-4.5471,-4.3876,-4.2309,-2.0169,0.0,-1.8434,-1.6933,-1.7627,-1.8148,0.0,-1.7318,-1.8377,-1.7058,-1.6865,-1.7821,-2.0805,-1.9603,-2.0624,-2.8152,-3.0984,-3.4545,-4.1259,-4.7475,-5.2759,-5.6512,-5.6089,-5.5669,-5.61,-5.5468,-5.5264,-5.5966,-5.5812,-5.6438,-5.807,-5.6687,-5.6473,-5.7641,-5.6509,-5.5764,-5.5519,-5.5764,-5.6001,-5.6278,-5.6553,-5.6688,-5.6688,-5.7018,-5.7368,-5.7696,-5.8093,-5.8484,-5.8804,-5.9189,-5.9384,-5.9421,-5.9384,-5.9475,-5.9554,-5.9501,-5.9501,-5.9259,-5.7478,-5.6555,-5.5606,-5.2275,-5.009,-4.8726,-4.8188,-4.8579,-4.9108,-4.8751,-4.8937,-4.9227,-4.9001,-4.8977,-4.8954,-4.8737,-4.8741,-4.8667,-4.8206,-4.826,-4.8284,-4.7936,-4.7675,-4.7375,-4.6917,-4.6881,-4.6732,-4.6224,-4.63,-4.6254,-4.5731,-4.5509,-4.5189,-4.4699,-4.4418,-4.4112,-4.3828,-4.5978,-4.7564,-4.8178,-4.8472,-4.8624,-4.8694,-4.8375,-4.8526,-4.9268,-4.9106,-4.8911,-4.8759,-4.721,-4.6423,-4.6228,-4.4054,-4.252,0.0,-2.5099,-1.7901,-1.9799,-1.9712,-1.855,-1.5977,-1.7831,0.0,-1.6427,-1.6115,-1.6563,-1.7193,-1.7544,-1.8027,-1.8966,-2.3529,-2.9332,-3.6121,-4.1753,-4.7252,-5.2944,-5.4168,-5.4198,-5.3251,-5.4576,-5.5349,-5.494,-5.5547,-5.6119,-5.6501,-5.5978,-5.5688,-5.5794,-5.5688,-5.5469,-5.5252,-5.5469,-5.5764,-5.6037,-5.6278,-5.6368,-5.6413,-5.6688,-5.7018,-5.7404,-5.7878,-5.8484,-5.9097,-5.9376,-5.9595,-5.9801,-5.971,-5.9746,-5.9794,-5.9554,-5.9547,-5.9577,-5.9062,-5.7623,-5.5853,-5.5077,-5.2654,-4.9778,-4.8425,-4.9161,-5.0199,-4.9073,-4.916,-4.9503,-4.9386,-4.9511,-4.9574,-4.9063,-4.913,-4.914,-4.8505,-4.8277,-4.817,-4.8014,-4.7888,-4.7671,-4.7409,-4.7574,-4.7578,-4.7025,-4.6988,-4.6766,-4.6254,-4.6172,-4.5878,-4.5142,-4.4824,-4.5108,-4.6146,-4.8163,-4.9679,-5.0475,-5.0417,-5.0754,-5.1783,-5.0923,-5.0475,-5.0571,-5.0347,-4.9949,-4.933,-4.7876,-4.6834,-4.6228,-4.4465,-4.3374,-3.9818,-4.0091,-3.9032,-3.9858,-3.4933,-2.9317,-2.6996,-2.3888,-2.0603,-1.759,-1.6437,-1.6171,-1.6772,-1.7141,-1.877,-2.3158,-2.6136,-3.0237,-3.6919,-4.3192,-4.7892,-5.0076,-5.3625,-5.5608,-5.4883,-5.5279,-5.5519,-5.5299,-5.5233,-5.5941,-5.7479,-5.6342,-5.5569,-5.5569,-5.5096,-5.4941,-5.5201,-5.4941,-5.5249,-5.5954,-5.6048,-5.6222,-5.6404,-5.6501,-5.6682,-5.7018,-5.7551,-5.8093,0.0,-5.9184,-5.9455,-5.9638,-5.9657,-5.9652,-5.9619,-5.942,-5.9455,-5.951,-5.9206,-5.8588,-5.7689,-5.6293,-5.4681,-5.2983,-5.129,-5.1105,-5.1525,-5.1684,-5.115,-5.0607,-5.0975,-5.0417,-4.9708,-4.9511,-4.9546,-4.9474,-4.8997,-4.8842,-4.8752,-4.8534,-4.8342,-4.815,-4.8065,-4.8122,-4.8007,-4.7574,-4.8377,-4.8749,-4.8182,-4.8789,-4.9132,-4.8674,-4.8214,-4.8554,-4.9944,-5.0665,-5.141,-5.2349,-5.2617,-5.2679,-5.2554,-5.1981,-5.1587,-5.1587,-5.1185,-5.0705,-5.0181,-4.9342,-4.8206,-4.6834,-4.5498,-4.4465,-4.6245,-4.9429,-5.1918,-5.1901,-4.5002,-3.7374,-3.4246,-2.881,-2.3186,-1.8707,-1.6717,-1.5961,-1.6604,-1.6894,-1.9006,-2.4948,-2.7461,-3.1132,-3.8223,-4.4243,-4.8398,-4.9822,-5.3361,-5.5635,-5.5587,-5.5587,-5.5569,-5.5469,-5.5252,-5.5809,-5.7477,-5.6377,-5.5667,-5.5569,-5.555,-5.5376,-5.5097,-5.4818,-5.5045,-5.5715,-5.5907,-5.6048,-5.6268,-5.6359,-5.6509,-5.6778,-5.7256,-5.7839,-5.8513,-5.897,-5.9288,-5.956,-5.96,-5.96,-5.957,-5.9393,-5.9418,-5.944,-5.9209,-5.9042,-5.872,-5.7216,-5.603,-5.4892,-5.3514,-5.2972,-5.2966,-5.3689,-5.2997,-5.2012,-5.1955,-5.1249,-5.0444,-4.9908,-4.9805,-4.9737,-4.9488,-4.9347,-4.9212,-4.8975,-4.8778,-4.8633,-4.8534,-4.8965,-4.9247,-4.8949,-5.0255,-5.1061,-5.0442,-5.1073,-5.1464,-5.1025,-5.0393,-5.09,-5.3047,-5.317,-5.3269,-5.3581,-5.4074,-5.4039,-5.3201,-5.2774,-5.2524,-5.2524,-5.1981,-5.1422,-5.0984,-5.0565,-4.9489,-4.7973,-4.72,-4.6247,-4.8006,-5.0739,-5.1805,-5.1887,-4.6968,-4.0794,-3.5324,-3.161,-2.721,-1.9627,-1.6858,-1.5858,-1.6252,-1.6684,-1.8225,-2.2135,-2.5962,-3.1245,-3.9258,-4.3808,-4.7958,-5.2464,-5.3175,-5.3698,-5.4755,-5.5282,-5.5469,-5.5217,-5.5455,-5.5715,-5.5954,-5.5954,-5.586,-5.5618,-5.7096,-5.6911,-5.4816,-5.5097,-5.5201,-5.5217,-5.5715,-5.5954,-5.6001,-5.6268,-5.6509,-5.6778,-5.7137,-5.7724,-5.8341,-5.8722,-5.9214,-5.9646,-5.9547,-5.9633,-5.983,-5.9574,-5.9492,-5.944,-5.9205,-5.8904,-5.862,-5.8125,-5.6633,-5.4968,-5.4594,-5.4474,-5.451,-5.4747,-5.4463,-5.3682,-5.2004,-5.1954,-5.1865,-5.0211,-4.991,-4.9999,-5.0029,-4.9783,-4.9548,-4.9285,-4.9226,-4.9176,-4.8894,-5.0202,-5.1341,-5.1346,-5.2659,-5.3511,-5.2954,-5.2805,-5.243,-5.1659,-5.0765,-5.1564,-5.4953,-5.5583,-5.5214,-5.3961,-5.473,-5.4783,-5.3904,-5.3591,-5.3448,-5.3448,-5.2812,-5.2176,-5.1489,-5.1253,-5.0565,-4.9573,-4.9573,-4.9025,-4.6499,-4.7343,-4.8237,-5.0631,-4.7111,-4.1864,-3.7611,-3.2625,-2.7136,-2.0633,-1.7262,-1.5626,-1.6202,-1.762,-1.9932,-2.3792,-2.808,-3.2583,-3.7162,-4.3629,-4.8421,-4.9728,-5.3215,-5.5556,-5.5886,-5.5906,-5.5764,-5.5469,-5.5519,-5.5715,-5.5954,-5.5812,-5.5569,-5.5319,-5.5446,-5.5269,-5.4781,-5.4496,-5.4658,-5.5201,-5.5369,-5.5618,-5.5954,-5.6048,-5.6233,-5.6501,-5.6814,-5.7296,-5.7946,-5.836,-5.8879,-5.9547,-5.9606,-5.9696,-5.9859,-5.9658,-5.9682,-5.9704,-5.936,-5.9172,-5.897,-5.8321,-5.7498,-5.6787,-5.6751,-5.6603,-5.6488,-5.6564,-5.6738,-5.6541,-5.4934,-5.4176,-5.3674,-5.3274,-5.3363,-5.3483,-5.3411,-5.3314,-5.3195,-5.2929,-5.2948,-5.2929,-5.2646,-5.3058,-5.3337,-5.3248,-5.4417,-5.5156,-5.4858,-5.5465,-5.5877,-5.553,-5.4921,-5.4968,-5.5974,-5.5683,-5.5343,-5.4956,-5.4836,-5.4693,-5.4421,-5.3995,-5.3731,-5.3731,-5.3557,-5.3261,-5.2864,-5.2174,-5.1521,-5.0884,-4.9975,-4.9205,-4.5828,-4.7421,-4.9398,-5.1188,-4.9678,-4.5646,-3.8179,-3.3328,-2.8492,-2.1571,-1.7981,-1.6344,-1.7057,-1.9248,-2.254,-2.7288,-3.1897,-3.6444,-4.0961,-4.6686,-5.0576,-5.1157,-5.4103,-5.6095,-5.6222,-5.586,-5.5667,-5.5618,-5.5569,-5.6195,-5.7613,-5.7534,-5.7049,-5.6161,-5.5828,-5.5408,-5.4781,-5.453,-5.4585,-5.5045,-5.5114,-5.5369,-5.5667,-5.5764,-5.5954,-5.6233,-5.6646,-5.7143,-5.769,-5.8167,-5.8818,-5.9414,-5.9494,-5.9672,-5.9868,-5.9769,-5.9753,-5.9745,-5.9452,-5.9289,-5.9114,-5.8526,-5.8119,-5.7825,-5.7795,-5.7624,-5.7443,-5.7516,-5.7795,-5.7898,-5.7182,-5.6121,-5.5084,-5.4627,-5.4736,-5.4928,-5.484,-5.486,-5.4823,-5.461,-5.4654,-5.4635,-5.4443,-5.4914,-5.5273,-5.5196,-5.6322,-5.7051,-5.6734,-5.7172,-5.7407,-5.7251,-5.6978,-5.6694,-5.6402,-5.619,-5.5835,-5.542,-5.5128,-5.4871,-5.4619,-5.4108,-5.3847,-5.3847,-5.3731,-5.3591,-5.3448,-5.2774,-5.2302,-5.2077,-5.1223,-5.0641,-4.6133,-4.9854,-5.3397,-5.3075,-5.3539,-5.0726,-3.8266,-3.4272,-3.0831,-2.2438,-1.9012,-1.777,-1.8377,-2.1481,-2.581,-3.1578,-3.6505,-4.1839,-4.8009,-5.1331,-5.3622,-5.4969,-5.5399,-5.5667,-5.5907,-5.566,-5.5529,-5.578,-5.592,-5.7257,-6.0052,-6.007,-5.9173,-5.754,-5.7384,-5.6457,-5.4816,-5.4781,-5.4781,-5.4781,-5.5045,-5.5201,-5.5217,-5.5469,-5.5715,-5.6001,-5.6646,-5.714,-5.7588,-5.8167,-5.8759,-5.9252,-5.9271,-5.951,-5.9821,-5.9859,-5.978,-5.9672,-5.952,-5.9339,-5.9066,-5.8796,-5.8563,-5.8313,-5.8057,-5.7795,-5.7694,-5.7862,-5.7961,-5.8125,-5.8718,-5.7741,-5.6312,-5.5143,-5.5066,-5.5232,-5.5261,-5.537,-5.5382,-5.5272,-5.5254,-5.5235,-5.5122,-5.6273,-5.7184,-5.7166,-5.8173,-5.8797,-5.8387,-5.803,-5.7696,-5.7442,-5.7404,-5.7137,-5.6531,-5.6778,-5.6531,-5.56,-5.5455,-5.5179,-5.4746,-5.422,-5.3904,-5.3904,-5.3708,-5.3566,-5.3507,-5.308,-5.2897,-5.2897,-5.2836,-5.2524,-4.9748,-5.0827,-5.2087,-5.3791,-5.4036,-5.1669,-4.3231,-3.7922,-3.2135,-2.3098,-2.0492,-1.9624,-1.8783,-2.3987,-2.8992,-3.0974,-3.8505,-4.5009,-4.7722,-5.1305,-5.3794,-5.4083,-5.4993,-5.5618,-5.5667,-5.6694,-5.7346,-5.7397,-5.8558,-5.9402,-5.9781,-5.8513,-5.7637,-5.7269,-5.6052,-5.5235,-5.4781,-5.4781,-5.4781,-5.4781,-5.4887,-5.4993,-5.5217,-5.5469,-5.5715,-5.6001,-5.6368,-5.6896,-5.7552,-5.7694,-5.8241,-5.8985,-5.911,-5.9307,-5.9582,-5.9697,-5.9784,-5.9801,-5.9659,-5.9547,-5.9382,-5.9088,-5.892,-5.8718,-5.8478,-5.8359,-5.8298,-5.813,-5.823,-5.8448,-5.8675,-5.8547,-5.836,-5.8269,-5.8369,-5.8497,-5.8618,-5.865,-5.8671,-5.8639,-5.8723,-5.8736,-5.8612,-5.8791,-5.8908,-5.88,-5.9025,-5.906,-5.867,-5.8358,-5.8125,-5.7975,-5.7767,-5.7516,-5.7176,-5.6932,-5.6682,-5.6509,-5.5706,-5.5349,-5.5533,-5.4818,-5.4421,-5.4421,-5.44,-5.4198,-5.3731,-5.3141,-5.2897,-5.2836,-5.2654,-5.2111,-5.0367,-5.1706,-5.3118,-5.3968,-5.4031,-5.1724,-4.3431,-3.7404,-3.1582,-2.4666,-2.276,-2.2365,-2.2194,-2.7998,-3.3258,-3.4509,-4.1373,-4.7267,-4.9224,-5.171,-5.3405,-5.3789,-5.4461,-5.4889,-5.5045,-5.628,-5.7184,-5.7347,-5.8476,-5.9967,-6.1835,-6.0976,-5.9725,-5.8233,-5.5759,-5.453,-5.4781,-5.4585,-5.4585,-5.4781,-5.494,-5.5097,-5.5217,-5.5319,-5.5519,-5.5812,-5.6288,-5.6778,-5.7294,-5.7659,-5.8181,-5.8834,-5.8907,-5.9155,-5.9487,-5.9554,-5.9684,-5.9859,-5.9722,-5.9577,-5.9431,-5.9232,-5.9082,-5.897,-5.8766,-5.8712,-5.8648,-5.8441,-5.8507,-5.8629,-5.8755,-5.8833,-5.897,-5.9141,-5.9264,-5.9345,-5.9472,-5.9568,-5.9661,-5.9692,-5.9792,-5.9847,-5.979,-5.9671,-5.9532,-5.9397,-5.9252,-5.9104,-5.8858,-5.8617,-5.8433,-5.814,-5.7905,-5.766,-5.7552,-5.7094,-5.685,-5.685,-5.6116,-5.5728,-5.5776,-5.5233,-5.4906,-5.4906,-5.4727,-5.4476,-5.422,-5.3615,-5.3261,-5.3174,-5.3026,-5.2558,-5.0052,-5.2298,-5.451,-5.381,-5.3578,-5.1596,-4.3962,-3.713,-3.1383,-2.7613,-2.6287,-2.6082,-2.7058,-3.2787,-3.7946,-3.9735,-4.5012,-4.9636,-5.1652,-5.2735,-5.3417,-5.3765,-5.3847,-5.4176,-5.4662,-5.5868,-5.684,-5.7521,-5.7982,-5.9916,-6.3636,-6.3932,-6.2499,-5.9413,-5.6453,-5.4847,-5.4673,-5.4276,-5.4276,-5.4673,-5.501,-5.5201,-5.5201,-5.5303,-5.5469,-5.5715,-5.635,-5.67,-5.6982,-5.7729,-5.8218,-5.8536,-5.8654,-5.8947,-5.9339,-5.9409,-5.9582,-5.979,-5.9672,-5.9577,-5.9468,-5.9327,-5.9206,-5.9066,-5.8946,-5.8884,-5.8896,-5.8766,-5.8712,-5.8739,-5.8858,-5.8884,-5.8946,-5.9066,-5.9089,-5.9134,-5.9247,-5.9435,-5.9606,-5.9684,-5.9759,-5.9863,-5.9869,-5.9755,-5.9633,-5.9517,-5.9271,-5.9088,-5.893,-5.8834,-5.8628,-5.8267,-5.7969,-5.7802,-5.7734,-5.7215,-5.6901,-5.6901,-5.6386,-5.6013,-5.5907,-5.5533,-5.5334,-5.5334,-5.501,-5.4781,-5.4619,-5.4108,-5.3731,-5.3448,-5.3388,-5.3174,-5.1315,-5.2591,-5.3796,-5.3709,-5.3089,-5.2342,-5.1919,-4.3274,-3.4946,-3.3526,-3.2517,-3.1931,-3.2104,-3.7655,-4.2691,-4.4198,-4.9492,-5.3628,-5.4289,-5.5113,-5.5166,-5.3676,-5.3473,-5.4159,-5.5797,-5.7457,-5.9019,-6.0501,-6.0125,-6.0432,-6.1875,-6.3254,-6.2499,-5.9413,-5.8835,-5.7119,-5.4164,-5.4074,-5.4074,-5.413,-5.4871,-5.5201,-5.5252,-5.5667,-5.5907,-5.5954,-5.6517,-5.6778,-5.686,-5.7516,-5.7798,-5.7899,-5.8352,-5.8665,-5.8845,-5.9051,-5.9307,-5.9554,-5.9532,-5.9501,-5.9468,-5.9327,-5.9206,-5.9066,-5.8946,-5.8884,-5.8896,-5.8766,-5.8712,-5.8739,-5.8858,-5.8884,-5.8946,-5.9066,-5.9089,-5.9112,-5.9134,-5.9247,-5.94,-5.9643,-5.979,-5.9871,-5.9865,-5.9733,-5.9639,-5.9494,-5.9363,-5.9175,-5.8954,-5.8968,-5.8957,-5.8654,-5.8278,-5.7965,-5.7766,-5.7173,-5.6802,-5.6802,-5.6197,-5.6001,-5.6278,-5.5954,-5.5728,-5.5728,-5.5631,-5.5319,-5.4619,-5.422,-5.3823,-5.3448,-5.3114,-5.2807,-5.0672,-5.2355,-5.4061,-5.4349,-5.4362,-5.4304,-5.4762,-5.1069,-4.6252,-4.198,-4.0478,-3.9175,-3.6786,-4.0734,-4.4418,-4.4649,-4.8783,-5.2231,-5.2765,-5.32,-5.3484,-5.3456,-5.3174,-5.3444,-5.4533,-5.5776,-5.6956,-5.8003,-5.9042,-5.9923,-6.0581,-6.1091,-6.0349,-5.8164,-5.8095,-5.6682,-5.3742,-5.3439,-5.3557,-5.4074,-5.457,-5.5028,-5.542,-5.5667,-5.586,-5.6001,-5.635,-5.6531,-5.6574,-5.7217,-5.7516,-5.7553,-5.7902,-5.8181,-5.8425,-5.8845,-5.9214,-5.9472,-5.9463,-5.9435,-5.9346,-5.9227,-5.9119,-5.9089,-5.9042,-5.9019,-5.8933,-5.8792,-5.8766,-5.8781,-5.8819,-5.8833,-5.8946,-5.9066,-5.9089,-5.9089,-5.9089,-5.9206,-5.9346,-5.9554,-5.9725,-5.9869,-5.9867,-5.9827,-5.9727,-5.9628,-5.9463,-5.9345,-5.9243,-5.9157,-5.9005,-5.8696,-5.8367,-5.8098,-5.7939,-5.7292,-5.6891,-5.6891,-5.6332,-5.6048,-5.6048,-5.5907,-5.5776,-5.5776,-5.5776,-5.5631,-5.5319,-5.4658,-5.4108,-5.3591,-5.308,-5.2621,-5.0211,-5.2246,-5.4414,-5.5514,-5.6274,-5.6725,-5.6707,-5.6819,-5.5326,-4.9429,-4.7471,-4.5718,-4.2255,-4.4004,-4.6072,-4.6333,-4.8977,-5.128,-5.1964,-5.2039,-5.2278,-5.2891,-5.2554,-5.2624,-5.376,-5.4502,-5.4942,-5.5058,-5.7207,-5.8754,-5.9126,-5.9249,-5.865,-5.7193,-5.7158,-5.5948,-5.3448,-5.3053,-5.3141,-5.3697,-5.4096,-5.4589,-5.5182,-5.5349,-5.5596,-5.5824,-5.6306,-5.6402,-5.6438,-5.7058,-5.729,-5.7215,-5.7516,-5.7792,-5.807,-5.8489,-5.891,-5.9305,-5.9327,-5.9308,-5.921,-5.9157,-5.9089,-5.9066,-5.9089,-5.9089,-5.9066,-5.887,-5.8896,-5.8908,-5.8807,-5.8896,-5.8995,-5.9089,-5.9089,-5.9112,-5.9119,-5.9189,-5.9327,-5.9501,-5.971,-5.984,-5.9858,-5.9867,-5.9827,-5.9733,-5.9583,-5.9477,-5.9477,-5.9281,-5.9052,-5.8809,-5.8424,-5.8193,-5.8204,-5.748,-5.7022,-5.7022,-5.6596,-5.6197,-5.6013,-5.5872,-5.5776,-5.5776,-5.5776,-5.5728,-5.5631,-5.4976,-5.4331,-5.3697,-5.3114,-5.2495,-5.1136,-5.2649,-5.4374,-5.7383,-5.8661,-5.914,-5.914,-5.8504,-5.7176,-5.409,-5.2049,-5.0456,-4.9276,-4.8391,-4.8944,-5.2087,-5.2661,-5.306,-5.3944,-5.4045,-5.3497,-5.1781,-5.1224,-5.2079,-5.4678,-5.5094,-5.4752,-5.3663,-5.5421,-5.674,-5.7262,-5.858,-5.865,-5.7193,-5.7158,-5.5948,-5.3448,-5.3448,-5.3174,-5.2774,-5.3498,-5.3904,-5.3961,-5.4836,-5.5244,-5.5294,-5.6314,-5.6603,-5.6448,-5.7054,-5.7137,-5.6819,-5.7215,-5.7516,-5.7764,-5.7928,-5.835,-5.893,-5.8933,-5.8991,-5.9088,-5.9074,-5.9019,-5.8946,-5.9066,-5.9089,-5.9089,-5.9089,-5.9089,-5.9089,-5.9089,-5.9089,-5.9089,-5.9089,-5.9089,-5.9157,-5.923,-5.927,-5.9364,-5.9619,-5.9659,-5.9746,-5.9868,-5.9853,-5.9865,-5.9868,-5.9646,-5.9478,-5.9478,-5.9343,-5.9243,-5.9112,-5.859,-5.83,-5.83,-5.7694,-5.7328,-5.7328,-5.6968,-5.6718,-5.6718,-5.6105,-5.5776,-5.5776,-5.5776,-5.5631,-5.5198,-5.4819,-5.4446,-5.4017,-5.2931,-5.2498,-5.0207,-5.1717,-5.3528,-5.666,-5.7603,-5.802,-5.9062,-5.8919,-5.7779,-5.457,-5.4082,-5.3347,-5.0465,-5.0003,-5.0112,-5.0369,-5.069,-5.1044,-5.1656,-5.1708,-5.1769,-5.1882,-5.148,-5.1798,-5.3332,-5.3098,-5.285,-5.305,-5.4188,-5.4944,-5.5143,-5.5959,-5.6187,-5.5701,-5.5667,-5.495,-5.3448,-5.3448,-5.3053,-5.2207,-5.2836,-5.338,-5.387,-5.4626,-5.5042,-5.5244,-5.6161,-5.6457,-5.6404,-5.6632,-5.6675,-5.6553,-5.6855,-5.7022,-5.7143,-5.7727,-5.8167,-5.8495,-5.833,-5.8546,-5.8821,-5.8833,-5.8819,-5.8755,-5.8807,-5.8884,-5.897,-5.8858,-5.8933,-5.9089,-5.8995,-5.9042,-5.9089,-5.9089,-5.9089,-5.9112,-5.9141,-5.9289,-5.9452,-5.9547,-5.971,-5.9801,-5.9868,-5.9866,-5.9853,-5.987,-5.9673,-5.9531,-5.9583,-5.9489,-5.9363,-5.9213,-5.8962,-5.8709,-5.8471,-5.8088,-5.7692,-5.7366,-5.6814,-5.6481,-5.6481,-5.5836,-5.5449,-5.5574,-5.5449,-5.5249,-5.4819,-5.4677,-5.4241,-5.3371,-5.2958,-5.2495,-5.059,-5.1983,-5.3505,-5.7254,-5.7676,-5.7653,-5.9383,-5.9592,-5.8804,-5.6547,-5.628,-5.5616,-5.2801,-5.164,-5.0745,-4.9823,-4.9664,-4.974,-4.9531,-4.9624,-5.0022,-5.089,-5.0662,-5.0886,-5.2013,-5.1752,-5.1843,-5.2534,-5.3261,-5.3765,-5.3997,-5.4381,-5.4642,-5.4781,-5.4781,-5.4365,-5.3448,-5.3448,-5.2931,-5.1883,-5.2271,-5.2712,-5.3227,-5.4117,-5.4573,-5.4784,-5.5824,-5.6268,-5.6268,-5.6359,-5.6359,-5.6404,-5.6553,-5.6688,-5.6819,-5.7333,-5.7752,-5.8033,-5.8088,-5.8352,-5.8657,-5.8675,-5.8712,-5.8702,-5.8766,-5.8807,-5.8921,-5.8833,-5.8946,-5.9019,-5.8908,-5.8933,-5.9019,-5.8995,-5.8933,-5.8957,-5.9028,-5.9189,-5.9327,-5.9447,-5.9595,-5.978,-5.9868,-5.9849,-5.9792,-5.9809,-5.9641,-5.9595,-5.9665,-5.9596,-5.9459,-5.9327,-5.9192,-5.9,-5.8659,-5.8321,-5.7956,-5.7625,-5.7022,-5.6736,-5.6736,-5.5999,-5.5526,-5.5407,-5.5329,-5.5061,-5.4642,-5.4496,-5.4017,-5.3253,-5.2897,-5.2431,-5.2448,-5.3393,-5.4254,-5.9136,-5.8928,-5.8016,-5.9906,-6.0442,-6.0432,-6.0068,-5.8642,-5.7252,-5.6613,-5.3538,-5.1016,-5.0954,-5.0304,-4.9328,-4.8084,-4.823,-4.8538,-4.8799,-4.8873,-4.9396,-5.0769,-5.1227,-5.1687,-5.2039,-5.2534,-5.3187,-5.3978,-5.4051,-5.4312,-5.4781,-5.4781,-5.44,-5.3448,-5.3448,-5.2931,-5.1883,-5.1883,-5.1883,-5.1949,-5.3227,-5.3789,-5.3961,-5.5349,-5.5954,-5.6001,-5.6268,-5.6359,-5.6359,-5.6359,-5.6509,-5.6736,-5.6736,-5.7101,-5.7624,-5.823,-5.8485,-5.8515,-5.8657,-5.8712,-5.8702,-5.8807,-5.8858,-5.8921,-5.9042,-5.8995,-5.8921,-5.8921,-5.8921,-5.8833,-5.8739,-5.8712,-5.8729,-5.8858,-5.8907,-5.9007,-5.9372,-5.9472,-5.9568,-5.9801,-5.9757,-5.9659,-5.9659,-5.9671,-5.967,-5.9683,-5.9669,-5.9565,-5.9345,-5.9192,-5.9066,-5.893,-5.8434,-5.8119,-5.8108,-5.7625,-5.7328,-5.7366,-5.6736,-5.6064,-5.542,-5.5407,-5.5128,-5.4565,-5.422,-5.3904,-5.3615,-5.2841,-5.2273,-4.943,-4.9422,-4.9445,-5.222,-5.2661,-5.2506,-5.2936,-5.521,-5.7415,-5.7761,-5.861,-5.8581,-5.6316,-5.5025,-5.3573,-5.1388,-5.0333,-4.9607,-4.9283,-4.9287,-4.953,-5.0008,-4.9936,-4.9762,-4.9416,-5.0125,-5.0848,-5.1239,-5.1916,-5.2516,-5.305,-5.3684,-5.4116,-5.4276,-5.4276,-5.3995,-5.3448,-5.3053,-5.2558,-5.1883,-5.1883,-5.1883,-5.1883,-5.2238,-5.2925,-5.387,-5.4767,-5.5449,-5.6001,-5.6048,-5.6187,-5.6359,-5.6359,-5.6413,-5.6501,-5.6652,-5.7022,-5.7443,-5.78,-5.8066,-5.8199,-5.8034,-5.813,-5.8261,-5.8098,-5.8322,-5.8629,-5.8685,-5.8702,-5.8766,-5.8766,-5.8766,-5.8729,-5.8702,-5.8712,-5.8739,-5.8755,-5.8846,-5.8954,-5.9051,-5.9233,-5.936,-5.9426,-5.9494,-5.9547,-5.9547,-5.9522,-5.9568,-5.9657,-5.9741,-5.9763,-5.9577,-5.9532,-5.9397,-5.908,-5.8771,-5.8407,-5.8119,-5.766,-5.7404,-5.7626,-5.6819,-5.6145,-5.5695,-5.5209,-5.4608,-5.38,-5.3881,-5.3498,-5.2779,-5.2745,-5.2495,-4.2835,-4.3517,-4.4285,-4.6607,-4.6553,-4.6833,-5.0098,-5.197,-5.347,-5.5311,-5.7085,-5.7843,-5.6676,-5.6113,-5.515,-5.3293,-5.1843,-5.0661,-4.9932,-4.9155,-4.8913,-4.9373,-4.9283,-4.9113,-4.8821,-4.9287,-5.0003,-5.0618,-5.1282,-5.1849,-5.2387,-5.3057,-5.3606,-5.3824,-5.3983,-5.3731,-5.3114,-5.3053,-5.2683,-5.1883,-5.1883,-5.1883,-5.1883,-5.1883,-5.2428,-5.3405,-5.4283,-5.4975,-5.5498,-5.586,-5.6141,-5.6359,-5.6359,-5.6359,-5.6404,-5.6688,-5.7022,-5.7443,-5.7624,-5.7969,-5.823,-5.7969,-5.8066,-5.823,-5.8103,-5.8267,-5.8515,-5.8572,-5.8601,-5.8629,-5.8629,-5.8629,-5.8564,-5.8507,-5.8441,-5.8441,-5.8441,-5.8518,-5.8617,-5.8772,-5.8985,-5.9155,-5.9271,-5.9345,-5.94,-5.94,-5.9458,-5.951,-5.9657,-5.9795,-5.9866,-5.9772,-5.9695,-5.9562,-5.9287,-5.9035,-5.8709,-5.8321,-5.7899,-5.7698,-5.7735,-5.7098,-5.6488,-5.5835,-5.5308,-5.452,-5.3448,-5.3414,-5.3053,-5.2498,-5.2143,-5.1719,-3.4373,-3.6381,-3.8778,-4.1255,-4.0524,-4.0999,0.0,-4.8622,-4.8725,-5.264,-5.4178,-5.5213,-5.6606,-5.6387,-5.5842,-5.5483,-5.4074,-5.2361,-5.066,-4.8929,-4.7859,-4.8013,-4.7959,-4.8149,-4.8652,-4.8783,-4.9228,-5.0255,-5.0713,-5.1218,-5.2009,-5.2461,-5.2906,-5.3367,-5.3767,-5.3581,-5.265,-5.3114,-5.2869,-5.1883,-5.1883,-5.1883,-5.1883,-5.1883,-5.2143,-5.265,-5.3721,-5.4392,-5.4767,-5.5583,-5.613,-5.6359,-5.6359,-5.6359,-5.6404,-5.673,-5.714,-5.7552,-5.7694,-5.8103,-5.8456,-5.8167,-5.823,-5.8419,-5.8456,-5.8456,-5.8485,-5.8564,-5.8535,-5.8456,-5.8456,-5.8456,-5.8389,-5.8199,-5.8098,-5.8098,-5.8098,-5.813,-5.8254,-5.8628,-5.8809,-5.8977,-5.9195,-5.9232,-5.927,-5.9289,-5.944,-5.9562,-5.9689,-5.9795,-5.9869,-5.9871,-5.9759,-5.9629,-5.9517,-5.9232,-5.8893,-5.8543,-5.8224,-5.7944,-5.7698,-5.7441,-5.6819,-5.5789,-5.5552,-5.4749,-5.3507,-5.2897,-5.2558,-5.2434,-5.1253,-5.0565,0.0,0.0,0.0,0.0,0.0,0.0,0.0,-3.8293,-4.2059,-4.8608,-4.9952,-5.0306,-5.1448,-5.3777,-5.5378,-5.4847,-5.5698,-5.5616,-5.3429,-5.2171,-5.1018,-4.9734,-4.8957,-4.8483,-4.8064,-4.8514,-4.9193,-5.026,-5.0745,-5.1133,-5.1452,-5.2221,-5.2703,-5.2818,-5.3319,-5.327,-5.265,-5.2807,-5.2558,-5.1883,-5.1883,-5.1883,-5.1883,-5.1883,-5.1949,-5.2078,-5.2741,-5.3261,-5.3823,-5.5131,-5.5954,-5.6359,-5.6359,-5.6359,-5.6448,-5.7014,-5.7254,-5.7443,-5.7902,-5.8135,-5.8167,-5.7902,-5.7969,-5.8167,-5.7935,-5.8034,-5.8167,-5.7969,-5.8034,-5.813,-5.7935,-5.8034,-5.8199,-5.8167,-5.8098,-5.8098,-5.8098,-5.8261,-5.8448,-5.8507,-5.8729,-5.8933,-5.8944,-5.9052,-5.9206,-5.9418,-5.957,-5.9684,-5.9811,-5.9863,-5.986,-5.9882,-5.9745,-5.9657,-5.9643,-5.9097,-5.8759,-5.8647,-5.7928,-5.7515,-5.7441,-5.7176,-5.6538,-5.5504,-5.542,-5.4853,-5.3789,-5.2952,-5.2395,-5.2143,-5.1153,-5.0323,0.0,0.0,0.0,0.0,0.0,0.0,0.0,0.0,0.0,0.0,0.0,-4.3544,-4.6573,0.0,-5.187,-5.5095,-5.5182,-5.4931,-5.5144,-5.346,-5.2001,-5.1447,-4.9574,-4.8345,-4.8328,-4.8574,-4.9143,-4.998,-5.0603,-5.095,-5.1133,-5.185,-5.2291,-5.2299,-5.2804,-5.2838,-5.2271,-5.2554,-5.2428,-5.1883,-5.1883,-5.1818,-5.162,-5.1818,-5.1818,-5.162,-5.2078,-5.2745,-5.3473,-5.4352,-5.5334,-5.6176,-5.6176,-5.6268,-5.6404,-5.676,-5.7134,-5.748,-5.7729,-5.8034,-5.8298,-5.8167,-5.8135,-5.8098,-5.7969,-5.8098,-5.8298,-5.8167,-5.8261,-5.8352,-5.8167,-5.8261,-5.8352,-5.8162,-5.8291,-5.8382,-5.8359,-5.8448,-5.8601,-5.8601,-5.8755,-5.8884,-5.8884,-5.9052,-5.9307,-5.9547,-5.9619,-5.9722,-5.9859,-5.9885,-5.8914,-5.6338,-5.6036,-5.5975,-5.5906,-5.5584,-5.6413,-5.8729,-5.8057,-5.748,-5.7328,-5.6855,-5.6181,-5.5455,-5.4956,-5.4248,-5.338,-5.2172,-5.1588,-5.1554,-5.0284,-4.9416,0.0,0.0,0.0,0.0,0.0,0.0,0.0,0.0,0.0,0.0,0.0,0.0,0.0,0.0,0.0,-5.3398,-5.3547,-5.3695,-5.5896,-5.3581,-5.1934,-5.2607,-5.001,-4.8329,-4.8744,-4.8814,-4.9049,-4.9689,-5.0499,-5.095,-5.0944,-5.155,-5.1883,-5.1883,-5.2406,-5.2467,-5.1883,-5.2299,-5.2299,-5.1883,-5.1883,0.0,-5.1353,-5.1752,-5.1686,-5.1353,-5.1752,-5.2461,-5.3507,-5.3731,-5.4589,-5.5812,-5.586,-5.6095,-5.6404,-5.6413,-5.6896,-5.7552,-5.7624,-5.8034,-5.8544,-5.8515,-5.8359,-5.8199,-5.8167,-5.8291,0.0,-5.8419,-5.8535,-5.8648,-5.8478,-5.8564,-5.862,-5.8322,-5.847,-5.8685,-5.8572,-5.8657,-5.8766,-5.8766,-5.8833,-5.8933,-5.8957,-5.9189,-5.9113,-5.8362,-5.9079,-5.9417,-5.8533,-5.93,-5.828,-5.4213,-5.3746,-5.3716,-5.3591,-5.2395,-5.3736,-5.8708,-5.708,-5.5795,-5.5477,-5.4726,-5.4077,-5.3516,-5.2685,-5.2517,-5.2992,-5.1488,-5.0811,-5.0948,-4.6862,-4.5662,0.0,0.0,0.0,0.0,0.0,0.0,0.0,0.0,0.0,0.0,0.0,0.0,0.0,0.0,0.0,0.0,-5.1452,-5.5089,-5.4734,-5.2462,-5.1192,-5.2038,-5.0443,-4.9075,-4.8804,-4.879,-4.9049,-4.972,-5.0482,-5.093,-5.0912,-5.155,0.0,0.0,0.0,-5.2467,-5.1883,-5.1949,-5.1949,-5.1883,-5.1883,-5.1686,-5.1353,-5.1752,-5.1686,-5.1353,-5.1752,-5.2461,-5.3507,-5.3731,-5.4407,-5.5354,-5.5519,-5.5907,-5.6368,-5.6603,-5.7061,-5.7588,-5.7795,0.0,0.0,-5.8544,-5.8485,-5.8456,-5.8199,-5.8291,-5.8419,-5.8093,-5.8345,-5.862,-5.8241,-5.8433,-5.8675,-5.8648,-5.8648,-5.8712,-5.8712,-5.8755,-5.8896,-5.8896,-5.8957,-5.9134,-5.9247,-5.9468,-5.8148,-5.3792,-5.6962,-5.8259,-5.3896,-5.7133,-5.9645,-5.9072,-5.9002,0.0,-5.8826,-5.3402,-5.2538,-5.8373,-5.303,-4.9345,-4.877,-4.806,-4.7429,-4.6803,-4.6211,-4.842,-5.3388,-5.1621,-5.0742,-5.0452,-3.7875,-3.5172,0.0,0.0,0.0,0.0,0.0,0.0,0.0,0.0,0.0,0.0,0.0,0.0,0.0,0.0,0.0,0.0,-4.641,-4.8319,-4.8224,-5.0342,-5.1817,-5.1692,-5.0994,-5.0355,-4.974,-4.9666,-4.9686,-4.9751,-5.045,-5.094,-5.094,-5.1586,-5.1883,-5.1883,-5.2105,-5.2105,-5.1883,-5.1883,-5.1883,-5.1883,-5.1883,-5.1353,-5.045,-5.1045,-5.1182,-5.094,-5.2014,-5.2712,-5.3174,-5.3731,-5.4461,-5.5354,0.0,0.0,0.0,0.0,-5.6941,-5.7552,-5.7924,-5.8278,-5.8629,-5.8712,-5.8657,-5.8485,-5.8389,-5.8478,-5.8564,-5.8441,-5.8638,-5.8884,-5.8628,-5.8809,-5.9014,-5.8871,-5.8944,-5.9037,-5.9044,-5.9014,-5.9028,-5.9119,-5.9184,0.0,-5.9506,-5.9532,-5.8902,-5.7,-5.8448,-5.9054,-5.701,-5.8585,-5.8743,-5.5787,-5.5454,-5.5439,-5.539,-5.2823,0.0,0.0,0.0,-5.4046,-5.3117,-5.2779,0.0,0.0,0.0,-4.5194,-4.644,-4.172,0.0,0.0,-3.4481,-3.273,0.0,0.0,0.0,0.0,0.0,0.0,0.0,0.0,0.0,0.0,0.0,0.0,0.0,0.0,0.0,0.0,-4.1303,-4.2956,-4.3144,-4.7054,-4.9827,-4.9709,-5.0211,-5.005,-4.8653,-4.9544,-5.0075,-4.9823,-5.0747,-5.125,-5.125,-5.162,-5.1883,-5.1883,-5.1883,-5.1883,-5.1883,-5.1883,-5.1883,-5.1883,-5.1883,-5.115,-4.9793,-5.0769,-5.1009,-5.0694,-5.1818,-5.2774,-5.3439,-5.4051,-5.4639,-5.5252,-5.5469,-5.5907,-5.6359,-5.6359,-5.6724,-5.7332,-5.802,-5.8461,-5.8675,-5.8807,-5.8729,-5.8601,-5.8544,-5.8601,-5.8712,-5.8712,-5.8884,-5.9074,-5.9028,-5.9168,-5.9308,-5.911,-5.9192,-5.9346,-5.9345,-5.9289,-5.9227,-5.9327,-5.936,-5.9449,-5.9621,-5.9606,-5.9139,-5.8022,-5.8882,-5.9223,-5.8001,-5.9044,-5.845,-5.4744,-5.4353,-5.4377,-5.4366,-5.2646,-5.366,-5.8496,-5.6996,-5.6282,-5.7109,-5.5397,-5.3789,-5.2505,-4.6711,-4.279,0.0,0.0,0.0,0.0,0.0,0.0,0.0,0.0,0.0,0.0,0.0,0.0,0.0,0.0,0.0,0.0,0.0,0.0,0.0,0.0,0.0,0.0,0.0,0.0,-4.1889,-4.2434,-4.3542,-4.5252,-4.7175,-4.7184,-4.4194,-4.7619,-4.9958,-4.992,-5.129,-5.2048,-5.2074,-5.1982,-5.1883,-5.1883,-5.1883,-5.1883,-5.1883,-5.1883,-5.1883,-5.1883,-5.1883,-5.115,-4.9793,-5.1218,-5.1487,-5.094,-5.1009,-5.2428,-5.4727,-5.4781,-5.4781,-5.4887,-5.5404,-5.5907,-5.6359,-5.6359,-5.6404,-5.6596,-5.8162,-5.8833,-5.9028,-5.8784,-5.8796,-5.8833,-5.8601,-5.8601,-5.8712,-5.8712,-5.8896,-5.911,-5.925,-5.9382,-5.9485,-5.9485,-5.9485,-5.9485,-5.9485,-5.9485,-5.9452,-5.9495,-5.958,-5.9695,-5.9697,-5.967,-5.806,-5.3423,-5.6672,0.0,-5.3318,-5.6909,-5.9815,-5.9668,-5.9646,-5.9632,-5.9624,-5.3613,-5.2478,-5.8676,-5.2652,-5.1562,-5.7438,-5.1372,-4.7668,-4.7092,-4.391,-4.132,-3.951,0.0,0.0,0.0,0.0,0.0,0.0,0.0,0.0,0.0,0.0,0.0,0.0,0.0,0.0,0.0,0.0,0.0,0.0,0.0,0.0,0.0,0.0,0.0,0.0,-3.9453,-4.2084,-4.2535,-4.5006,-4.5193,-4.152,-4.4194,-4.6097,-4.5836,-4.9091,-5.0884,-5.0573,-5.1779,-5.2268,-5.1883,-5.1883,-5.1883,-5.1883,-5.1883,-5.2554,-5.3847,-5.3847,-5.2395,-4.9793,-5.0237,-5.0379,-5.0269,-5.2521,-5.3961,-5.4781,-5.4781,-5.4781,-5.4834,-5.4993,-5.5166,-5.5319,-5.5319,-5.5764,-5.6545,-5.7865,-5.8665,-5.885,-5.7403,-5.6824,-5.6562,-5.579,-5.558,-5.5854,-5.698,-5.7419,-5.7806,-5.9099,-5.9517,-5.9606,-5.9606,-5.9606,-5.9633,-5.9696,-5.9608,-5.9502,-5.9585,-5.6994,-5.4465,-5.3431,-5.6807,-5.7655,-5.1711,-5.5855,-5.9092,-5.7592,-5.8926,-6.0024,-6.0003,-6.002,-5.9955,-5.9855,-5.7782,-5.7209,-5.8991,-5.6858,-5.6229,-5.7657,-5.5508,-5.3387,-5.1386,-5.0138,-4.4522,-3.4289,0.0,0.0,0.0,0.0,0.0,0.0,0.0,0.0,0.0,0.0,0.0,0.0,0.0,0.0,0.0,0.0,0.0,0.0,0.0,0.0,0.0,0.0,0.0,0.0,0.0,0.0,-4.1715,-4.2798,0.0,-3.8542,-3.9811,-4.1095,-4.1456,-4.5132,-4.7601,-4.8194,-4.998,-5.1048,-5.1181,-5.1126,-5.1364,-5.1883,-5.1883,-5.2864,-5.4781,-5.4781,-5.3287,-5.0521,-5.0521,-5.0521,-5.0699,-5.3581,-5.4781,-5.4781,-5.4051,-5.3823,-5.3642,-5.2149,-5.1773,-5.2063,-5.2063,-5.3858,-5.6545,-5.7694,-5.6886,-5.5529,-5.6729,-5.4819,-5.1988,-5.1281,-5.0008,-4.9372,-5.2217,-5.3118,-5.3917,-5.6963,-5.7883,-5.7995,-5.7995,-5.7995,-5.8055,-5.8107,-5.701,-5.6393,-5.7734,-5.5423,-5.2353,-4.9564,-5.2496,-5.4046,-5.0476,-5.3439,-5.7001,-5.9541,-5.9948,-5.9987,-5.9985,-6.0062,-6.0006,-5.9904,-5.9882,-5.9705,-5.9275,-5.914,-5.8768,-5.8027,-5.7215,-5.5117,-5.1582,-4.936,-4.2801,0.0,0.0,0.0,0.0,0.0,0.0,0.0,0.0,0.0,0.0,0.0,0.0,0.0,0.0,0.0,0.0,0.0,0.0,0.0,0.0,0.0,0.0,0.0,0.0,0.0,0.0,0.0,-4.1937,-4.0245,0.0,0.0,0.0,0.0,-3.6947,-3.9664,-4.231,-4.4808,-4.6511,-4.8003,-4.9411,-4.9237,-5.0019,-5.185,-5.1883,-5.2836,-5.4673,-5.4673,-5.3673,-5.1818,-5.1949,-5.2078,-5.2143,-5.3904,-5.4673,-5.4496,-5.2467,-5.168,-5.1178,-4.632,-4.4891,-4.5558,-4.5594,-4.9982,-5.6044,-5.7255,-5.3673,-4.9741,-5.6434,-5.2928,-4.6061,-4.5907,-4.2672,0.0,0.0,-4.6348,-4.7458,-5.2825,-5.4424,-5.468,-5.4945,-5.4983,-5.4983,-5.4974,-5.2381,-5.0872,-5.3802,-5.4234,-5.243,-4.7191,0.0,-4.7113,-4.8589,-4.9194,-5.1878,-5.8512,-5.9677,-5.9872,-5.9872,-5.9986,-6.0019,-5.9885,-5.9866,-5.9745,-5.9501,-5.9243,-5.8896,-5.8395,-5.6023,-5.2317,-4.7389,-4.1678,0.0,0.0,0.0,0.0,0.0,0.0,0.0,0.0,0.0,0.0,0.0,0.0,0.0,0.0,0.0,0.0,0.0,0.0,0.0,0.0,0.0,0.0,0.0,0.0,0.0,0.0,-3.1116,-3.2216,-3.3756,-3.3578,-3.1646,0.0,0.0,0.0,0.0,0.0,0.0,-3.7063,-3.9759,-4.1579,-4.2132,-4.275,-4.59,-5.1818,-5.1883,-5.2143,-5.2616,-5.2616,-5.185,-5.0379,-5.2891,-5.4051,-5.3995,-5.308,-5.2616,-5.2406,-4.9491,-4.8307,-4.6926,-3.3101,-2.6609,-2.4972,-2.576,-3.5961,-4.9605,-5.0664,-5.0138,-4.9343,-5.1145,-5.0447,-4.8836,-4.8443,0.0,0.0,0.0,0.0,-3.9326,-4.6887,-4.8899,-4.9925,-5.3797,-5.4708,-5.4746,-5.4818,-5.4137,-5.193,-4.6511,-4.344,-3.9344,-3.1916,-3.4725,0.0,-3.3674,-4.1605,-4.9044,-5.2083,-5.6909,-6.0024,-6.0024,-6.0062,-6.0023,-5.9905,-5.9874,-5.9785,-5.9629,-5.9479,-5.8595,-5.6847,-5.2658,-4.7885,-4.2532,0.0,0.0,0.0,0.0,0.0,0.0,0.0,0.0,0.0,0.0,0.0,0.0,0.0,0.0,0.0,0.0,0.0,0.0,0.0,0.0,0.0,0.0,0.0,0.0,0.0,0.0,0.0,-2.6581,-2.9484,-3.1668,-3.026,-2.7975,0.0,0.0,0.0,0.0,0.0,0.0,0.0,0.0,0.0,-3.3061,-3.5768,-4.1123,-4.9111,-4.9178,-4.9178,-4.9212,-5.1895,-5.1369,-4.8037,-4.9975,-5.2252,-5.4727,-5.3673,-5.1625,-4.8998,-4.6446,-4.0901,-3.3081,0.0,0.0,0.0,0.0,-2.6929,-3.8502,-3.6604,-4.1742,-4.9185,-4.9185,0.0,0.0,0.0,0.0,0.0,0.0,0.0,-3.7438,-4.2125,-4.553,-4.8453,-5.1423,-5.2244,-5.2382,-5.25,-4.8379,-4.329,-3.8679,-3.5657,-3.1716,-2.4848,-2.6782,0.0,0.0,0.0,-4.3832,-4.9165,-5.5176,-5.9264,-5.9986,-6.0062,-6.0022,-5.9896,-5.9868,-5.952,-5.8613,-5.8449,-5.6426,-5.2103,-4.7747,-4.1964,0.0,0.0,0.0,0.0,0.0,0.0,0.0,0.0,0.0,0.0,0.0,0.0,0.0,0.0,0.0,0.0,0.0,0.0,0.0,0.0,0.0,0.0,0.0,0.0,0.0,0.0,0.0,0.0,0.0,-2.8351,-3.103,0.0,0.0,0.0,0.0,0.0,0.0,0.0,0.0,0.0,0.0,0.0,0.0,0.0,-3.4161,-4.2173,-4.2243,-4.3375,-4.5703,-5.1039,-5.0796,-4.5668,-4.5668,-4.7308,-5.0201,-5.2847,0.0,-4.5371,-4.1552,0.0,0.0,0.0,0.0,0.0,0.0,0.0,0.0,0.0,0.0,0.0,0.0,0.0,0.0,0.0,0.0,0.0,0.0,0.0,0.0,0.0,0.0,-4.6197,-4.6581,-4.73,-4.7743,-4.7001,-3.8666,-3.1143,-3.0498,-2.9278,-2.6688,0.0,0.0,0.0,0.0,0.0,0.0,-4.6914,-5.3597,-5.8085,-5.9568,-5.991,-6.0017,-5.9896,-5.9644,-5.8864,-5.7241,-5.6019,-5.2471,-4.6073,-4.2225,0.0,0.0,0.0,0.0,0.0,0.0,0.0,0.0,0.0,0.0,0.0,0.0,0.0,0.0,0.0,0.0,0.0,0.0,0.0,0.0,0.0,0.0,0.0,0.0,0.0,0.0,0.0,0.0,0.0,0.0,0.0,0.0,0.0,0.0,0.0,0.0,0.0,0.0,0.0,0.0,0.0,0.0,0.0,0.0,0.0,0.0,0.0,0.0,0.0,0.0,-4.6742,-4.6708,-4.5668,-4.5668,-3.8159,-2.6029,-4.2515,-4.8138,-4.449,-2.8922,0.0,0.0,0.0,0.0,0.0,0.0,0.0,0.0,0.0,0.0,0.0,0.0,0.0,0.0,0.0,0.0,0.0,0.0,0.0,0.0,0.0,0.0,-3.2504,-3.4038,-3.7435,-3.8936,-3.3667,0.0,0.0,0.0,0.0,0.0,0.0,0.0,0.0,0.0,0.0,0.0,-3.8748,-4.9896,-5.7539,-5.7935,-5.9226,-6.0003,-5.9897,-5.8575,-5.7615,-5.7165,-5.0672,-4.5519,0.0,0.0,0.0,0.0,0.0,0.0,0.0,0.0,0.0,0.0,0.0,0.0,0.0,0.0,0.0,0.0,0.0,0.0,0.0,0.0,0.0,0.0,0.0,0.0,0.0,0.0,0.0,0.0,0.0,0.0,0.0,0.0,0.0,0.0,0.0,0.0,0.0,0.0,0.0,0.0,0.0,0.0,0.0,0.0,0.0,0.0,0.0,0.0,0.0,0.0,0.0,0.0,0.0,0.0,0.0,0.0,0.0,0.0,-2.5817,-2.9902,0.0,0.0,0.0,0.0,0.0,0.0,0.0,0.0,0.0,0.0,0.0,0.0,0.0,0.0,0.0,0.0,0.0,0.0,0.0,0.0,0.0,0.0,0.0,0.0,0.0,0.0,0.0,0.0,0.0,0.0,0.0,0.0,0.0,0.0,0.0,0.0,0.0,0.0,0.0,0.0,-3.6484,-4.8217,-5.6469,-5.7441,-5.9037,-5.9658,-5.8626,-5.7817,-5.5424,-5.096,-4.6122,0.0,0.0,0.0,0.0,0.0,0.0,0.0,0.0,0.0,0.0,0.0,0.0,0.0,0.0,0.0,0.0,0.0,0.0,0.0,0.0,0.0,0.0,0.0,0.0,0.0,0.0,0.0,0.0,0.0,0.0,0.0,0.0,0.0,0.0,0.0,0.0,0.0,0.0,0.0,0.0,0.0,0.0,0.0,0.0,0.0,0.0,0.0,0.0,0.0,0.0,0.0,0.0,0.0,0.0,0.0,0.0,0.0,0.0,0.0,-1.2147,-1.2828,0.0,0.0,0.0,0.0,0.0,0.0,0.0,0.0,0.0,0.0,0.0,0.0,0.0,0.0,0.0,0.0,0.0,0.0,0.0,0.0,0.0,0.0,0.0,0.0,0.0,0.0,0.0,0.0,0.0,0.0,0.0,0.0,0.0,0.0,0.0,0.0,0.0,0.0,0.0,0.0,-3.5835,-4.6992,-5.512,-5.6834,-5.8505,-5.8947,-5.7444,-5.7016,-5.3333,-4.5217,-4.1456,0.0,0.0,0.0,0.0,0.0,0.0,0.0,0.0,0.0,0.0,0.0,0.0,0.0,0.0,0.0,0.0,0.0,0.0,0.0,0.0,0.0,0.0,0.0,0.0,0.0,0.0,0.0,0.0,0.0,0.0,0.0,0.0,0.0,0.0,0.0,0.0,0.0,0.0,0.0,0.0,0.0,0.0,0.0,0.0,0.0,0.0,0.0,0.0,0.0,0.0,0.0,0.0,0.0,0.0,0.0,0.0,0.0,0.0,0.0,0.0,0.0,0.0,0.0,0.0,0.0,0.0,0.0,0.0,0.0,0.0,0.0,0.0,0.0,0.0,0.0,0.0,0.0,0.0,0.0,0.0,0.0,0.0,0.0,0.0,0.0,0.0,0.0,0.0,0.0,0.0,0.0,0.0,0.0,0.0,0.0,0.0,0.0,0.0,0.0,0.0,0.0,-3.4376,-4.5279,-5.3341,-5.505,-5.6759,-5.767,-5.7364,-5.5931,-5.2113,-4.5143,0.0,0.0,0.0,0.0,0.0,0.0,0.0,0.0,0.0,0.0,0.0,0.0,0.0,0.0,0.0,0.0,0.0,0.0,0.0,0.0,0.0,0.0,0.0,0.0,0.0,0.0,0.0,0.0,0.0,0.0,0.0,0.0,0.0,0.0,0.0,0.0,0.0,0.0,0.0,0.0,0.0,0.0,0.0,0.0,0.0,0.0,0.0,0.0,0.0,0.0,0.0,0.0,0.0,0.0,0.0,0.0,0.0,0.0,0.0,0.0,0.0,0.0,0.0,0.0,0.0,0.0,0.0,0.0,0.0,0.0,0.0,0.0,0.0,0.0,0.0,0.0,0.0,0.0,0.0,0.0,0.0,0.0,0.0,0.0,0.0,0.0,0.0,0.0,0.0,0.0,0.0,0.0,0.0,0.0,0.0,0.0,0.0,0.0,0.0,0.0,0.0,0.0,-3.4165,-4.505,-5.3114,-5.4822,-5.562,-5.5999,-5.5961,-5.438,-4.9234,-3.9346,0.0,0.0,0.0,0.0,0.0,0.0,0.0,0.0,0.0,0.0,0.0,0.0,0.0,0.0,0.0,0.0,0.0,0.0,0.0,0.0,0.0,0.0,0.0,0.0,0.0,0.0,0.0,0.0,0.0,0.0,0.0,0.0,0.0,0.0,0.0,0.0,0.0,0.0,0.0,0.0,0.0,0.0,0.0,0.0,0.0,0.0,0.0,0.0,0.0,0.0,0.0,0.0,0.0,0.0,0.0,0.0,0.0,0.0,0.0,0.0,0.0,0.0,0.0,0.0,0.0,0.0,0.0,0.0,0.0,0.0,0.0,0.0,0.0,0.0,0.0,0.0,0.0,0.0,0.0,0.0,0.0,0.0,0.0,0.0,0.0,0.0,0.0,0.0,0.0,0.0,0.0,0.0,0.0,0.0,0.0,0.0,0.0,0.0,0.0,0.0,0.0,0.0,-3.4232,-4.4655,-5.238,-5.4063,-5.4291,-5.4289,-5.4272,-5.3166,-4.7424,-3.5544,0.0,0.0,0.0,0.0,0.0,0.0,0.0,0.0,0.0,0.0,0.0,0.0,0.0,0.0,0.0,0.0,0.0,0.0,0.0,0.0,0.0,0.0,0.0,0.0,0.0,0.0,0.0,0.0,0.0,0.0,0.0,0.0,0.0,0.0,0.0,0.0,0.0,0.0,0.0,0.0,0.0,0.0,0.0,0.0,0.0,0.0,0.0,0.0,0.0,0.0,0.0,0.0,0.0,0.0,0.0,0.0,0.0,0.0,0.0,0.0,0.0,0.0,0.0,0.0,0.0,0.0,0.0,0.0,0.0,0.0,0.0,0.0,0.0,0.0,0.0,0.0,0.0,0.0,0.0,0.0,0.0,0.0,0.0,0.0,0.0,0.0,0.0,0.0,0.0,0.0,0.0,0.0,0.0,0.0,0.0,0.0,0.0,0.0,0.0,0.0,0.0,0.0,-3.4384,-4.3692,-5.065,-5.2316,-5.2506,-5.2488,-5.2502,-5.2518,-4.7434,0.0,0.0,0.0,0.0,0.0,0.0,0.0,0.0,0.0,0.0,0.0,0.0,0.0,0.0,0.0,0.0,0.0,0.0,0.0,0.0,0.0,0.0,0.0,0.0,0.0,0.0,0.0,0.0,0.0,0.0,0.0,0.0,0.0,0.0,0.0,0.0,0.0,0.0,0.0,0.0,0.0,0.0,0.0,0.0,0.0,0.0,0.0,0.0,0.0,0.0,0.0,0.0,0.0,0.0,0.0,0.0,0.0,0.0,0.0,0.0,0.0,0.0,0.0,0.0,0.0,0.0,0.0,0.0,0.0,0.0,0.0,0.0,0.0,0.0,0.0,0.0,0.0,0.0,0.0,0.0,0.0,0.0,0.0,0.0,0.0,0.0,0.0,0.0,0.0,0.0,0.0,0.0,0.0,0.0,0.0,0.0,0.0,0.0,0.0,0.0,0.0,0.0,0.0,-3.3936,-4.0642,-4.6764,-5.1924,-5.1461,-5.1214,-5.2368,-5.1416,-4.6227,-3.5584,0.0,0.0,0.0,0.0,0.0,0.0,0.0,0.0,0.0,0.0,0.0,0.0,0.0,0.0,0.0,0.0,0.0,0.0,0.0,0.0,0.0,0.0,0.0,0.0,0.0,0.0,0.0,0.0,0.0,0.0,0.0,0.0,0.0,0.0,0.0,0.0,0.0,0.0,0.0,0.0,0.0,0.0,0.0,0.0,0.0,0.0,0.0,0.0,0.0,0.0,0.0,0.0,0.0,0.0,0.0,0.0,0.0,0.0,0.0,0.0,0.0,0.0,0.0,0.0,0.0,0.0,0.0,0.0,0.0,0.0,0.0,0.0,0.0,0.0,0.0,0.0,0.0,0.0,0.0,0.0,0.0,0.0,0.0,0.0,0.0,0.0,0.0,0.0,0.0,0.0,0.0,0.0,0.0,0.0,0.0,0.0,0.0,0.0,0.0,0.0,0.0,0.0,0.0,-4.0892,-4.684,-5.1068,-5.0591,-5.038,-5.1443,-5.057,-4.5669,-3.555,0.0,0.0,0.0,0.0,0.0,0.0,0.0,0.0,0.0,0.0,0.0,0.0,0.0,0.0,0.0,0.0,0.0,0.0,0.0,0.0,0.0,0.0,0.0,0.0,0.0,0.0,0.0,0.0,0.0,0.0,0.0,0.0,0.0,0.0,0.0,0.0,0.0,0.0,0.0,0.0,0.0,0.0,0.0,0.0,0.0,0.0,0.0,0.0,0.0,0.0,0.0,0.0,0.0,0.0,0.0,0.0,0.0,0.0,0.0,0.0,0.0,0.0,0.0,0.0,0.0,0.0,0.0,0.0,0.0,0.0,0.0,0.0,0.0,0.0,0.0,0.0,0.0,0.0,0.0,0.0,0.0,0.0,0.0,0.0,0.0,0.0,0.0,0.0,0.0,0.0,0.0,0.0,0.0,0.0,0.0,0.0,0.0,0.0,0.0,0.0,0.0,0.0,0.0,-4.321,-4.9384,-4.9885,-4.9963,-4.9963,-4.9963,-4.9963,-4.5634,-3.5459,-3.185,0.0,0.0,0.0,0.0,0.0,0.0,0.0,0.0,0.0,0.0,0.0,0.0,0.0,0.0,0.0,0.0,0.0,0.0,0.0,0.0,0.0,0.0,0.0,0.0,0.0,0.0,0.0,0.0,0.0,0.0,0.0,0.0,0.0,0.0,0.0,0.0,0.0,0.0,0.0,0.0,0.0,0.0,0.0,0.0,0.0,0.0,0.0,0.0,0.0,0.0,0.0,0.0,0.0,0.0,0.0,0.0,0.0,0.0,0.0,0.0,0.0,0.0,0.0,0.0,0.0,0.0,0.0,0.0,0.0,0.0,0.0,0.0,0.0,0.0,0.0,0.0,0.0,0.0,0.0,0.0,0.0,0.0,0.0,0.0,0.0,0.0,0.0,0.0,0.0,0.0,0.0,0.0,0.0,0.0,0.0,0.0,0.0,0.0,0.0,0.0,0.0,0.0,-3.9519,-4.3892,-4.9391,-4.9963,-4.9963,-4.9963,-4.9974,-4.5669,-3.559,-3.2891,0.0,0.0,0.0,0.0,0.0,0.0,0.0,0.0,0.0,0.0,0.0,0.0,0.0,0.0,0.0,0.0,0.0,0.0,0.0,0.0,0.0,0.0,0.0,0.0,0.0,0.0,0.0,0.0,0.0,0.0,0.0,0.0,0.0,0.0,0.0,0.0,0.0,0.0,0.0,0.0,0.0,0.0,0.0,0.0,0.0,0.0,0.0,0.0,0.0,0.0,0.0,0.0,0.0,0.0,0.0,0.0,0.0,0.0,0.0,0.0,0.0,0.0,0.0,0.0,0.0,0.0,0.0,0.0,0.0,0.0,0.0,0.0,0.0,0.0,0.0,0.0,0.0,0.0,0.0,0.0,0.0,0.0,0.0,0.0,0.0,0.0,0.0,0.0,0.0,0.0,0.0,0.0,0.0,0.0,0.0,0.0,0.0,0.0,0.0,0.0,0.0,0.0,-3.3541,-3.9575,-4.8935,-4.9953,-4.9974,-4.9974,-4.9964,-4.5691,-3.5629,-3.332,0.0,0.0,0.0,0.0,0.0,0.0,0.0,0.0,0.0,0.0,0.0,0.0,0.0,0.0,0.0,0.0,0.0,0.0,0.0,0.0,0.0,0.0,0.0,0.0,0.0,0.0,0.0,0.0,0.0,0.0,0.0,0.0,0.0,0.0,0.0,0.0,0.0,0.0,0.0,0.0,0.0,0.0,0.0,0.0,0.0,0.0,0.0,0.0,0.0,0.0,0.0,0.0,0.0,0.0,0.0,0.0,0.0,0.0,0.0,0.0,0.0,0.0,0.0,0.0,0.0,0.0,0.0,0.0,0.0,0.0,0.0,0.0,0.0,0.0,0.0,0.0,0.0,0.0,0.0,0.0,0.0,0.0,0.0,0.0,0.0,0.0,0.0,0.0,0.0,0.0,0.0,0.0,0.0,0.0,0.0,0.0,0.0,0.0,0.0,0.0,0.0,0.0,0.0,-3.6248,-4.7134,-4.9287,-4.9955,-4.9955,-4.9727,-4.5426,-3.5606,0.0,0.0,0.0,0.0,0.0,0.0,0.0,0.0,0.0,0.0,0.0,0.0,0.0,0.0,0.0,0.0,0.0,0.0,0.0,0.0,0.0,0.0,0.0,0.0,0.0,0.0,0.0,0.0,0.0,0.0,0.0,0.0,0.0,0.0,0.0,0.0,0.0,0.0,0.0,0.0,0.0,0.0,0.0,0.0,0.0,0.0,0.0,0.0,0.0,0.0,0.0,0.0,0.0,0.0,0.0,0.0,0.0,0.0,0.0,0.0,0.0,0.0,0.0,0.0,0.0,0.0,0.0,0.0,0.0,0.0,0.0,0.0,0.0,0.0,0.0,0.0,0.0,0.0,0.0,0.0,0.0,0.0,0.0,0.0,0.0,0.0,0.0,0.0,0.0,0.0,0.0,0.0,0.0,0.0,0.0,0.0,0.0,0.0,0.0,0.0,0.0,0.0,0.0,0.0,-3.4288,-4.0115,-4.628,-4.9955,-4.9955,-4.8622,-4.4146,-3.5534,0.0,0.0,0.0,0.0,0.0,0.0,0.0,0.0,0.0,0.0,0.0,0.0,0.0,0.0]}]]]